Time,TemperatureF,DewpointF,PressureIn,WindDirection,WindDirectionDegrees,WindSpeedMPH,WindSpeedGustMPH,Humidity,HourlyPrecipIn,Conditions,Clouds,dailyrainin,SoftwareType,DateUTC
2013-04-20 00:00:00,52.9,36.2,29.65,West,270,0.0,4.7,53,0.00,,---,0.00,VWS V14.01,2013-04-20 04:00:00,
2013-04-20 00:01:00,52.9,36.7,29.65,WSW,248,0.5,3.1,54,0.00,,---,0.00,VWS V14.01,2013-04-20 04:01:00,
2013-04-20 00:02:00,52.9,37.2,29.65,WSW,248,0.0,2.0,55,0.00,,---,0.00,VWS V14.01,2013-04-20 04:02:00,
2013-04-20 00:03:00,52.9,35.8,29.65,West,270,1.6,6.0,52,0.00,,---,0.00,VWS V14.01,2013-04-20 04:03:00,
2013-04-20 00:04:00,53.1,38.7,29.65,South,180,0.9,2.9,58,0.00,,---,0.00,VWS V14.01,2013-04-20 04:04:00,
2013-04-20 00:05:00,52.9,35.3,29.65,SSW,202,0.0,4.0,51,0.00,,---,0.00,VWS V14.01,2013-04-20 04:05:00,
2013-04-20 00:06:00,52.9,36.2,29.65,West,270,0.0,4.7,53,0.00,,---,0.00,VWS V14.01,2013-04-20 04:06:00,
2013-04-20 00:07:00,52.9,36.7,29.65,WSW,248,0.5,3.1,54,0.00,,---,0.00,VWS V14.01,2013-04-20 04:07:00,
2013-04-20 00:08:00,52.9,35.3,29.65,South,180,0.9,3.8,51,0.00,,---,0.00,VWS V14.01,2013-04-20 04:08:00,
2013-04-20 00:09:00,52.9,35.3,29.65,NNW,338,0.5,2.9,51,0.00,,---,0.00,VWS V14.01,2013-04-20 04:09:00,
2013-04-20 00:10:00,52.9,35.3,29.65,WNW,292,0.5,2.5,51,0.00,,---,0.00,VWS V14.01,2013-04-20 04:10:00,
2013-04-20 00:11:00,53.1,36.4,29.65,WNW,292,0.5,1.6,53,0.00,,---,0.00,VWS V14.01,2013-04-20 04:11:00,
2013-04-20 00:12:00,53.1,35.9,29.65,WNW,292,0.0,2.0,52,0.00,,---,0.00,VWS V14.01,2013-04-20 04:12:00,
2013-04-20 00:13:00,52.9,35.8,29.65,WNW,292,0.7,2.9,52,0.00,,---,0.00,VWS V14.01,2013-04-20 04:13:00,
2013-04-20 00:14:00,52.9,35.3,29.65,South,180,0.9,3.8,51,0.00,,---,0.00,VWS V14.01,2013-04-20 04:14:00,
2013-04-20 00:15:00,52.9,35.3,29.65,NNW,338,0.5,2.9,51,0.00,,---,0.00,VWS V14.01,2013-04-20 04:15:00,
2013-04-20 00:16:00,52.9,35.8,29.65,SSW,202,0.9,2.9,52,0.00,,---,0.00,VWS V14.01,2013-04-20 04:16:00,
2013-04-20 00:17:00,52.9,36.2,29.65,NW,315,0.0,2.9,53,0.00,,---,0.00,VWS V14.01,2013-04-20 04:17:00,
2013-04-20 00:18:00,52.9,36.7,29.65,SSE,158,0.0,1.6,54,0.00,,---,0.00,VWS V14.01,2013-04-20 04:18:00,
2013-04-20 00:19:00,52.9,35.8,29.65,WNW,292,0.7,2.9,52,0.00,,---,0.00,VWS V14.01,2013-04-20 04:19:00,
2013-04-20 00:20:00,53.1,36.4,29.65,WNW,292,0.7,1.6,53,0.00,,---,0.00,VWS V14.01,2013-04-20 04:20:00,
2013-04-20 00:21:00,52.7,36.1,29.65,SSW,202,0.2,1.3,53,0.00,,---,0.00,VWS V14.01,2013-04-20 04:21:00,
2013-04-20 00:22:00,52.9,35.8,29.65,SSW,202,0.9,2.9,52,0.00,,---,0.00,VWS V14.01,2013-04-20 04:22:00,
2013-04-20 00:23:00,52.9,36.2,29.65,NW,315,0.0,2.9,53,0.00,,---,0.00,VWS V14.01,2013-04-20 04:23:00,
2013-04-20 00:24:00,52.9,36.7,29.65,SSE,158,0.0,1.6,54,0.00,,---,0.00,VWS V14.01,2013-04-20 04:24:00,
2013-04-20 00:25:00,52.7,35.6,29.68,SSW,202,0.0,2.2,52,0.00,,---,0.00,VWS V14.01,2013-04-20 04:25:00,
2013-04-20 00:26:00,52.7,36.1,29.68,NW,315,0.0,1.3,53,0.00,,---,0.00,VWS V14.01,2013-04-20 04:26:00,
2013-04-20 00:27:00,52.7,36.5,29.68,NNE,22,0.0,1.6,54,0.00,,---,0.00,VWS V14.01,2013-04-20 04:27:00,
2013-04-20 00:28:00,52.7,36.1,29.65,ESE,112,0.0,2.0,53,0.00,,---,0.00,VWS V14.01,2013-04-20 04:28:00,
2013-04-20 00:29:00,52.7,36.5,29.68,West,270,0.0,0.0,54,0.00,,---,0.00,VWS V14.01,2013-04-20 04:29:00,
2013-04-20 00:30:00,52.7,35.1,29.68,SW,225,0.5,2.9,51,0.00,,---,0.00,VWS V14.01,2013-04-20 04:30:00,
2013-04-20 00:31:00,52.5,36.8,29.68,NW,315,0.2,2.5,55,0.00,,---,0.00,VWS V14.01,2013-04-20 04:31:00,
2013-04-20 00:32:00,52.7,36.1,29.68,NW,315,0.0,1.3,53,0.00,,---,0.00,VWS V14.01,2013-04-20 04:32:00,
2013-04-20 00:33:00,52.5,37.3,29.68,NNE,22,0.0,2.7,56,0.00,,---,0.00,VWS V14.01,2013-04-20 04:33:00,
2013-04-20 00:34:00,52.3,37.1,29.68,WNW,292,0.0,1.3,56,0.00,,---,0.00,VWS V14.01,2013-04-20 04:34:00,
2013-04-20 00:35:00,52.3,37.1,29.68,ENE,68,0.0,2.7,56,0.00,,---,0.00,VWS V14.01,2013-04-20 04:35:00,
2013-04-20 00:36:00,52.3,35.2,29.68,WNW,292,0.5,2.7,52,0.00,,---,0.00,VWS V14.01,2013-04-20 04:36:00,
2013-04-20 00:37:00,52.5,36.8,29.68,NW,315,0.2,2.5,55,0.00,,---,0.00,VWS V14.01,2013-04-20 04:37:00,
2013-04-20 00:38:00,52.2,37.8,29.68,SSE,158,0.0,3.6,58,0.00,,---,0.00,VWS V14.01,2013-04-20 04:38:00,
2013-04-20 00:39:00,52.5,37.3,29.68,NW,315,0.0,2.0,56,0.00,,---,0.00,VWS V14.01,2013-04-20 04:39:00,
2013-04-20 00:40:00,52.3,37.1,29.68,WNW,292,0.0,1.3,56,0.00,,---,0.00,VWS V14.01,2013-04-20 04:40:00,
2013-04-20 00:41:00,52.0,35.4,29.71,ENE,68,0.0,2.5,53,0.00,,---,0.00,VWS V14.01,2013-04-20 04:41:00,
2013-04-20 00:42:00,52.3,35.2,29.68,WNW,292,0.5,2.7,52,0.00,,---,0.00,VWS V14.01,2013-04-20 04:42:00,
2013-04-20 00:43:00,52.2,35.1,29.68,West,270,1.6,3.8,52,0.00,,---,0.00,VWS V14.01,2013-04-20 04:43:00,
2013-04-20 00:44:00,52.0,34.9,29.71,North,0,0.0,6.0,52,0.00,,---,0.00,VWS V14.01,2013-04-20 04:44:00,
2013-04-20 00:45:00,52.2,37.4,29.71,ESE,112,0.0,2.0,57,0.00,,---,0.00,VWS V14.01,2013-04-20 04:45:00,
2013-04-20 00:46:00,52.0,35.9,29.71,ESE,112,0.5,2.5,54,0.00,,---,0.00,VWS V14.01,2013-04-20 04:46:00,
2013-04-20 00:47:00,52.0,35.4,29.71,ENE,68,0.0,2.5,53,0.00,,---,0.00,VWS V14.01,2013-04-20 04:47:00,
2013-04-20 00:48:00,52.0,36.3,29.71,SSE,158,1.8,3.8,55,0.00,,---,0.00,VWS V14.01,2013-04-20 04:48:00,
2013-04-20 00:49:00,52.0,35.4,29.71,NW,315,0.2,2.2,53,0.00,,---,0.00,VWS V14.01,2013-04-20 04:49:00,
2013-04-20 00:50:00,52.0,35.4,29.71,NW,315,0.2,1.6,53,0.00,,---,0.00,VWS V14.01,2013-04-20 04:50:00,
2013-04-20 00:51:00,52.0,35.4,29.71,NW,315,0.0,2.0,53,0.00,,---,0.00,VWS V14.01,2013-04-20 04:51:00,
2013-04-20 00:52:00,52.0,35.4,29.71,WNW,292,0.2,2.7,53,0.00,,---,0.00,VWS V14.01,2013-04-20 04:52:00,
2013-04-20 00:53:00,52.0,34.9,29.71,NW,315,0.0,2.7,52,0.00,,---,0.00,VWS V14.01,2013-04-20 04:53:00,
2013-04-20 00:54:00,52.0,35.4,29.71,NW,315,0.5,2.5,53,0.00,,---,0.00,VWS V14.01,2013-04-20 04:54:00,
2013-04-20 00:55:00,52.0,35.4,29.71,NW,315,0.2,2.2,53,0.00,,---,0.00,VWS V14.01,2013-04-20 04:55:00,
2013-04-20 00:56:00,52.0,35.4,29.71,NW,315,0.2,1.6,53,0.00,,---,0.00,VWS V14.01,2013-04-20 04:56:00,
2013-04-20 00:57:00,52.0,34.9,29.71,WSW,248,0.9,2.9,52,0.00,,---,0.00,VWS V14.01,2013-04-20 04:57:00,
2013-04-20 00:58:00,52.0,34.9,29.71,WSW,248,1.8,4.3,52,0.00,,---,0.00,VWS V14.01,2013-04-20 04:58:00,
2013-04-20 00:59:00,52.0,34.9,29.71,WSW,248,0.9,3.8,52,0.00,,---,0.00,VWS V14.01,2013-04-20 04:59:00,
2013-04-20 01:00:00,52.0,34.9,29.71,SSE,158,1.1,3.8,52,0.00,,---,0.00,VWS V14.01,2013-04-20 05:00:00,
2013-04-20 01:01:00,52.0,34.4,29.71,WSW,248,0.9,5.8,51,0.00,,---,0.00,VWS V14.01,2013-04-20 05:01:00,
2013-04-20 01:02:00,51.8,34.3,29.71,WSW,248,0.7,2.7,51,0.00,,---,0.00,VWS V14.01,2013-04-20 05:02:00,
2013-04-20 01:03:00,52.0,34.9,29.71,WSW,248,0.9,2.9,52,0.00,,---,0.00,VWS V14.01,2013-04-20 05:03:00,
2013-04-20 01:04:00,51.8,33.3,29.71,West,270,0.7,3.4,49,0.00,,---,0.00,VWS V14.01,2013-04-20 05:04:00,
2013-04-20 01:05:00,51.8,32.8,29.71,WNW,292,0.0,3.8,48,0.00,,---,0.00,VWS V14.01,2013-04-20 05:05:00,
2013-04-20 01:06:00,52.0,34.9,29.71,SSE,158,1.1,3.8,52,0.00,,---,0.00,VWS V14.01,2013-04-20 05:06:00,
2013-04-20 01:07:00,51.8,34.3,29.71,WSW,248,0.7,4.3,51,0.00,,---,0.00,VWS V14.01,2013-04-20 05:07:00,
2013-04-20 01:08:00,51.8,34.3,29.71,WSW,248,0.7,2.7,51,0.00,,---,0.00,VWS V14.01,2013-04-20 05:08:00,
2013-04-20 01:09:00,51.6,32.1,29.71,WNW,292,0.9,4.0,47,0.00,,---,0.00,VWS V14.01,2013-04-20 05:09:00,
2013-04-20 01:10:00,51.6,32.6,29.71,West,270,0.9,3.6,48,0.00,,---,0.00,VWS V14.01,2013-04-20 05:10:00,
2013-04-20 01:11:00,51.6,32.6,29.71,South,180,1.1,4.9,48,0.00,,---,0.00,VWS V14.01,2013-04-20 05:11:00,
2013-04-20 01:12:00,51.8,33.3,29.71,West,270,1.8,3.8,49,0.00,,---,0.00,VWS V14.01,2013-04-20 05:12:00,
2013-04-20 01:13:00,51.8,32.8,29.71,SSE,158,1.4,5.4,48,0.00,,---,0.00,VWS V14.01,2013-04-20 05:13:00,
2013-04-20 01:14:00,51.6,32.6,29.71,WNW,292,1.6,3.8,48,0.00,,---,0.00,VWS V14.01,2013-04-20 05:14:00,
2013-04-20 01:15:00,51.4,30.8,29.71,NW,315,1.8,6.0,45,0.00,,---,0.00,VWS V14.01,2013-04-20 05:15:00,
2013-04-20 01:16:00,51.4,31.4,29.71,NW,315,1.1,3.8,46,0.00,,---,0.00,VWS V14.01,2013-04-20 05:16:00,
2013-04-20 01:17:00,51.6,32.6,29.71,South,180,1.1,4.9,48,0.00,,---,0.00,VWS V14.01,2013-04-20 05:17:00,
2013-04-20 01:18:00,51.4,31.4,29.71,NW,315,0.2,5.6,46,0.00,,---,0.00,VWS V14.01,2013-04-20 05:18:00,
2013-04-20 01:19:00,51.4,31.9,29.71,WSW,248,1.6,3.6,47,0.00,,---,0.00,VWS V14.01,2013-04-20 05:19:00,
2013-04-20 01:20:00,51.4,31.4,29.71,West,270,2.0,8.5,46,0.00,,---,0.00,VWS V14.01,2013-04-20 05:20:00,
2013-04-20 01:21:00,51.3,30.1,29.71,NNW,338,0.5,4.9,44,0.00,,---,0.00,VWS V14.01,2013-04-20 05:21:00,
2013-04-20 01:22:00,51.4,31.4,29.71,NW,315,1.1,3.8,46,0.00,,---,0.00,VWS V14.01,2013-04-20 05:22:00,
2013-04-20 01:23:00,51.1,30.5,29.71,NW,315,0.5,4.9,45,0.00,,---,0.00,VWS V14.01,2013-04-20 05:23:00,
2013-04-20 01:24:00,51.1,30.5,29.71,WNW,292,0.9,3.4,45,0.00,,---,0.00,VWS V14.01,2013-04-20 05:24:00,
2013-04-20 01:25:00,51.1,30.5,29.71,NW,315,1.8,5.6,45,0.00,,---,0.00,VWS V14.01,2013-04-20 05:25:00,
2013-04-20 01:26:00,51.1,30.5,29.71,WNW,292,2.3,4.3,45,0.00,,---,0.00,VWS V14.01,2013-04-20 05:26:00,
2013-04-20 01:27:00,51.3,30.1,29.71,NNW,338,0.5,4.9,44,0.00,,---,0.00,VWS V14.01,2013-04-20 05:27:00,
2013-04-20 01:28:00,51.3,30.1,29.71,NNW,338,0.0,3.4,44,0.00,,---,0.00,VWS V14.01,2013-04-20 05:28:00,
2013-04-20 01:29:00,51.1,30.5,29.71,NW,315,0.5,4.9,45,0.00,,---,0.00,VWS V14.01,2013-04-20 05:29:00,
2013-04-20 01:30:00,50.9,29.8,29.71,WSW,248,0.9,3.6,44,0.00,,---,0.00,VWS V14.01,2013-04-20 05:30:00,
2013-04-20 01:31:00,51.1,30.5,29.71,NW,315,1.8,5.6,45,0.00,,---,0.00,VWS V14.01,2013-04-20 05:31:00,
2013-04-20 01:32:00,50.7,29.6,29.71,South,180,1.6,4.7,44,0.00,,---,0.00,VWS V14.01,2013-04-20 05:32:00,
2013-04-20 01:33:00,50.9,29.8,29.71,WSW,248,3.4,5.4,44,0.00,,---,0.00,VWS V14.01,2013-04-20 05:33:00,
2013-04-20 01:34:00,50.9,29.8,29.71,SSE,158,5.2,7.2,44,0.00,,---,0.00,VWS V14.01,2013-04-20 05:34:00,
2013-04-20 01:35:00,50.9,29.8,29.71,WSW,248,1.1,7.2,44,0.00,,---,0.00,VWS V14.01,2013-04-20 05:35:00,
2013-04-20 01:36:00,50.7,29.6,29.71,WNW,292,0.9,3.8,44,0.00,,---,0.00,VWS V14.01,2013-04-20 05:36:00,
2013-04-20 01:37:00,50.7,29.6,29.71,WSW,248,0.5,2.7,44,0.00,,---,0.00,VWS V14.01,2013-04-20 05:37:00,
2013-04-20 01:38:00,50.7,29.6,29.71,South,180,1.6,4.7,44,0.00,,---,0.00,VWS V14.01,2013-04-20 05:38:00,
2013-04-20 01:39:00,50.5,29.5,29.74,WSW,248,0.0,4.9,44,0.00,,---,0.00,VWS V14.01,2013-04-20 05:39:00,
2013-04-20 01:40:00,50.5,28.9,29.71,SW,225,1.6,5.4,43,0.00,,---,0.00,VWS V14.01,2013-04-20 05:40:00,
2013-04-20 01:41:00,50.7,29.6,29.71,WSW,248,1.8,3.8,44,0.00,,---,0.00,VWS V14.01,2013-04-20 05:41:00,
2013-04-20 01:42:00,50.5,28.9,29.74,WSW,248,1.6,4.9,43,0.00,,---,0.00,VWS V14.01,2013-04-20 05:42:00,
2013-04-20 01:43:00,50.7,29.6,29.71,WSW,248,0.5,2.7,44,0.00,,---,0.00,VWS V14.01,2013-04-20 05:43:00,
2013-04-20 01:44:00,50.5,29.5,29.74,South,180,0.0,3.1,44,0.00,,---,0.00,VWS V14.01,2013-04-20 05:44:00,
2013-04-20 01:45:00,50.5,29.5,29.74,WSW,248,0.0,4.9,44,0.00,,---,0.00,VWS V14.01,2013-04-20 05:45:00,
2013-04-20 01:46:00,50.5,28.9,29.74,South,180,1.6,3.8,43,0.00,,---,0.00,VWS V14.01,2013-04-20 05:46:00,
2013-04-20 01:47:00,50.5,28.9,29.74,SSE,158,2.9,4.9,43,0.00,,---,0.00,VWS V14.01,2013-04-20 05:47:00,
2013-04-20 01:48:00,50.5,28.9,29.74,WSW,248,1.6,4.9,43,0.00,,---,0.00,VWS V14.01,2013-04-20 05:48:00,
2013-04-20 01:49:00,50.4,29.3,29.74,SSE,158,0.2,2.2,44,0.00,,---,0.00,VWS V14.01,2013-04-20 05:49:00,
2013-04-20 01:50:00,50.4,29.3,29.74,SSW,202,0.7,3.4,44,0.00,,---,0.00,VWS V14.01,2013-04-20 05:50:00,
2013-04-20 01:51:00,50.4,29.8,29.74,SSW,202,0.7,1.6,45,0.00,,---,0.00,VWS V14.01,2013-04-20 05:51:00,
2013-04-20 01:52:00,50.4,29.8,29.74,NNW,338,0.5,2.5,45,0.00,,---,0.00,VWS V14.01,2013-04-20 05:52:00,
2013-04-20 01:53:00,50.4,29.8,29.74,WSW,248,0.0,3.6,45,0.00,,---,0.00,VWS V14.01,2013-04-20 05:53:00,
2013-04-20 01:54:00,50.2,29.7,29.71,South,180,0.2,2.2,45,0.00,,---,0.00,VWS V14.01,2013-04-20 05:54:00,
2013-04-20 01:55:00,50.2,30.2,29.71,SE,135,0.2,2.2,46,0.00,,---,0.00,VWS V14.01,2013-04-20 05:55:00,
2013-04-20 01:56:00,50.2,30.2,29.71,West,270,0.2,1.6,46,0.00,,---,0.00,VWS V14.01,2013-04-20 05:56:00,
2013-04-20 01:57:00,50.2,30.2,29.71,WNW,292,0.0,2.2,46,0.00,,---,0.00,VWS V14.01,2013-04-20 05:57:00,
2013-04-20 01:58:00,50.2,30.2,29.71,WNW,292,0.5,2.5,46,0.00,,---,0.00,VWS V14.01,2013-04-20 05:58:00,
2013-04-20 01:59:00,50.4,30.4,29.74,NNW,338,0.7,1.3,46,0.00,,---,0.00,VWS V14.01,2013-04-20 05:59:00,
2013-04-20 02:00:00,50.2,29.7,29.71,South,180,0.2,2.2,45,0.00,,---,0.00,VWS V14.01,2013-04-20 06:00:00,
2013-04-20 02:01:00,50.0,31.1,29.71,SSE,158,0.0,2.0,48,0.00,,---,0.00,VWS V14.01,2013-04-20 06:01:00,
2013-04-20 02:02:00,50.0,31.1,29.71,SSE,158,0.0,2.0,48,0.00,,---,0.00,VWS V14.01,2013-04-20 06:02:00,
2013-04-20 02:03:00,50.2,30.2,29.71,WNW,292,0.0,2.2,46,0.00,,---,0.00,VWS V14.01,2013-04-20 06:03:00,
2013-04-20 02:04:00,50.0,31.6,29.71,SSE,158,0.0,0.0,49,0.00,,---,0.00,VWS V14.01,2013-04-20 06:04:00,
2013-04-20 02:05:00,50.2,30.2,29.71,SSE,158,0.5,2.5,46,0.00,,---,0.00,VWS V14.01,2013-04-20 06:05:00,
2013-04-20 02:06:00,50.2,32.3,29.71,SE,135,0.5,2.5,50,0.00,,---,0.00,VWS V14.01,2013-04-20 06:06:00,
2013-04-20 02:07:00,50.0,31.1,29.71,SSE,158,0.0,2.0,48,0.00,,---,0.00,VWS V14.01,2013-04-20 06:07:00,
2013-04-20 02:08:00,49.8,30.9,29.71,SSE,158,0.0,1.3,48,0.00,,---,0.00,VWS V14.01,2013-04-20 06:08:00,
2013-04-20 02:09:00,49.8,31.4,29.71,SSE,158,0.0,0.0,49,0.00,,---,0.00,VWS V14.01,2013-04-20 06:09:00,
2013-04-20 02:10:00,49.6,32.3,29.71,SSE,158,0.2,2.2,51,0.00,,---,0.00,VWS V14.01,2013-04-20 06:10:00,
2013-04-20 02:11:00,49.6,32.8,29.71,SSE,158,0.2,1.6,52,0.00,,---,0.00,VWS V14.01,2013-04-20 06:11:00,
2013-04-20 02:12:00,49.8,31.4,29.71,SSW,202,0.0,1.1,49,0.00,,---,0.00,VWS V14.01,2013-04-20 06:12:00,
2013-04-20 02:13:00,49.5,32.6,29.71,ESE,112,0.2,0.0,52,0.00,,---,0.00,VWS V14.01,2013-04-20 06:13:00,
2013-04-20 02:14:00,49.8,30.9,29.71,SSE,158,0.0,1.3,48,0.00,,---,0.00,VWS V14.01,2013-04-20 06:14:00,
2013-04-20 02:15:00,49.3,32.4,29.71,ESE,112,0.2,0.0,52,0.00,,---,0.00,VWS V14.01,2013-04-20 06:15:00,
2013-04-20 02:16:00,49.6,32.3,29.71,SSE,158,0.2,2.2,51,0.00,,---,0.00,VWS V14.01,2013-04-20 06:16:00,
2013-04-20 02:17:00,48.9,32.1,29.71,ENE,68,0.2,0.0,52,0.00,,---,0.00,VWS V14.01,2013-04-20 06:17:00,
2013-04-20 02:18:00,48.9,32.6,29.71,ENE,68,0.2,0.0,53,0.04,,---,0.04,VWS V14.01,2013-04-20 06:18:00,
2013-04-20 02:19:00,48.9,32.6,29.71,ENE,68,0.2,0.0,53,0.04,,---,0.04,VWS V14.01,2013-04-20 06:19:00,
2013-04-20 02:20:00,49.3,32.9,29.71,ESE,112,0.2,0.0,53,0.00,,---,0.00,VWS V14.01,2013-04-20 06:20:00,
2013-04-20 02:21:00,48.7,32.8,29.71,ENE,68,0.2,0.0,54,0.04,,---,0.04,VWS V14.01,2013-04-20 06:21:00,
2013-04-20 02:22:00,49.1,32.2,29.71,ESE,112,0.2,0.0,52,0.00,,---,0.00,VWS V14.01,2013-04-20 06:22:00,
2013-04-20 02:23:00,48.6,33.6,29.71,ENE,68,0.2,0.0,56,0.04,,---,0.04,VWS V14.01,2013-04-20 06:23:00,
2013-04-20 02:24:00,48.4,33.0,29.71,ENE,68,0.2,0.0,55,0.04,,---,0.04,VWS V14.01,2013-04-20 06:24:00,
2013-04-20 02:25:00,48.9,32.6,29.71,ENE,68,0.2,0.0,53,0.04,,---,0.04,VWS V14.01,2013-04-20 06:25:00,
2013-04-20 02:26:00,48.7,31.9,29.71,ENE,68,0.2,0.0,52,0.04,,---,0.04,VWS V14.01,2013-04-20 06:26:00,
2013-04-20 02:27:00,48.2,31.9,29.71,ENE,68,0.2,0.0,53,0.04,,---,0.04,VWS V14.01,2013-04-20 06:27:00,
2013-04-20 02:28:00,48.7,32.8,29.71,ENE,68,0.2,0.0,54,0.04,,---,0.04,VWS V14.01,2013-04-20 06:28:00,
2013-04-20 02:29:00,48.6,33.6,29.71,ENE,68,0.2,0.0,56,0.04,,---,0.04,VWS V14.01,2013-04-20 06:29:00,
2013-04-20 02:30:00,48.0,31.7,29.71,ENE,68,0.2,0.0,53,0.04,,---,0.04,VWS V14.01,2013-04-20 06:30:00,
2013-04-20 02:31:00,48.4,32.5,29.71,ENE,68,0.2,0.0,54,0.04,,---,0.04,VWS V14.01,2013-04-20 06:31:00,
2013-04-20 02:32:00,48.0,32.6,29.71,ENE,68,0.2,0.0,55,0.04,,---,0.04,VWS V14.01,2013-04-20 06:32:00,
2013-04-20 02:33:00,48.2,31.9,29.71,ENE,68,0.2,0.0,53,0.04,,---,0.04,VWS V14.01,2013-04-20 06:33:00,
2013-04-20 02:34:00,47.8,32.0,29.71,ENE,68,0.2,0.0,54,0.04,,---,0.04,VWS V14.01,2013-04-20 06:34:00,
2013-04-20 02:35:00,47.8,32.0,29.71,ENE,68,0.2,0.0,54,0.04,,---,0.04,VWS V14.01,2013-04-20 06:35:00,
2013-04-20 02:36:00,48.0,31.7,29.71,ENE,68,0.2,0.0,53,0.04,,---,0.04,VWS V14.01,2013-04-20 06:36:00,
2013-04-20 02:37:00,47.7,32.3,29.71,ENE,68,0.2,0.0,55,0.04,,---,0.04,VWS V14.01,2013-04-20 06:37:00,
2013-04-20 02:38:00,48.0,32.6,29.71,ENE,68,0.2,0.0,55,0.04,,---,0.04,VWS V14.01,2013-04-20 06:38:00,
2013-04-20 02:39:00,47.8,32.0,29.71,ENE,68,0.2,0.0,54,0.04,,---,0.04,VWS V14.01,2013-04-20 06:39:00,
2013-04-20 02:40:00,47.3,32.0,29.71,ENE,68,0.2,0.0,55,0.04,,---,0.04,VWS V14.01,2013-04-20 06:40:00,
2013-04-20 02:41:00,47.3,32.0,29.71,ENE,68,0.2,0.0,55,0.04,,---,0.04,VWS V14.01,2013-04-20 06:41:00,
2013-04-20 02:42:00,47.3,32.0,29.71,ENE,68,0.2,0.0,55,0.04,,---,0.04,VWS V14.01,2013-04-20 06:42:00,
2013-04-20 02:43:00,47.7,32.3,29.71,ENE,68,0.2,0.0,55,0.04,,---,0.04,VWS V14.01,2013-04-20 06:43:00,
2013-04-20 02:44:00,47.1,32.7,29.71,ENE,68,0.2,0.0,57,0.04,,---,0.04,VWS V14.01,2013-04-20 06:44:00,
2013-04-20 02:45:00,47.5,32.1,29.71,ENE,68,0.2,0.0,55,0.04,,---,0.04,VWS V14.01,2013-04-20 06:45:00,
2013-04-20 02:46:00,46.9,32.5,29.71,ENE,68,0.2,0.0,57,0.04,,---,0.04,VWS V14.01,2013-04-20 06:46:00,
2013-04-20 02:47:00,47.3,32.0,29.71,ENE,68,0.2,0.0,55,0.04,,---,0.04,VWS V14.01,2013-04-20 06:47:00,
2013-04-20 02:48:00,47.3,32.0,29.71,ENE,68,0.2,0.0,55,0.04,,---,0.04,VWS V14.01,2013-04-20 06:48:00,
2013-04-20 02:49:00,46.8,32.3,29.71,ENE,68,0.2,0.0,57,0.04,,---,0.04,VWS V14.01,2013-04-20 06:49:00,
2013-04-20 02:50:00,47.1,32.7,29.71,ENE,68,0.2,0.0,57,0.04,,---,0.04,VWS V14.01,2013-04-20 06:50:00,
2013-04-20 02:51:00,47.1,32.7,29.71,ENE,68,0.2,0.0,57,0.04,,---,0.04,VWS V14.01,2013-04-20 06:51:00,
2013-04-20 02:52:00,46.6,32.2,29.71,ENE,68,0.2,0.0,57,0.04,,---,0.04,VWS V14.01,2013-04-20 06:52:00,
2013-04-20 02:53:00,46.9,32.5,29.71,ENE,68,0.2,0.0,57,0.04,,---,0.04,VWS V14.01,2013-04-20 06:53:00,
2013-04-20 02:54:00,46.4,32.4,29.71,ENE,68,0.2,0.0,58,0.04,,---,0.04,VWS V14.01,2013-04-20 06:54:00,
2013-04-20 02:55:00,46.8,32.3,29.71,ENE,68,0.2,0.0,57,0.04,,---,0.04,VWS V14.01,2013-04-20 06:55:00,
2013-04-20 02:56:00,46.4,32.9,29.71,ENE,68,0.2,0.0,59,0.04,,---,0.04,VWS V14.01,2013-04-20 06:56:00,
2013-04-20 02:57:00,46.2,32.7,29.71,ENE,68,0.2,0.0,59,0.04,,---,0.04,VWS V14.01,2013-04-20 06:57:00,
2013-04-20 02:58:00,46.2,32.7,29.71,ENE,68,0.2,0.0,59,0.04,,---,0.04,VWS V14.01,2013-04-20 06:58:00,
2013-04-20 02:59:00,46.2,32.7,29.71,ENE,68,0.2,0.0,59,0.04,,---,0.04,VWS V14.01,2013-04-20 06:59:00,
2013-04-20 03:00:00,46.4,32.4,29.71,ENE,68,0.2,0.0,58,0.04,,---,0.04,VWS V14.01,2013-04-20 07:00:00,
2013-04-20 03:01:00,46.4,32.9,29.71,ENE,68,0.2,0.0,59,0.04,,---,0.04,VWS V14.01,2013-04-20 07:01:00,
2013-04-20 03:02:00,45.9,32.8,29.71,ENE,68,0.2,0.0,60,0.04,,---,0.04,VWS V14.01,2013-04-20 07:02:00,
2013-04-20 03:03:00,46.2,32.7,29.71,ENE,68,0.2,0.0,59,0.04,,---,0.04,VWS V14.01,2013-04-20 07:03:00,
2013-04-20 03:04:00,46.2,32.7,29.71,ENE,68,0.2,0.0,59,0.04,,---,0.04,VWS V14.01,2013-04-20 07:04:00,
2013-04-20 03:05:00,45.9,33.2,29.71,ENE,68,0.2,0.0,61,0.04,,---,0.04,VWS V14.01,2013-04-20 07:05:00,
2013-04-20 03:06:00,46.2,32.7,29.71,ENE,68,0.2,0.0,59,0.04,,---,0.04,VWS V14.01,2013-04-20 07:06:00,
2013-04-20 03:07:00,45.7,33.0,29.71,ENE,68,0.2,0.0,61,0.04,,---,0.04,VWS V14.01,2013-04-20 07:07:00,
2013-04-20 03:08:00,45.5,33.2,29.71,ENE,68,0.2,0.0,62,0.04,,---,0.04,VWS V14.01,2013-04-20 07:08:00,
2013-04-20 03:09:00,45.9,32.8,29.71,ENE,68,0.2,0.0,60,0.04,,---,0.04,VWS V14.01,2013-04-20 07:09:00,
2013-04-20 03:10:00,45.9,32.8,29.71,ENE,68,0.2,0.0,60,0.04,,---,0.04,VWS V14.01,2013-04-20 07:10:00,
2013-04-20 03:11:00,45.3,32.7,29.71,ENE,68,0.2,0.0,61,0.04,,---,0.04,VWS V14.01,2013-04-20 07:11:00,
2013-04-20 03:12:00,45.3,32.7,29.71,ENE,68,0.2,0.0,61,0.04,,---,0.04,VWS V14.01,2013-04-20 07:12:00,
2013-04-20 03:13:00,45.7,33.0,29.71,ENE,68,0.2,0.0,61,0.04,,---,0.04,VWS V14.01,2013-04-20 07:13:00,
2013-04-20 03:14:00,45.3,32.7,29.71,ENE,68,0.2,0.0,61,0.04,,---,0.04,VWS V14.01,2013-04-20 07:14:00,
2013-04-20 03:15:00,45.5,32.8,29.71,ENE,68,0.2,0.0,61,0.04,,---,0.04,VWS V14.01,2013-04-20 07:15:00,
2013-04-20 03:16:00,45.1,32.9,29.71,ENE,68,0.2,0.0,62,0.04,,---,0.04,VWS V14.01,2013-04-20 07:16:00,
2013-04-20 03:17:00,45.3,32.7,29.71,ENE,68,0.2,0.0,61,0.04,,---,0.04,VWS V14.01,2013-04-20 07:17:00,
2013-04-20 03:18:00,45.3,32.7,29.71,ENE,68,0.2,0.0,61,0.04,,---,0.04,VWS V14.01,2013-04-20 07:18:00,
2013-04-20 03:19:00,45.1,32.9,29.71,ENE,68,0.2,0.0,62,0.00,,---,0.04,VWS V14.01,2013-04-20 07:19:00,
2013-04-20 03:20:00,45.3,32.7,29.71,ENE,68,0.2,0.0,61,0.04,,---,0.04,VWS V14.01,2013-04-20 07:20:00,
2013-04-20 03:21:00,45.0,32.7,29.71,ENE,68,0.2,0.0,62,0.00,,---,0.04,VWS V14.01,2013-04-20 07:21:00,
2013-04-20 03:22:00,45.0,33.1,29.71,ENE,68,0.2,0.0,63,0.00,,---,0.04,VWS V14.01,2013-04-20 07:22:00,
2013-04-20 03:23:00,45.0,33.5,29.71,ENE,68,0.2,0.0,64,0.00,,---,0.04,VWS V14.01,2013-04-20 07:23:00,
2013-04-20 03:24:00,45.1,33.3,29.71,ENE,68,0.2,0.0,63,0.04,,---,0.04,VWS V14.01,2013-04-20 07:24:00,
2013-04-20 03:25:00,45.1,32.9,29.71,ENE,68,0.2,0.0,62,0.00,,---,0.04,VWS V14.01,2013-04-20 07:25:00,
2013-04-20 03:26:00,45.0,33.5,29.71,ENE,68,0.2,0.0,64,0.00,,---,0.04,VWS V14.01,2013-04-20 07:26:00,
2013-04-20 03:27:00,44.8,33.4,29.71,ENE,68,0.2,0.0,64,0.00,,---,0.04,VWS V14.01,2013-04-20 07:27:00,
2013-04-20 03:28:00,44.8,33.0,29.71,ENE,68,0.2,0.0,63,0.00,,---,0.04,VWS V14.01,2013-04-20 07:28:00,
2013-04-20 03:29:00,45.0,33.5,29.71,ENE,68,0.2,0.0,64,0.00,,---,0.04,VWS V14.01,2013-04-20 07:29:00,
2013-04-20 03:30:00,45.0,33.5,29.71,ENE,68,0.2,0.0,64,0.00,,---,0.04,VWS V14.01,2013-04-20 07:30:00,
2013-04-20 03:31:00,44.8,33.4,29.71,ENE,68,0.2,0.0,64,0.00,,---,0.04,VWS V14.01,2013-04-20 07:31:00,
2013-04-20 03:32:00,44.6,34.0,29.71,ENE,68,0.2,0.0,66,0.00,,---,0.04,VWS V14.01,2013-04-20 07:32:00,
2013-04-20 03:33:00,44.6,33.6,29.71,ENE,68,0.2,0.0,65,0.00,,---,0.04,VWS V14.01,2013-04-20 07:33:00,
2013-04-20 03:34:00,44.6,33.6,29.71,ENE,68,0.2,0.0,65,0.00,,---,0.04,VWS V14.01,2013-04-20 07:34:00,
2013-04-20 03:35:00,44.8,33.4,29.71,ENE,68,0.2,0.0,64,0.00,,---,0.04,VWS V14.01,2013-04-20 07:35:00,
2013-04-20 03:36:00,44.6,34.0,29.71,ENE,68,0.2,0.0,66,0.00,,---,0.04,VWS V14.01,2013-04-20 07:36:00,
2013-04-20 03:37:00,44.6,34.3,29.71,ENE,68,0.2,0.0,67,0.00,,---,0.04,VWS V14.01,2013-04-20 07:37:00,
2013-04-20 03:38:00,44.6,34.0,29.71,ENE,68,0.2,0.0,66,0.00,,---,0.04,VWS V14.01,2013-04-20 07:38:00,
2013-04-20 03:39:00,44.6,34.3,29.71,ENE,68,0.2,0.0,67,0.00,,---,0.04,VWS V14.01,2013-04-20 07:39:00,
2013-04-20 03:40:00,44.6,33.6,29.71,ENE,68,0.2,0.0,65,0.00,,---,0.04,VWS V14.01,2013-04-20 07:40:00,
2013-04-20 03:41:00,44.4,34.2,29.71,ENE,68,0.2,0.0,67,0.00,,---,0.04,VWS V14.01,2013-04-20 07:41:00,
2013-04-20 03:42:00,44.6,34.0,29.71,ENE,68,0.2,0.0,66,0.00,,---,0.04,VWS V14.01,2013-04-20 07:42:00,
2013-04-20 03:43:00,44.4,34.5,29.71,ENE,68,0.2,0.0,68,0.00,,---,0.04,VWS V14.01,2013-04-20 07:43:00,
2013-04-20 03:44:00,44.6,34.3,29.71,ENE,68,0.2,0.0,67,0.00,,---,0.04,VWS V14.01,2013-04-20 07:44:00,
2013-04-20 03:45:00,44.2,34.0,29.71,ENE,68,0.2,0.0,67,0.00,,---,0.04,VWS V14.01,2013-04-20 07:45:00,
2013-04-20 03:46:00,44.6,34.3,29.71,ENE,68,0.2,0.0,67,0.00,,---,0.04,VWS V14.01,2013-04-20 07:46:00,
2013-04-20 03:47:00,44.4,34.2,29.71,ENE,68,0.2,0.0,67,0.00,,---,0.04,VWS V14.01,2013-04-20 07:47:00,
2013-04-20 03:48:00,44.2,34.4,29.71,ENE,68,0.2,0.0,68,0.00,,---,0.04,VWS V14.01,2013-04-20 07:48:00,
2013-04-20 03:49:00,44.1,33.4,29.71,SE,135,0.2,2.2,66,0.00,,---,0.04,VWS V14.01,2013-04-20 07:49:00,
2013-04-20 03:50:00,44.1,33.4,29.71,ESE,112,0.7,3.1,66,0.00,,---,0.04,VWS V14.01,2013-04-20 07:50:00,
2013-04-20 03:51:00,44.2,34.0,29.71,ENE,68,0.2,0.0,67,0.00,,---,0.04,VWS V14.01,2013-04-20 07:51:00,
2013-04-20 03:52:00,44.1,33.4,29.71,East,90,0.0,2.0,66,0.00,,---,0.04,VWS V14.01,2013-04-20 07:52:00,
2013-04-20 03:53:00,44.2,34.4,29.71,ENE,68,0.2,0.0,68,0.00,,---,0.04,VWS V14.01,2013-04-20 07:53:00,
2013-04-20 03:54:00,43.9,33.7,29.71,East,90,0.0,1.6,67,0.00,,---,0.04,VWS V14.01,2013-04-20 07:54:00,
2013-04-20 03:55:00,43.9,33.3,29.71,East,90,0.0,2.0,66,0.00,,---,0.04,VWS V14.01,2013-04-20 07:55:00,
2013-04-20 03:56:00,44.1,33.4,29.71,ESE,112,0.7,3.1,66,0.00,,---,0.04,VWS V14.01,2013-04-20 07:56:00,
2013-04-20 03:57:00,43.9,33.7,29.71,East,90,0.0,0.0,67,0.00,,---,0.04,VWS V14.01,2013-04-20 07:57:00,
2013-04-20 03:58:00,44.1,33.4,29.71,East,90,0.0,2.0,66,0.00,,---,0.04,VWS V14.01,2013-04-20 07:58:00,
2013-04-20 03:59:00,44.1,33.4,29.71,East,90,0.0,2.0,66,0.00,,---,0.04,VWS V14.01,2013-04-20 07:59:00,
2013-04-20 04:00:00,43.9,34.0,29.71,East,90,0.0,0.0,68,0.00,,---,0.04,VWS V14.01,2013-04-20 08:00:00,
2013-04-20 04:01:00,43.9,34.4,29.71,East,90,0.0,0.0,69,0.00,,---,0.04,VWS V14.01,2013-04-20 08:01:00,
2013-04-20 04:02:00,43.9,33.3,29.71,East,90,0.0,1.3,66,0.00,,---,0.04,VWS V14.01,2013-04-20 08:02:00,
2013-04-20 04:03:00,43.9,33.7,29.71,East,90,0.0,0.0,67,0.00,,---,0.04,VWS V14.01,2013-04-20 08:03:00,
2013-04-20 04:04:00,43.9,34.0,29.71,East,90,0.0,0.0,68,0.00,,---,0.04,VWS V14.01,2013-04-20 08:04:00,
2013-04-20 04:05:00,43.5,34.0,29.71,ESE,112,0.0,2.0,69,0.00,,---,0.04,VWS V14.01,2013-04-20 08:05:00,
2013-04-20 04:06:00,43.9,34.0,29.71,East,90,0.0,0.0,68,0.00,,---,0.04,VWS V14.01,2013-04-20 08:06:00,
2013-04-20 04:07:00,43.5,34.0,29.71,ESE,112,0.0,1.1,69,0.00,,---,0.04,VWS V14.01,2013-04-20 08:07:00,
2013-04-20 04:08:00,43.5,34.0,29.71,ESE,112,0.0,0.0,69,0.00,,---,0.04,VWS V14.01,2013-04-20 08:08:00,
2013-04-20 04:09:00,43.7,33.8,29.71,ESE,112,0.2,2.2,68,0.00,,---,0.04,VWS V14.01,2013-04-20 08:09:00,
2013-04-20 04:10:00,43.7,34.2,29.71,ESE,112,0.0,2.2,69,0.00,,---,0.04,VWS V14.01,2013-04-20 08:10:00,
2013-04-20 04:11:00,43.5,34.0,29.71,ESE,112,0.0,2.0,69,0.00,,---,0.04,VWS V14.01,2013-04-20 08:11:00,
2013-04-20 04:12:00,43.3,34.2,29.74,ESE,112,0.0,0.0,70,0.00,,---,0.04,VWS V14.01,2013-04-20 08:12:00,
2013-04-20 04:13:00,43.5,34.0,29.71,ESE,112,0.0,1.1,69,0.00,,---,0.04,VWS V14.01,2013-04-20 08:13:00,
2013-04-20 04:14:00,43.3,34.6,29.74,ESE,112,0.0,0.0,71,0.00,,---,0.04,VWS V14.01,2013-04-20 08:14:00,
2013-04-20 04:15:00,43.3,34.6,29.74,ESE,112,0.0,0.0,71,0.00,,---,0.04,VWS V14.01,2013-04-20 08:15:00,
2013-04-20 04:16:00,43.3,34.2,29.74,ESE,112,0.0,0.0,70,0.00,,---,0.04,VWS V14.01,2013-04-20 08:16:00,
2013-04-20 04:17:00,43.3,34.2,29.74,ESE,112,0.0,0.0,70,0.00,,---,0.04,VWS V14.01,2013-04-20 08:17:00,
2013-04-20 04:18:00,43.3,34.2,29.74,ESE,112,0.0,0.0,70,0.00,,---,0.04,VWS V14.01,2013-04-20 08:18:00,
2013-04-20 04:20:00,43.2,34.4,29.74,ESE,112,0.0,0.0,71,0.00,,---,0.04,VWS V14.01,2013-04-20 08:20:00,
2013-04-20 04:21:00,43.3,34.6,29.74,ESE,112,0.0,0.0,71,0.00,,---,0.04,VWS V14.01,2013-04-20 08:21:00,
2013-04-20 04:22:00,43.3,34.2,29.74,ESE,112,0.0,0.0,70,0.00,,---,0.04,VWS V14.01,2013-04-20 08:22:00,
2013-04-20 04:23:00,43.3,34.2,29.74,ESE,112,0.0,0.0,70,0.00,,---,0.04,VWS V14.01,2013-04-20 08:23:00,
2013-04-20 04:24:00,43.0,34.2,29.74,ESE,112,0.0,0.0,71,0.00,,---,0.04,VWS V14.01,2013-04-20 08:24:00,
2013-04-20 04:25:00,43.2,34.4,29.74,ESE,112,0.0,0.0,71,0.00,,---,0.04,VWS V14.01,2013-04-20 08:25:00,
2013-04-20 04:26:00,43.2,34.4,29.74,ESE,112,0.0,0.0,71,0.00,,---,0.04,VWS V14.01,2013-04-20 08:26:00,
2013-04-20 04:27:00,42.8,33.7,29.74,ESE,112,0.0,1.3,70,0.00,,---,0.04,VWS V14.01,2013-04-20 08:27:00,
2013-04-20 04:28:00,42.8,33.7,29.74,ENE,68,0.0,1.1,70,0.00,,---,0.04,VWS V14.01,2013-04-20 08:28:00,
2013-04-20 04:29:00,42.8,33.7,29.74,ENE,68,0.0,0.0,70,0.00,,---,0.04,VWS V14.01,2013-04-20 08:29:00,
2013-04-20 04:30:00,43.0,34.2,29.74,ESE,112,0.0,0.0,71,0.00,,---,0.04,VWS V14.01,2013-04-20 08:30:00,
2013-04-20 04:31:00,43.0,34.2,29.74,ESE,112,0.0,2.0,71,0.00,,---,0.04,VWS V14.01,2013-04-20 08:31:00,
2013-04-20 04:32:00,42.8,33.7,29.74,ESE,112,0.0,2.0,70,0.00,,---,0.04,VWS V14.01,2013-04-20 08:32:00,
2013-04-20 04:33:00,42.8,33.7,29.74,ESE,112,0.0,1.3,70,0.00,,---,0.04,VWS V14.01,2013-04-20 08:33:00,
2013-04-20 04:34:00,42.8,34.1,29.74,ENE,68,0.0,0.0,71,0.00,,---,0.04,VWS V14.01,2013-04-20 08:34:00,
2013-04-20 04:35:00,42.8,33.7,29.74,ENE,68,0.0,0.0,70,0.00,,---,0.04,VWS V14.01,2013-04-20 08:35:00,
2013-04-20 04:36:00,42.6,34.2,29.74,NW,315,0.0,0.0,72,0.00,,---,0.04,VWS V14.01,2013-04-20 08:36:00,
2013-04-20 04:37:00,42.6,34.2,29.74,NW,315,0.0,0.0,72,0.00,,---,0.04,VWS V14.01,2013-04-20 08:37:00,
2013-04-20 04:38:00,42.6,33.9,29.74,NW,315,0.0,0.0,71,0.00,,---,0.04,VWS V14.01,2013-04-20 08:38:00,
2013-04-20 04:39:00,42.8,34.1,29.74,ENE,68,0.0,0.0,71,0.00,,---,0.04,VWS V14.01,2013-04-20 08:39:00,
2013-04-20 04:40:00,42.8,34.1,29.74,ENE,68,0.0,0.0,71,0.00,,---,0.04,VWS V14.01,2013-04-20 08:40:00,
2013-04-20 04:41:00,42.4,33.7,29.74,WNW,292,0.0,0.0,71,0.00,,---,0.04,VWS V14.01,2013-04-20 08:41:00,
2013-04-20 04:42:00,42.4,33.7,29.74,WNW,292,0.0,0.0,71,0.00,,---,0.04,VWS V14.01,2013-04-20 08:42:00,
2013-04-20 04:43:00,42.4,33.7,29.74,WNW,292,0.0,0.0,71,0.00,,---,0.04,VWS V14.01,2013-04-20 08:43:00,
2013-04-20 04:44:00,42.4,33.7,29.74,WNW,292,0.0,0.0,71,0.00,,---,0.04,VWS V14.01,2013-04-20 08:44:00,
2013-04-20 04:45:00,42.6,33.9,29.74,WNW,292,0.0,0.0,71,0.00,,---,0.04,VWS V14.01,2013-04-20 08:45:00,
2013-04-20 04:46:00,42.3,33.5,29.74,WNW,292,0.0,0.0,71,0.00,,---,0.04,VWS V14.01,2013-04-20 08:46:00,
2013-04-20 04:47:00,42.4,33.7,29.74,WNW,292,0.0,0.0,71,0.00,,---,0.04,VWS V14.01,2013-04-20 08:47:00,
2013-04-20 04:48:00,42.4,33.7,29.74,WNW,292,0.0,0.0,71,0.00,,---,0.04,VWS V14.01,2013-04-20 08:48:00,
2013-04-20 04:49:00,42.4,33.7,29.74,WNW,292,0.0,0.0,71,0.00,,---,0.04,VWS V14.01,2013-04-20 08:49:00,
2013-04-20 04:50:00,42.1,33.4,29.74,WNW,292,0.2,1.6,71,0.00,,---,0.04,VWS V14.01,2013-04-20 08:50:00,
2013-04-20 04:51:00,42.3,33.5,29.74,WNW,292,0.0,0.0,71,0.00,,---,0.04,VWS V14.01,2013-04-20 08:51:00,
2013-04-20 04:52:00,42.1,33.7,29.74,WNW,292,0.2,0.0,72,0.00,,---,0.04,VWS V14.01,2013-04-20 08:52:00,
2013-04-20 04:53:00,42.1,33.4,29.74,WNW,292,0.2,0.0,71,0.00,,---,0.04,VWS V14.01,2013-04-20 08:53:00,
2013-04-20 04:54:00,42.1,33.4,29.74,WNW,292,0.2,0.0,71,0.00,,---,0.04,VWS V14.01,2013-04-20 08:54:00,
2013-04-20 04:55:00,42.1,33.4,29.74,WNW,292,0.2,0.0,71,0.00,,---,0.04,VWS V14.01,2013-04-20 08:55:00,
2013-04-20 04:56:00,42.1,33.4,29.74,WNW,292,0.2,1.6,71,0.00,,---,0.04,VWS V14.01,2013-04-20 08:56:00,
2013-04-20 04:57:00,42.1,33.7,29.74,WNW,292,0.2,0.0,72,0.00,,---,0.04,VWS V14.01,2013-04-20 08:57:00,
2013-04-20 04:58:00,42.1,33.7,29.74,WNW,292,0.2,0.0,72,0.00,,---,0.04,VWS V14.01,2013-04-20 08:58:00,
2013-04-20 04:59:00,42.1,33.4,29.74,WNW,292,0.2,0.0,71,0.00,,---,0.04,VWS V14.01,2013-04-20 08:59:00,
2013-04-20 05:00:00,41.9,33.5,29.74,WNW,292,0.2,0.0,72,0.00,,---,0.04,VWS V14.01,2013-04-20 09:00:00,
2013-04-20 05:01:00,42.1,33.4,29.74,WNW,292,0.2,0.0,71,0.00,,---,0.04,VWS V14.01,2013-04-20 09:01:00,
2013-04-20 05:02:00,42.1,33.7,29.74,WNW,292,0.2,0.0,72,0.00,,---,0.04,VWS V14.01,2013-04-20 09:02:00,
2013-04-20 05:03:00,41.7,33.4,29.74,WNW,292,0.2,0.0,72,0.00,,---,0.04,VWS V14.01,2013-04-20 09:03:00,
2013-04-20 05:04:00,42.1,33.7,29.74,WNW,292,0.2,0.0,72,0.00,,---,0.04,VWS V14.01,2013-04-20 09:04:00,
2013-04-20 05:05:00,41.5,33.9,29.74,SE,135,0.7,3.1,74,0.00,,---,0.04,VWS V14.01,2013-04-20 09:05:00,
2013-04-20 05:06:00,41.5,33.5,29.74,ENE,68,0.0,2.7,73,0.00,,---,0.04,VWS V14.01,2013-04-20 09:06:00,
2013-04-20 05:07:00,41.7,33.4,29.74,WNW,292,0.2,0.0,72,0.00,,---,0.04,VWS V14.01,2013-04-20 09:07:00,
2013-04-20 05:08:00,41.5,33.5,29.74,WNW,292,0.2,1.6,73,0.00,,---,0.04,VWS V14.01,2013-04-20 09:08:00,
2013-04-20 05:09:00,41.5,33.5,29.74,WNW,292,0.2,1.1,73,0.00,,---,0.04,VWS V14.01,2013-04-20 09:09:00,
2013-04-20 05:10:00,41.7,33.7,29.74,SE,135,0.7,2.7,73,0.00,,---,0.04,VWS V14.01,2013-04-20 09:10:00,
2013-04-20 05:11:00,41.4,33.7,29.74,SE,135,0.5,2.5,74,0.00,,---,0.04,VWS V14.01,2013-04-20 09:11:00,
2013-04-20 05:12:00,41.5,33.5,29.74,ENE,68,0.0,2.7,73,0.00,,---,0.04,VWS V14.01,2013-04-20 09:12:00,
2013-04-20 05:13:00,41.4,34.0,29.74,NE,45,0.7,1.3,75,0.00,,---,0.04,VWS V14.01,2013-04-20 09:13:00,
2013-04-20 05:14:00,41.4,33.7,29.74,NE,45,0.7,0.0,74,0.00,,---,0.04,VWS V14.01,2013-04-20 09:14:00,
2013-04-20 05:15:00,41.5,33.5,29.74,WNW,292,0.2,1.1,73,0.00,,---,0.04,VWS V14.01,2013-04-20 09:15:00,
2013-04-20 05:16:00,41.5,33.9,29.74,SE,135,0.2,0.0,74,0.00,,---,0.04,VWS V14.01,2013-04-20 09:16:00,
2013-04-20 05:17:00,41.2,33.9,29.74,East,90,0.0,2.0,75,0.00,,---,0.04,VWS V14.01,2013-04-20 09:17:00,
2013-04-20 05:18:00,41.4,34.0,29.74,ESE,112,0.7,2.9,75,0.00,,---,0.04,VWS V14.01,2013-04-20 09:18:00,
2013-04-20 05:19:00,41.2,33.9,29.74,East,90,0.0,2.2,75,0.00,,---,0.04,VWS V14.01,2013-04-20 09:19:00,
2013-04-20 05:20:00,41.4,33.7,29.74,NE,45,0.7,0.0,74,0.00,,---,0.04,VWS V14.01,2013-04-20 09:20:00,
2013-04-20 05:21:00,41.2,33.9,29.74,East,90,0.0,1.6,75,0.00,,---,0.04,VWS V14.01,2013-04-20 09:21:00,
2013-04-20 05:22:00,41.0,34.0,29.74,East,90,0.0,2.0,76,0.00,,---,0.04,VWS V14.01,2013-04-20 09:22:00,
2013-04-20 05:23:00,41.2,33.9,29.74,East,90,0.0,2.0,75,0.00,,---,0.04,VWS V14.01,2013-04-20 09:23:00,
2013-04-20 05:24:00,41.0,33.7,29.76,East,90,0.0,1.6,75,0.00,,---,0.04,VWS V14.01,2013-04-20 09:24:00,
2013-04-20 05:25:00,41.2,33.9,29.74,East,90,0.0,2.2,75,0.00,,---,0.04,VWS V14.01,2013-04-20 09:25:00,
2013-04-20 05:26:00,41.0,33.7,29.76,East,90,0.0,0.0,75,0.00,,---,0.04,VWS V14.01,2013-04-20 09:26:00,
2013-04-20 05:27:00,41.0,33.7,29.76,East,90,0.0,0.0,75,0.00,,---,0.04,VWS V14.01,2013-04-20 09:27:00,
2013-04-20 05:28:00,40.8,33.5,29.76,East,90,0.0,2.0,75,0.00,,---,0.04,VWS V14.01,2013-04-20 09:28:00,
2013-04-20 05:29:00,40.8,33.8,29.76,East,90,0.0,2.0,76,0.00,,---,0.04,VWS V14.01,2013-04-20 09:29:00,
2013-04-20 05:30:00,41.0,33.7,29.76,East,90,0.0,1.6,75,0.00,,---,0.04,VWS V14.01,2013-04-20 09:30:00,
2013-04-20 05:31:00,41.0,33.7,29.76,East,90,0.0,1.1,75,0.00,,---,0.04,VWS V14.01,2013-04-20 09:31:00,
2013-04-20 05:32:00,41.0,33.7,29.76,East,90,0.0,0.0,75,0.00,,---,0.04,VWS V14.01,2013-04-20 09:32:00,
2013-04-20 05:33:00,41.0,33.7,29.76,East,90,0.0,0.0,75,0.00,,---,0.04,VWS V14.01,2013-04-20 09:33:00,
2013-04-20 05:34:00,40.6,33.7,29.76,East,90,0.0,0.0,76,0.00,,---,0.04,VWS V14.01,2013-04-20 09:34:00,
2013-04-20 05:35:00,40.6,33.7,29.76,East,90,0.0,0.0,76,0.00,,---,0.04,VWS V14.01,2013-04-20 09:35:00,
2013-04-20 05:36:00,40.6,33.7,29.76,East,90,0.0,0.0,76,0.00,,---,0.04,VWS V14.01,2013-04-20 09:36:00,
2013-04-20 05:37:00,40.6,33.7,29.76,East,90,0.0,0.0,76,0.00,,---,0.04,VWS V14.01,2013-04-20 09:37:00,
2013-04-20 05:38:00,40.6,33.7,29.76,East,90,0.0,1.1,76,0.00,,---,0.04,VWS V14.01,2013-04-20 09:38:00,
2013-04-20 05:39:00,40.5,33.5,29.76,East,90,0.0,0.0,76,0.00,,---,0.04,VWS V14.01,2013-04-20 09:39:00,
2013-04-20 05:40:00,40.5,33.5,29.76,East,90,0.0,0.0,76,0.00,,---,0.04,VWS V14.01,2013-04-20 09:40:00,
2013-04-20 05:41:00,40.5,33.8,29.76,East,90,0.0,0.0,77,0.00,,---,0.04,VWS V14.01,2013-04-20 09:41:00,
2013-04-20 05:42:00,40.6,33.7,29.76,East,90,0.0,0.0,76,0.00,,---,0.04,VWS V14.01,2013-04-20 09:42:00,
2013-04-20 05:43:00,40.5,34.2,29.76,East,90,0.0,0.0,78,0.00,,---,0.04,VWS V14.01,2013-04-20 09:43:00,
2013-04-20 05:44:00,40.6,33.7,29.76,East,90,0.0,0.0,76,0.00,,---,0.04,VWS V14.01,2013-04-20 09:44:00,
2013-04-20 05:45:00,40.5,33.5,29.76,East,90,0.0,0.0,76,0.00,,---,0.04,VWS V14.01,2013-04-20 09:45:00,
2013-04-20 05:46:00,40.5,34.2,29.76,East,90,0.0,0.0,78,0.00,,---,0.04,VWS V14.01,2013-04-20 09:46:00,
2013-04-20 05:47:00,40.5,33.8,29.76,East,90,0.0,0.0,77,0.00,,---,0.04,VWS V14.01,2013-04-20 09:47:00,
2013-04-20 05:48:00,40.5,33.8,29.76,East,90,0.0,0.0,77,0.00,,---,0.04,VWS V14.01,2013-04-20 09:48:00,
2013-04-20 05:49:00,40.3,34.3,29.76,East,90,0.0,0.0,79,0.00,,---,0.04,VWS V14.01,2013-04-20 09:49:00,
2013-04-20 05:50:00,40.5,34.2,29.76,East,90,0.0,0.0,78,0.00,,---,0.04,VWS V14.01,2013-04-20 09:50:00,
2013-04-20 05:51:00,40.5,34.2,29.76,East,90,0.0,0.0,78,0.00,,---,0.04,VWS V14.01,2013-04-20 09:51:00,
2013-04-20 05:52:00,40.3,34.3,29.76,East,90,0.0,0.0,79,0.00,,---,0.04,VWS V14.01,2013-04-20 09:52:00,
2013-04-20 05:53:00,40.3,34.3,29.76,East,90,0.0,0.0,79,0.00,,---,0.04,VWS V14.01,2013-04-20 09:53:00,
2013-04-20 05:54:00,40.5,34.2,29.76,East,90,0.0,0.0,78,0.00,,---,0.04,VWS V14.01,2013-04-20 09:54:00,
2013-04-20 05:55:00,40.3,34.3,29.76,East,90,0.0,0.0,79,0.00,,---,0.04,VWS V14.01,2013-04-20 09:55:00,
2013-04-20 05:56:00,40.1,33.8,29.76,East,90,0.0,0.0,78,0.00,,---,0.04,VWS V14.01,2013-04-20 09:56:00,
2013-04-20 05:57:00,40.3,34.3,29.76,East,90,0.0,0.0,79,0.00,,---,0.04,VWS V14.01,2013-04-20 09:57:00,
2013-04-20 05:58:00,40.3,34.3,29.76,East,90,0.0,0.0,79,0.00,,---,0.04,VWS V14.01,2013-04-20 09:58:00,
2013-04-20 05:59:00,39.9,34.0,29.76,East,90,0.0,0.0,79,0.00,,---,0.04,VWS V14.01,2013-04-20 09:59:00,
2013-04-20 06:00:00,39.9,34.0,29.76,East,90,0.0,0.0,79,0.00,,---,0.04,VWS V14.01,2013-04-20 10:00:00,
2013-04-20 06:01:00,39.9,34.0,29.76,NNE,22,0.0,0.0,79,0.00,,---,0.04,VWS V14.01,2013-04-20 10:01:00,
2013-04-20 06:02:00,39.9,34.0,29.76,NE,45,0.0,1.1,79,0.00,,---,0.04,VWS V14.01,2013-04-20 10:02:00,
2013-04-20 06:03:00,40.1,33.8,29.76,East,90,0.0,0.0,78,0.00,,---,0.04,VWS V14.01,2013-04-20 10:03:00,
2013-04-20 06:04:00,40.1,33.8,29.76,East,90,0.0,0.0,78,0.00,,---,0.04,VWS V14.01,2013-04-20 10:04:00,
2013-04-20 06:05:00,39.9,33.6,29.76,NE,45,0.0,1.6,78,0.00,,---,0.04,VWS V14.01,2013-04-20 10:05:00,
2013-04-20 06:06:00,39.7,33.8,29.76,NE,45,0.0,1.6,79,0.00,,---,0.04,VWS V14.01,2013-04-20 10:06:00,
2013-04-20 06:07:00,39.9,34.0,29.76,NE,45,0.0,1.6,79,0.00,,---,0.04,VWS V14.01,2013-04-20 10:07:00,
2013-04-20 06:08:00,39.7,33.8,29.76,NE,45,0.0,1.3,79,0.00,,---,0.04,VWS V14.01,2013-04-20 10:08:00,
2013-04-20 06:09:00,39.9,34.0,29.76,NE,45,0.0,1.1,79,0.00,,---,0.04,VWS V14.01,2013-04-20 10:09:00,
2013-04-20 06:10:00,39.7,33.5,29.76,NE,45,0.0,1.6,78,0.00,,---,0.04,VWS V14.01,2013-04-20 10:10:00,
2013-04-20 06:11:00,39.9,33.6,29.76,NE,45,0.0,1.6,78,0.00,,---,0.04,VWS V14.01,2013-04-20 10:11:00,
2013-04-20 06:12:00,39.7,33.8,29.76,NE,45,0.0,1.6,79,0.00,,---,0.04,VWS V14.01,2013-04-20 10:12:00,
2013-04-20 06:13:00,39.7,33.8,29.76,East,90,0.2,2.2,79,0.00,,---,0.04,VWS V14.01,2013-04-20 10:13:00,
2013-04-20 06:14:00,39.7,34.7,29.76,East,90,0.2,2.2,82,0.00,,---,0.04,VWS V14.01,2013-04-20 10:14:00,
2013-04-20 06:15:00,39.7,33.8,29.76,NE,45,0.0,0.9,79,0.00,,---,0.04,VWS V14.01,2013-04-20 10:15:00,
2013-04-20 06:16:00,39.7,34.7,29.76,SSE,158,0.0,2.2,82,0.00,,---,0.04,VWS V14.01,2013-04-20 10:16:00,
2013-04-20 06:17:00,39.6,34.8,29.76,SSE,158,0.0,2.0,83,0.00,,---,0.04,VWS V14.01,2013-04-20 10:17:00,
2013-04-20 06:18:00,39.7,33.8,29.76,NE,45,0.2,2.2,79,0.00,,---,0.04,VWS V14.01,2013-04-20 10:18:00,
2013-04-20 06:19:00,39.7,33.8,29.76,East,90,0.2,2.2,79,0.00,,---,0.04,VWS V14.01,2013-04-20 10:19:00,
2013-04-20 06:20:00,39.7,34.7,29.76,East,90,0.2,2.2,82,0.00,,---,0.04,VWS V14.01,2013-04-20 10:20:00,
2013-04-20 06:21:00,39.4,34.0,29.76,ENE,68,0.0,1.6,81,0.00,,---,0.04,VWS V14.01,2013-04-20 10:21:00,
2013-04-20 06:22:00,39.4,34.0,29.76,ENE,68,0.0,1.1,81,0.00,,---,0.04,VWS V14.01,2013-04-20 10:22:00,
2013-04-20 06:23:00,39.4,33.7,29.76,ENE,68,0.0,0.0,80,0.00,,---,0.04,VWS V14.01,2013-04-20 10:23:00,
2013-04-20 06:24:00,39.6,34.5,29.76,SSE,158,0.0,1.3,82,0.00,,---,0.04,VWS V14.01,2013-04-20 10:24:00,
2013-04-20 06:25:00,39.4,34.0,29.76,ENE,68,0.0,1.3,81,0.00,,---,0.04,VWS V14.01,2013-04-20 10:25:00,
2013-04-20 06:26:00,39.2,33.6,29.76,ENE,68,0.0,0.0,80,0.00,,---,0.04,VWS V14.01,2013-04-20 10:26:00,
2013-04-20 06:27:00,39.2,33.9,29.76,ENE,68,0.0,0.0,81,0.00,,---,0.04,VWS V14.01,2013-04-20 10:27:00,
2013-04-20 06:28:00,39.4,34.0,29.76,ENE,68,0.0,1.1,81,0.00,,---,0.04,VWS V14.01,2013-04-20 10:28:00,
2013-04-20 06:29:00,39.4,33.7,29.76,ENE,68,0.0,0.0,80,0.00,,---,0.04,VWS V14.01,2013-04-20 10:29:00,
2013-04-20 06:30:00,39.2,33.9,29.76,ENE,68,0.0,0.0,81,0.00,,---,0.04,VWS V14.01,2013-04-20 10:30:00,
2013-04-20 06:31:00,39.2,33.9,29.76,ENE,68,0.0,0.0,81,0.00,,---,0.04,VWS V14.01,2013-04-20 10:31:00,
2013-04-20 06:32:00,39.2,33.9,29.76,ENE,68,0.0,0.0,81,0.00,,---,0.04,VWS V14.01,2013-04-20 10:32:00,
2013-04-20 06:33:00,39.2,33.9,29.76,ENE,68,0.0,0.0,81,0.00,,---,0.04,VWS V14.01,2013-04-20 10:33:00,
2013-04-20 06:34:00,39.2,33.9,29.76,ENE,68,0.0,0.0,81,0.00,,---,0.04,VWS V14.01,2013-04-20 10:34:00,
2013-04-20 06:35:00,39.2,33.9,29.76,ENE,68,0.0,0.0,81,0.00,,---,0.04,VWS V14.01,2013-04-20 10:35:00,
2013-04-20 06:36:00,39.2,33.9,29.76,ENE,68,0.0,0.0,81,0.00,,---,0.04,VWS V14.01,2013-04-20 10:36:00,
2013-04-20 06:37:00,39.0,33.1,29.76,ENE,68,0.0,0.0,79,0.00,,---,0.04,VWS V14.01,2013-04-20 10:37:00,
2013-04-20 06:38:00,39.0,33.1,29.76,ENE,68,0.0,0.0,79,0.00,,---,0.04,VWS V14.01,2013-04-20 10:38:00,
2013-04-20 06:39:00,39.0,33.1,29.76,ENE,68,0.0,0.0,79,0.00,,---,0.04,VWS V14.01,2013-04-20 10:39:00,
2013-04-20 06:40:00,39.0,33.1,29.76,ENE,68,0.0,0.0,79,0.00,,---,0.04,VWS V14.01,2013-04-20 10:40:00,
2013-04-20 06:41:00,39.2,33.9,29.76,ENE,68,0.0,0.0,81,0.00,,---,0.04,VWS V14.01,2013-04-20 10:41:00,
2013-04-20 06:42:00,38.8,33.2,29.76,ENE,68,0.0,0.0,80,0.00,,---,0.04,VWS V14.01,2013-04-20 10:42:00,
2013-04-20 06:43:00,39.0,33.1,29.76,ENE,68,0.0,0.0,79,0.00,,---,0.04,VWS V14.01,2013-04-20 10:43:00,
2013-04-20 06:44:00,38.8,32.6,29.76,ESE,112,0.0,2.5,78,0.00,,---,0.04,VWS V14.01,2013-04-20 10:44:00,
2013-04-20 06:45:00,39.0,33.1,29.76,ENE,68,0.0,0.0,79,0.00,,---,0.04,VWS V14.01,2013-04-20 10:45:00,
2013-04-20 06:46:00,38.8,32.6,29.76,ESE,112,0.0,0.9,78,0.00,,---,0.04,VWS V14.01,2013-04-20 10:46:00,
2013-04-20 06:47:00,38.8,32.3,29.76,ENE,68,0.0,0.0,77,0.00,,---,0.04,VWS V14.01,2013-04-20 10:47:00,
2013-04-20 06:48:00,38.8,33.2,29.76,ENE,68,0.0,0.0,80,0.00,,---,0.04,VWS V14.01,2013-04-20 10:48:00,
2013-04-20 06:49:00,38.8,32.3,29.76,ENE,68,0.0,0.0,77,0.00,,---,0.04,VWS V14.01,2013-04-20 10:49:00,
2013-04-20 06:50:00,38.8,32.6,29.76,ESE,112,0.0,2.5,78,0.00,,---,0.04,VWS V14.01,2013-04-20 10:50:00,
2013-04-20 06:51:00,38.8,32.6,29.76,ESE,112,0.0,2.0,78,0.00,,---,0.04,VWS V14.01,2013-04-20 10:51:00,
2013-04-20 06:52:00,38.8,32.3,29.76,ENE,68,0.0,0.0,77,0.00,,---,0.04,VWS V14.01,2013-04-20 10:52:00,
2013-04-20 06:53:00,38.8,32.3,29.76,ENE,68,0.0,0.0,77,0.00,,---,0.04,VWS V14.01,2013-04-20 10:53:00,
2013-04-20 06:54:00,38.8,32.3,29.76,ENE,68,0.0,0.0,77,0.00,,---,0.04,VWS V14.01,2013-04-20 10:54:00,
2013-04-20 06:55:00,38.8,32.3,29.76,ENE,68,0.0,0.0,77,0.00,,---,0.04,VWS V14.01,2013-04-20 10:55:00,
2013-04-20 06:56:00,38.7,32.4,29.76,ENE,68,0.0,0.0,78,0.00,,---,0.04,VWS V14.01,2013-04-20 10:56:00,
2013-04-20 06:57:00,38.7,32.4,29.76,ENE,68,0.0,0.0,78,0.00,,---,0.04,VWS V14.01,2013-04-20 10:57:00,
2013-04-20 06:58:00,38.8,32.3,29.76,ENE,68,0.0,0.0,77,0.00,,---,0.04,VWS V14.01,2013-04-20 10:58:00,
2013-04-20 06:59:00,38.7,32.4,29.76,ENE,68,0.0,0.0,78,0.00,,---,0.04,VWS V14.01,2013-04-20 10:59:00,
2013-04-20 07:00:00,38.8,32.3,29.76,ENE,68,0.0,0.0,77,0.00,,---,0.04,VWS V14.01,2013-04-20 11:00:00,
2013-04-20 07:01:00,38.8,32.3,29.76,ENE,68,0.0,0.0,77,0.00,,---,0.04,VWS V14.01,2013-04-20 11:01:00,
2013-04-20 07:02:00,38.7,32.4,29.76,ENE,68,0.0,0.0,78,0.00,,---,0.04,VWS V14.01,2013-04-20 11:02:00,
2013-04-20 07:03:00,38.7,32.4,29.76,ENE,68,0.0,0.0,78,0.00,,---,0.04,VWS V14.01,2013-04-20 11:03:00,
2013-04-20 07:04:00,38.7,32.4,29.76,ENE,68,0.0,0.0,78,0.00,,---,0.04,VWS V14.01,2013-04-20 11:04:00,
2013-04-20 07:05:00,38.7,32.4,29.76,ENE,68,0.0,0.0,78,0.00,,---,0.04,VWS V14.01,2013-04-20 11:05:00,
2013-04-20 07:06:00,38.7,32.4,29.76,ENE,68,0.0,0.0,78,0.00,,---,0.04,VWS V14.01,2013-04-20 11:06:00,
2013-04-20 07:07:00,38.7,32.4,29.76,ENE,68,0.0,0.0,78,0.00,,---,0.04,VWS V14.01,2013-04-20 11:07:00,
2013-04-20 07:08:00,38.7,32.4,29.76,ENE,68,0.0,0.0,78,0.00,,---,0.04,VWS V14.01,2013-04-20 11:08:00,
2013-04-20 07:09:00,38.7,32.4,29.76,ENE,68,0.0,0.0,78,0.00,,---,0.04,VWS V14.01,2013-04-20 11:09:00,
2013-04-20 07:10:00,38.5,32.2,29.79,East,90,0.0,0.0,78,0.00,,---,0.04,VWS V14.01,2013-04-20 11:10:00,
2013-04-20 07:11:00,38.5,32.2,29.79,East,90,0.0,0.0,78,0.00,,---,0.04,VWS V14.01,2013-04-20 11:11:00,
2013-04-20 07:12:00,38.7,32.4,29.76,ENE,68,0.0,0.0,78,0.00,,---,0.04,VWS V14.01,2013-04-20 11:12:00,
2013-04-20 07:13:00,38.5,32.2,29.79,East,90,0.0,0.0,78,0.00,,---,0.04,VWS V14.01,2013-04-20 11:13:00,
2013-04-20 07:14:00,38.5,32.2,29.76,East,90,0.0,0.0,78,0.00,,---,0.04,VWS V14.01,2013-04-20 11:14:00,
2013-04-20 07:15:00,38.5,32.2,29.79,East,90,0.0,0.0,78,0.00,,---,0.04,VWS V14.01,2013-04-20 11:15:00,
2013-04-20 07:16:00,38.7,32.7,29.79,East,90,0.0,0.0,79,0.00,,---,0.04,VWS V14.01,2013-04-20 11:16:00,
2013-04-20 07:17:00,38.5,32.2,29.79,East,90,0.0,0.0,78,0.00,,---,0.04,VWS V14.01,2013-04-20 11:17:00,
2013-04-20 07:18:00,38.7,33.0,29.79,East,90,0.0,0.0,80,0.00,,---,0.04,VWS V14.01,2013-04-20 11:18:00,
2013-04-20 07:19:00,38.7,32.7,29.79,East,90,0.0,0.0,79,0.00,,---,0.04,VWS V14.01,2013-04-20 11:19:00,
2013-04-20 07:20:00,38.7,32.4,29.79,East,90,0.0,0.0,78,0.00,,---,0.04,VWS V14.01,2013-04-20 11:20:00,
2013-04-20 07:21:00,38.5,32.2,29.79,East,90,0.0,0.0,78,0.00,,---,0.04,VWS V14.01,2013-04-20 11:21:00,
2013-04-20 07:22:00,38.7,32.7,29.79,East,90,0.0,0.0,79,0.00,,---,0.04,VWS V14.01,2013-04-20 11:22:00,
2013-04-20 07:23:00,38.7,32.7,29.79,NNE,22,0.0,0.0,79,0.00,,---,0.04,VWS V14.01,2013-04-20 11:23:00,
2013-04-20 07:24:00,38.7,32.7,29.82,NNE,22,0.0,0.0,79,0.00,,---,0.04,VWS V14.01,2013-04-20 11:24:00,
2013-04-20 07:25:00,38.7,32.7,29.79,East,90,0.0,0.0,79,0.00,,---,0.04,VWS V14.01,2013-04-20 11:25:00,
2013-04-20 07:26:00,38.7,32.7,29.82,NNE,22,0.0,0.0,79,0.00,,---,0.04,VWS V14.01,2013-04-20 11:26:00,
2013-04-20 07:27:00,38.7,32.7,29.79,NNE,22,0.0,0.0,79,0.00,,---,0.04,VWS V14.01,2013-04-20 11:27:00,
2013-04-20 07:28:00,38.7,32.7,29.79,NNE,22,0.0,0.0,79,0.00,,---,0.04,VWS V14.01,2013-04-20 11:28:00,
2013-04-20 07:29:00,38.8,32.3,29.82,NE,45,0.0,0.0,77,0.00,,---,0.04,VWS V14.01,2013-04-20 11:29:00,
2013-04-20 07:30:00,38.8,32.3,29.82,NE,45,0.0,0.0,77,0.00,,---,0.04,VWS V14.01,2013-04-20 11:30:00,
2013-04-20 07:31:00,38.8,32.3,29.82,NE,45,0.0,0.0,77,0.00,,---,0.04,VWS V14.01,2013-04-20 11:31:00,
2013-04-20 07:32:00,38.7,32.7,29.82,NNE,22,0.0,0.0,79,0.00,,---,0.04,VWS V14.01,2013-04-20 11:32:00,
2013-04-20 07:33:00,38.8,32.6,29.82,NNE,22,0.0,0.0,78,0.00,,---,0.04,VWS V14.01,2013-04-20 11:33:00,
2013-04-20 07:34:00,39.0,31.8,29.82,NE,45,0.0,0.0,75,0.00,,---,0.04,VWS V14.01,2013-04-20 11:34:00,
2013-04-20 07:35:00,39.0,32.1,29.82,NE,45,0.0,0.0,76,0.00,,---,0.04,VWS V14.01,2013-04-20 11:35:00,
2013-04-20 07:36:00,38.8,32.3,29.82,NE,45,0.0,0.0,77,0.00,,---,0.04,VWS V14.01,2013-04-20 11:36:00,
2013-04-20 07:37:00,38.8,32.3,29.82,NE,45,0.0,0.0,77,0.00,,---,0.04,VWS V14.01,2013-04-20 11:37:00,
2013-04-20 07:38:00,39.0,32.1,29.82,NE,45,0.0,0.0,76,0.00,,---,0.04,VWS V14.01,2013-04-20 11:38:00,
2013-04-20 07:39:00,39.2,32.3,29.82,NE,45,0.0,0.0,76,0.00,,---,0.04,VWS V14.01,2013-04-20 11:39:00,
2013-04-20 07:40:00,39.2,32.3,29.82,NE,45,0.0,0.0,76,0.00,,---,0.04,VWS V14.01,2013-04-20 11:40:00,
2013-04-20 07:41:00,39.2,32.0,29.82,NE,45,0.0,0.0,75,0.00,,---,0.04,VWS V14.01,2013-04-20 11:41:00,
2013-04-20 07:42:00,39.4,32.1,29.82,NE,45,0.0,0.0,75,0.00,,---,0.04,VWS V14.01,2013-04-20 11:42:00,
2013-04-20 07:43:00,39.0,32.1,29.82,NE,45,0.0,0.0,76,0.00,,---,0.04,VWS V14.01,2013-04-20 11:43:00,
2013-04-20 07:44:00,39.0,32.1,29.82,NE,45,0.0,0.0,76,0.00,,---,0.04,VWS V14.01,2013-04-20 11:44:00,
2013-04-20 07:45:00,39.2,32.3,29.82,NE,45,0.0,0.0,76,0.00,,---,0.04,VWS V14.01,2013-04-20 11:45:00,
2013-04-20 07:46:00,39.4,32.1,29.82,NE,45,0.0,0.0,75,0.00,,---,0.04,VWS V14.01,2013-04-20 11:46:00,
2013-04-20 07:47:00,39.4,32.1,29.82,NE,45,0.0,0.0,75,0.00,,---,0.04,VWS V14.01,2013-04-20 11:47:00,
2013-04-20 07:48:00,39.4,32.1,29.82,NE,45,0.0,0.0,75,0.00,,---,0.04,VWS V14.01,2013-04-20 11:48:00,
2013-04-20 07:49:00,39.4,32.1,29.82,NE,45,0.0,0.0,75,0.00,,---,0.04,VWS V14.01,2013-04-20 11:49:00,
2013-04-20 07:50:00,39.4,32.1,29.82,NE,45,0.0,0.0,75,0.00,,---,0.04,VWS V14.01,2013-04-20 11:50:00,
2013-04-20 07:51:00,39.6,32.0,29.82,NE,45,0.0,0.0,74,0.00,,---,0.04,VWS V14.01,2013-04-20 11:51:00,
2013-04-20 07:52:00,39.6,31.6,29.82,NE,45,0.0,0.0,73,0.00,,---,0.04,VWS V14.01,2013-04-20 11:52:00,
2013-04-20 07:53:00,39.6,31.6,29.82,NE,45,0.0,0.0,73,0.00,,---,0.04,VWS V14.01,2013-04-20 11:53:00,
2013-04-20 07:54:00,39.4,32.1,29.82,NE,45,0.0,0.0,75,0.00,,---,0.04,VWS V14.01,2013-04-20 11:54:00,
2013-04-20 07:55:00,39.6,32.3,29.82,NE,45,0.0,0.0,75,0.00,,---,0.04,VWS V14.01,2013-04-20 11:55:00,
2013-04-20 07:56:00,39.7,31.5,29.85,NE,45,0.0,0.0,72,0.00,,---,0.04,VWS V14.01,2013-04-20 11:56:00,
2013-04-20 07:57:00,39.6,32.0,29.82,NE,45,0.0,0.0,74,0.00,,---,0.04,VWS V14.01,2013-04-20 11:57:00,
2013-04-20 07:58:00,39.6,31.6,29.82,NE,45,0.0,0.0,73,0.00,,---,0.04,VWS V14.01,2013-04-20 11:58:00,
2013-04-20 07:59:00,39.9,31.3,29.85,NE,45,0.0,0.0,71,0.00,,---,0.04,VWS V14.01,2013-04-20 11:59:00,
2013-04-20 08:00:00,39.7,31.5,29.85,NE,45,0.0,0.0,72,0.00,,---,0.04,VWS V14.01,2013-04-20 12:00:00,
2013-04-20 08:01:00,40.1,31.1,29.85,NE,45,0.0,0.0,70,0.00,,---,0.04,VWS V14.01,2013-04-20 12:01:00,
2013-04-20 08:02:00,40.1,31.1,29.85,NE,45,0.0,0.0,70,0.00,,---,0.04,VWS V14.01,2013-04-20 12:02:00,
2013-04-20 08:03:00,40.3,31.3,29.85,NE,45,0.0,0.0,70,0.00,,---,0.04,VWS V14.01,2013-04-20 12:03:00,
2013-04-20 08:04:00,39.9,31.3,29.85,NE,45,0.0,0.0,71,0.00,,---,0.04,VWS V14.01,2013-04-20 12:04:00,
2013-04-20 08:05:00,39.9,31.3,29.85,NE,45,0.0,0.0,71,0.00,,---,0.04,VWS V14.01,2013-04-20 12:05:00,
2013-04-20 08:06:00,39.9,30.9,29.85,NE,45,0.0,0.0,70,0.00,,---,0.04,VWS V14.01,2013-04-20 12:06:00,
2013-04-20 08:07:00,40.1,31.1,29.85,NE,45,0.0,0.0,70,0.00,,---,0.04,VWS V14.01,2013-04-20 12:07:00,
2013-04-20 08:08:00,40.6,31.3,29.85,NE,45,0.0,0.0,69,0.00,,---,0.04,VWS V14.01,2013-04-20 12:08:00,
2013-04-20 08:09:00,40.6,31.3,29.82,NE,45,0.0,0.0,69,0.00,,---,0.04,VWS V14.01,2013-04-20 12:09:00,
2013-04-20 08:10:00,40.3,30.9,29.85,NE,45,0.0,0.0,69,0.00,,---,0.04,VWS V14.01,2013-04-20 12:10:00,
2013-04-20 08:11:00,40.6,30.9,29.82,NE,45,0.0,0.0,68,0.00,,---,0.04,VWS V14.01,2013-04-20 12:11:00,
2013-04-20 08:12:00,40.5,31.1,29.85,NE,45,0.0,0.0,69,0.00,,---,0.04,VWS V14.01,2013-04-20 12:12:00,
2013-04-20 08:13:00,40.8,31.5,29.82,NE,45,0.0,0.0,69,0.00,,---,0.04,VWS V14.01,2013-04-20 12:13:00,
2013-04-20 08:14:00,40.6,31.3,29.85,NE,45,0.0,0.0,69,0.00,,---,0.04,VWS V14.01,2013-04-20 12:14:00,
2013-04-20 08:15:00,41.0,31.6,29.82,NE,45,0.0,0.0,69,0.00,,---,0.04,VWS V14.01,2013-04-20 12:15:00,
2013-04-20 08:16:00,41.0,31.6,29.82,NE,45,0.0,0.0,69,0.00,,---,0.04,VWS V14.01,2013-04-20 12:16:00,
2013-04-20 08:17:00,41.2,31.4,29.82,NE,45,0.0,0.0,68,0.00,,---,0.04,VWS V14.01,2013-04-20 12:17:00,
2013-04-20 08:18:00,40.6,30.9,29.82,NE,45,0.0,0.0,68,0.00,,---,0.04,VWS V14.01,2013-04-20 12:18:00,
2013-04-20 08:19:00,40.8,31.5,29.82,NE,45,0.0,0.0,69,0.00,,---,0.04,VWS V14.01,2013-04-20 12:19:00,
2013-04-20 08:20:00,41.0,31.6,29.82,NE,45,0.0,0.0,69,0.00,,---,0.04,VWS V14.01,2013-04-20 12:20:00,
2013-04-20 08:21:00,41.0,31.6,29.82,NE,45,0.0,0.0,69,0.00,,---,0.04,VWS V14.01,2013-04-20 12:21:00,
2013-04-20 08:22:00,41.7,31.2,29.82,NE,45,0.0,0.0,66,0.00,,---,0.04,VWS V14.01,2013-04-20 12:22:00,
2013-04-20 08:23:00,41.7,31.2,29.82,NE,45,0.0,0.0,66,0.00,,---,0.04,VWS V14.01,2013-04-20 12:23:00,
2013-04-20 08:24:00,41.2,31.4,29.82,NE,45,0.0,0.0,68,0.00,,---,0.04,VWS V14.01,2013-04-20 12:24:00,
2013-04-20 08:25:00,41.4,31.6,29.82,NE,45,0.0,0.0,68,0.00,,---,0.04,VWS V14.01,2013-04-20 12:25:00,
2013-04-20 08:26:00,41.5,31.8,29.82,NE,45,0.0,0.0,68,0.00,,---,0.04,VWS V14.01,2013-04-20 12:26:00,
2013-04-20 08:27:00,41.5,31.0,29.82,NE,45,0.0,0.0,66,0.00,,---,0.04,VWS V14.01,2013-04-20 12:27:00,
2013-04-20 08:28:00,42.4,30.8,29.85,NE,45,0.0,0.0,63,0.00,,---,0.04,VWS V14.01,2013-04-20 12:28:00,
2013-04-20 08:29:00,41.7,31.2,29.82,NE,45,0.0,0.0,66,0.00,,---,0.04,VWS V14.01,2013-04-20 12:29:00,
2013-04-20 08:30:00,42.6,31.3,29.85,NE,45,0.0,0.0,64,0.00,,---,0.04,VWS V14.01,2013-04-20 12:30:00,
2013-04-20 08:31:00,42.1,31.2,29.85,NE,45,0.0,0.0,65,0.00,,---,0.04,VWS V14.01,2013-04-20 12:31:00,
2013-04-20 08:32:00,42.8,31.5,29.85,NE,45,0.0,0.0,64,0.00,,---,0.04,VWS V14.01,2013-04-20 12:32:00,
2013-04-20 08:33:00,42.8,31.5,29.85,NNE,22,0.0,0.0,64,0.00,,---,0.04,VWS V14.01,2013-04-20 12:33:00,
2013-04-20 08:34:00,42.4,30.8,29.85,NE,45,0.0,0.0,63,0.00,,---,0.04,VWS V14.01,2013-04-20 12:34:00,
2013-04-20 08:35:00,43.0,30.1,29.85,NNE,22,0.0,2.0,60,0.00,,---,0.04,VWS V14.01,2013-04-20 12:35:00,
2013-04-20 08:36:00,42.6,31.3,29.85,NE,45,0.0,0.0,64,0.00,,---,0.04,VWS V14.01,2013-04-20 12:36:00,
2013-04-20 08:37:00,43.3,30.8,29.85,NNE,22,0.0,0.0,61,0.00,,---,0.04,VWS V14.01,2013-04-20 12:37:00,
2013-04-20 08:38:00,42.8,31.5,29.85,NE,45,0.0,0.0,64,0.00,,---,0.04,VWS V14.01,2013-04-20 12:38:00,
2013-04-20 08:39:00,42.8,31.5,29.85,NNE,22,0.0,0.0,64,0.00,,---,0.04,VWS V14.01,2013-04-20 12:39:00,
2013-04-20 08:40:00,43.5,30.6,29.85,NNE,22,0.0,0.0,60,0.00,,---,0.04,VWS V14.01,2013-04-20 12:40:00,
2013-04-20 08:41:00,43.5,30.6,29.85,NNE,22,0.0,0.0,60,0.00,,---,0.04,VWS V14.01,2013-04-20 12:41:00,
2013-04-20 08:42:00,43.5,30.6,29.85,NNE,22,0.0,0.0,60,0.00,,---,0.04,VWS V14.01,2013-04-20 12:42:00,
2013-04-20 08:43:00,43.7,30.7,29.85,NNE,22,0.0,0.0,60,0.00,,---,0.04,VWS V14.01,2013-04-20 12:43:00,
2013-04-20 08:44:00,43.3,30.8,29.85,NNE,22,0.0,0.0,61,0.00,,---,0.04,VWS V14.01,2013-04-20 12:44:00,
2013-04-20 08:45:00,43.3,30.4,29.85,NNE,22,0.0,0.0,60,0.00,,---,0.04,VWS V14.01,2013-04-20 12:45:00,
2013-04-20 08:46:00,43.5,30.6,29.85,NNE,22,0.0,0.0,60,0.00,,---,0.04,VWS V14.01,2013-04-20 12:46:00,
2013-04-20 08:47:00,43.9,28.8,29.85,NE,45,0.0,1.1,55,0.00,,---,0.04,VWS V14.01,2013-04-20 12:47:00,
2013-04-20 08:48:00,43.9,28.8,29.85,NE,45,0.0,0.0,55,0.00,,---,0.04,VWS V14.01,2013-04-20 12:48:00,
2013-04-20 08:49:00,43.7,30.7,29.85,NNE,22,0.0,0.0,60,0.00,,---,0.04,VWS V14.01,2013-04-20 12:49:00,
2013-04-20 08:50:00,43.7,30.7,29.85,NNE,22,0.0,0.0,60,0.00,,---,0.04,VWS V14.01,2013-04-20 12:50:00,
2013-04-20 08:51:00,44.2,29.1,29.85,NNW,338,0.0,0.0,55,0.00,,---,0.04,VWS V14.01,2013-04-20 12:51:00,
2013-04-20 08:52:00,43.9,30.1,29.85,SW,225,0.0,1.1,58,0.00,,---,0.04,VWS V14.01,2013-04-20 12:52:00,
2013-04-20 08:53:00,43.9,28.8,29.85,NE,45,0.0,1.1,55,0.00,,---,0.04,VWS V14.01,2013-04-20 12:53:00,
2013-04-20 08:54:00,44.6,29.0,29.85,NW,315,0.0,1.3,54,0.00,,---,0.04,VWS V14.01,2013-04-20 12:54:00,
2013-04-20 08:55:00,44.6,28.5,29.85,NNE,22,0.0,1.6,53,0.00,,---,0.04,VWS V14.01,2013-04-20 12:55:00,
2013-04-20 08:56:00,44.2,30.0,29.85,NE,45,0.0,0.0,57,0.00,,---,0.04,VWS V14.01,2013-04-20 12:56:00,
2013-04-20 08:57:00,44.8,28.2,29.85,East,90,0.5,2.7,52,0.00,,---,0.04,VWS V14.01,2013-04-20 12:57:00,
2013-04-20 08:58:00,44.4,29.7,29.85,NNW,338,0.0,0.0,56,0.00,,---,0.04,VWS V14.01,2013-04-20 12:58:00,
2013-04-20 08:59:00,45.0,27.5,29.85,NNE,22,0.5,2.7,50,0.00,,---,0.04,VWS V14.01,2013-04-20 12:59:00,
2013-04-20 09:00:00,45.0,27.0,29.85,NE,45,0.0,2.5,49,0.00,,---,0.04,VWS V14.01,2013-04-20 13:00:00,
2013-04-20 09:01:00,44.6,28.5,29.85,NNE,22,0.0,1.6,53,0.00,,---,0.04,VWS V14.01,2013-04-20 13:01:00,
2013-04-20 09:02:00,45.1,28.1,29.85,East,90,0.0,0.0,51,0.00,,---,0.04,VWS V14.01,2013-04-20 13:02:00,
2013-04-20 09:03:00,45.1,28.1,29.85,East,90,0.0,0.0,51,0.00,,---,0.04,VWS V14.01,2013-04-20 13:03:00,
2013-04-20 09:04:00,45.0,28.4,29.85,NNW,338,0.2,2.5,52,0.00,,---,0.04,VWS V14.01,2013-04-20 13:04:00,
2013-04-20 09:05:00,45.0,27.5,29.85,NNE,22,0.5,2.7,50,0.00,,---,0.04,VWS V14.01,2013-04-20 13:05:00,
2013-04-20 09:06:00,45.5,30.3,29.85,East,90,0.0,0.0,55,0.00,,---,0.04,VWS V14.01,2013-04-20 13:06:00,
2013-04-20 09:08:00,45.1,28.1,29.85,East,90,0.0,0.0,51,0.00,,---,0.04,VWS V14.01,2013-04-20 13:08:00,
2013-04-20 09:09:00,45.1,28.1,29.85,East,90,0.0,0.0,51,0.00,,---,0.04,VWS V14.01,2013-04-20 13:09:00,
2013-04-20 09:10:00,45.7,30.0,29.88,NW,315,0.0,0.0,54,0.00,,---,0.04,VWS V14.01,2013-04-20 13:10:00,
2013-04-20 09:11:00,45.9,30.6,29.88,NW,315,0.0,0.0,55,0.00,,---,0.04,VWS V14.01,2013-04-20 13:11:00,
2013-04-20 09:12:00,46.0,27.5,29.88,NW,315,0.2,2.5,48,0.00,,---,0.04,VWS V14.01,2013-04-20 13:12:00,
2013-04-20 09:13:00,45.5,29.8,29.85,North,0,0.0,0.0,54,0.00,,---,0.04,VWS V14.01,2013-04-20 13:13:00,
2013-04-20 09:14:00,45.5,29.4,29.85,North,0,0.0,0.0,53,0.00,,---,0.04,VWS V14.01,2013-04-20 13:14:00,
2013-04-20 09:15:00,45.5,29.4,29.88,NW,315,0.0,0.0,53,0.00,,---,0.04,VWS V14.01,2013-04-20 13:15:00,
2013-04-20 09:16:00,46.2,28.1,29.88,ENE,68,0.0,3.1,49,0.00,,---,0.04,VWS V14.01,2013-04-20 13:16:00,
2013-04-20 09:17:00,46.4,28.3,29.88,NNE,22,0.7,2.9,49,0.00,,---,0.04,VWS V14.01,2013-04-20 13:17:00,
2013-04-20 09:18:00,46.0,27.5,29.88,NW,315,0.2,2.5,48,0.00,,---,0.04,VWS V14.01,2013-04-20 13:18:00,
2013-04-20 09:19:00,46.6,28.0,29.88,North,0,0.2,2.2,48,0.00,,---,0.04,VWS V14.01,2013-04-20 13:19:00,
2013-04-20 09:20:00,46.6,27.5,29.88,NE,45,0.5,2.5,47,0.00,,---,0.04,VWS V14.01,2013-04-20 13:20:00,
2013-04-20 09:21:00,46.2,28.1,29.88,NNW,338,0.7,2.7,49,0.00,,---,0.04,VWS V14.01,2013-04-20 13:21:00,
2013-04-20 09:22:00,46.8,28.1,29.88,North,0,0.2,2.2,48,0.00,,---,0.04,VWS V14.01,2013-04-20 13:22:00,
2013-04-20 09:23:00,46.4,28.3,29.88,NNE,22,0.7,2.9,49,0.00,,---,0.04,VWS V14.01,2013-04-20 13:23:00,
2013-04-20 09:24:00,46.4,28.3,29.88,NNE,22,0.7,0.0,49,0.00,,---,0.04,VWS V14.01,2013-04-20 13:24:00,
2013-04-20 09:25:00,47.3,28.6,29.88,NE,45,0.5,1.6,48,0.00,,---,0.04,VWS V14.01,2013-04-20 13:25:00,
2013-04-20 09:26:00,47.3,28.6,29.88,SSW,202,1.1,3.1,48,0.00,,---,0.04,VWS V14.01,2013-04-20 13:26:00,
2013-04-20 09:27:00,47.5,28.8,29.88,East,90,0.9,3.1,48,0.00,,---,0.04,VWS V14.01,2013-04-20 13:27:00,
2013-04-20 09:28:00,46.8,28.1,29.88,North,0,0.2,2.2,48,0.00,,---,0.04,VWS V14.01,2013-04-20 13:28:00,
2013-04-20 09:29:00,47.7,28.4,29.88,East,90,0.5,2.5,47,0.00,,---,0.04,VWS V14.01,2013-04-20 13:29:00,
2013-04-20 09:30:00,47.1,28.5,29.88,NNE,22,0.5,2.5,48,0.00,,---,0.04,VWS V14.01,2013-04-20 13:30:00,
2013-04-20 09:31:00,47.3,28.6,29.88,NE,45,0.5,1.6,48,0.00,,---,0.04,VWS V14.01,2013-04-20 13:31:00,
2013-04-20 09:32:00,48.0,28.8,29.88,NW,315,0.2,2.2,47,0.00,,---,0.04,VWS V14.01,2013-04-20 13:32:00,
2013-04-20 09:33:00,47.5,28.8,29.88,East,90,0.9,3.1,48,0.00,,---,0.04,VWS V14.01,2013-04-20 13:33:00,
2013-04-20 09:34:00,48.2,27.3,29.88,NW,315,0.2,3.6,44,0.00,,---,0.04,VWS V14.01,2013-04-20 13:34:00,
2013-04-20 09:35:00,48.2,27.9,29.88,SSW,202,1.6,3.6,45,0.00,,---,0.04,VWS V14.01,2013-04-20 13:35:00,
2013-04-20 09:36:00,47.8,28.6,29.88,WSW,248,0.5,1.6,47,0.00,,---,0.04,VWS V14.01,2013-04-20 13:36:00,
2013-04-20 09:37:00,48.0,28.8,29.88,NW,315,0.2,2.9,47,0.00,,---,0.04,VWS V14.01,2013-04-20 13:37:00,
2013-04-20 09:38:00,48.4,26.9,29.88,WNW,292,0.5,5.6,43,0.00,,---,0.04,VWS V14.01,2013-04-20 13:38:00,
2013-04-20 09:39:00,48.2,28.4,29.88,WNW,292,0.2,2.2,46,0.00,,---,0.04,VWS V14.01,2013-04-20 13:39:00,
2013-04-20 09:40:00,48.2,27.3,29.88,NW,315,0.2,3.6,44,0.00,,---,0.04,VWS V14.01,2013-04-20 13:40:00,
2013-04-20 09:41:00,48.6,26.5,29.88,WSW,248,0.7,2.7,42,0.00,,---,0.04,VWS V14.01,2013-04-20 13:41:00,
2013-04-20 09:42:00,48.6,26.5,29.88,SSW,202,0.5,3.4,42,0.00,,---,0.04,VWS V14.01,2013-04-20 13:42:00,
2013-04-20 09:44:00,48.4,26.9,29.88,WNW,292,0.5,5.6,43,0.00,,---,0.04,VWS V14.01,2013-04-20 13:44:00,
2013-04-20 09:45:00,48.7,25.5,29.88,WSW,248,1.6,3.6,40,0.00,,---,0.04,VWS V14.01,2013-04-20 13:45:00,
2013-04-20 09:46:00,48.7,25.5,29.88,SSE,158,0.2,5.4,40,0.00,,---,0.04,VWS V14.01,2013-04-20 13:46:00,
2013-04-20 09:47:00,48.7,25.5,29.88,WSW,248,0.5,2.5,40,0.00,,---,0.04,VWS V14.01,2013-04-20 13:47:00,
2013-04-20 09:48:00,48.6,26.5,29.88,SSW,202,0.5,3.4,42,0.00,,---,0.04,VWS V14.01,2013-04-20 13:48:00,
2013-04-20 09:49:00,48.7,25.5,29.88,SW,225,0.7,4.3,40,0.00,,---,0.04,VWS V14.01,2013-04-20 13:49:00,
2013-04-20 09:50:00,48.7,26.7,29.88,SSW,202,0.9,2.9,42,0.00,,---,0.04,VWS V14.01,2013-04-20 13:50:00,
2013-04-20 09:51:00,48.7,25.5,29.88,WSW,248,1.6,3.6,40,0.00,,---,0.04,VWS V14.01,2013-04-20 13:51:00,
2013-04-20 09:52:00,48.7,25.5,29.88,SSE,158,0.2,5.4,40,0.00,,---,0.04,VWS V14.01,2013-04-20 13:52:00,
2013-04-20 09:53:00,48.9,25.1,29.88,SW,225,3.6,5.6,39,0.00,,---,0.04,VWS V14.01,2013-04-20 13:53:00,
2013-04-20 09:54:00,48.9,25.1,29.88,West,270,1.6,5.6,39,0.00,,---,0.04,VWS V14.01,2013-04-20 13:54:00,
2013-04-20 09:55:00,48.7,25.5,29.88,SW,225,0.7,4.3,40,0.00,,---,0.04,VWS V14.01,2013-04-20 13:55:00,
2013-04-20 09:56:00,49.1,25.2,29.88,WSW,248,0.2,3.4,39,0.00,,---,0.04,VWS V14.01,2013-04-20 13:56:00,
2013-04-20 09:57:00,48.9,25.7,29.88,WNW,292,1.6,4.3,40,0.00,,---,0.04,VWS V14.01,2013-04-20 13:57:00,
2013-04-20 09:58:00,49.3,26.0,29.88,SSE,158,0.5,2.5,40,0.00,,---,0.04,VWS V14.01,2013-04-20 13:58:00,
2013-04-20 09:59:00,49.5,26.2,29.88,NW,315,1.6,3.6,40,0.00,,---,0.04,VWS V14.01,2013-04-20 13:59:00,
2013-04-20 10:00:00,48.9,25.1,29.88,West,270,1.6,5.6,39,0.00,,---,0.04,VWS V14.01,2013-04-20 14:00:00,
2013-04-20 10:01:00,49.1,25.2,29.88,SW,225,1.4,4.0,39,0.00,,---,0.04,VWS V14.01,2013-04-20 14:01:00,
2013-04-20 10:02:00,49.1,25.2,29.88,WSW,248,0.2,3.4,39,0.00,,---,0.04,VWS V14.01,2013-04-20 14:02:00,
2013-04-20 10:03:00,49.6,26.9,29.88,NE,45,1.4,3.4,41,0.00,,---,0.04,VWS V14.01,2013-04-20 14:03:00,
2013-04-20 10:04:00,49.6,26.9,29.88,WSW,248,3.6,5.6,41,0.00,,---,0.04,VWS V14.01,2013-04-20 14:04:00,
2013-04-20 10:05:00,50.0,26.6,29.88,SE,135,0.9,5.6,40,0.00,,---,0.04,VWS V14.01,2013-04-20 14:05:00,
2013-04-20 10:06:00,49.5,26.2,29.88,SSW,202,3.8,5.8,40,0.00,,---,0.04,VWS V14.01,2013-04-20 14:06:00,
2013-04-20 10:07:00,50.0,26.0,29.88,South,180,1.6,4.3,39,0.00,,---,0.04,VWS V14.01,2013-04-20 14:07:00,
2013-04-20 10:08:00,49.6,26.9,29.88,NE,45,1.4,4.7,41,0.00,,---,0.04,VWS V14.01,2013-04-20 14:08:00,
2013-04-20 10:09:00,50.2,26.8,29.85,NNE,22,1.8,3.8,40,0.00,,---,0.04,VWS V14.01,2013-04-20 14:09:00,
2013-04-20 10:10:00,49.6,26.9,29.88,WSW,248,3.6,5.6,41,0.00,,---,0.04,VWS V14.01,2013-04-20 14:10:00,
2013-04-20 10:11:00,50.2,26.8,29.85,NW,315,0.7,1.1,40,0.00,,---,0.04,VWS V14.01,2013-04-20 14:11:00,
2013-04-20 10:12:00,50.0,26.6,29.88,WSW,248,0.0,2.2,40,0.00,,---,0.04,VWS V14.01,2013-04-20 14:12:00,
2013-04-20 10:13:00,50.0,26.0,29.88,South,180,1.6,4.3,39,0.00,,---,0.04,VWS V14.01,2013-04-20 14:13:00,
2013-04-20 10:14:00,50.7,26.7,29.85,WSW,248,0.2,3.1,39,0.00,,---,0.04,VWS V14.01,2013-04-20 14:14:00,
2013-04-20 10:15:00,50.2,26.8,29.85,NNE,22,1.8,3.8,40,0.00,,---,0.04,VWS V14.01,2013-04-20 14:15:00,
2013-04-20 10:16:00,50.7,26.0,29.85,WSW,248,2.0,4.3,38,0.00,,---,0.04,VWS V14.01,2013-04-20 14:16:00,
2013-04-20 10:17:00,50.7,26.7,29.85,SSE,158,0.7,4.0,39,0.00,,---,0.04,VWS V14.01,2013-04-20 14:17:00,
2013-04-20 10:18:00,50.4,26.4,29.85,SW,225,0.2,2.9,39,0.00,,---,0.04,VWS V14.01,2013-04-20 14:18:00,
2013-04-20 10:19:00,50.7,26.0,29.85,SSE,158,0.7,3.8,38,0.00,,---,0.04,VWS V14.01,2013-04-20 14:19:00,
2013-04-20 10:20:00,50.7,26.7,29.85,WSW,248,0.2,3.1,39,0.00,,---,0.04,VWS V14.01,2013-04-20 14:20:00,
2013-04-20 10:21:00,50.9,27.5,29.85,SW,225,0.0,2.0,40,0.00,,---,0.04,VWS V14.01,2013-04-20 14:21:00,
2013-04-20 10:22:00,50.9,26.8,29.85,WNW,292,0.0,3.1,39,0.00,,---,0.04,VWS V14.01,2013-04-20 14:22:00,
2013-04-20 10:23:00,50.7,26.7,29.85,SSE,158,0.7,4.0,39,0.00,,---,0.04,VWS V14.01,2013-04-20 14:23:00,
2013-04-20 10:24:00,50.7,26.7,29.85,WSW,248,1.1,3.6,39,0.00,,---,0.04,VWS V14.01,2013-04-20 14:24:00,
2013-04-20 10:25:00,51.1,27.0,29.88,WNW,292,0.0,3.4,39,0.00,,---,0.04,VWS V14.01,2013-04-20 14:25:00,
2013-04-20 10:26:00,51.1,27.0,29.88,ESE,112,0.0,3.4,39,0.00,,---,0.04,VWS V14.01,2013-04-20 14:26:00,
2013-04-20 10:27:00,51.1,27.0,29.88,NE,45,1.4,3.4,39,0.00,,---,0.04,VWS V14.01,2013-04-20 14:27:00,
2013-04-20 10:28:00,51.1,27.0,29.88,NE,45,0.0,3.6,39,0.00,,---,0.04,VWS V14.01,2013-04-20 14:28:00,
2013-04-20 10:29:00,50.9,26.8,29.85,NNW,338,0.5,2.7,39,0.00,,---,0.04,VWS V14.01,2013-04-20 14:29:00,
2013-04-20 10:30:00,50.9,27.5,29.88,WNW,292,0.9,2.9,40,0.00,,---,0.04,VWS V14.01,2013-04-20 14:30:00,
2013-04-20 10:31:00,51.1,27.0,29.88,WNW,292,0.0,3.4,39,0.00,,---,0.04,VWS V14.01,2013-04-20 14:31:00,
2013-04-20 10:32:00,51.1,27.0,29.88,WSW,248,1.4,4.3,39,0.00,,---,0.04,VWS V14.01,2013-04-20 14:32:00,
2013-04-20 10:33:00,51.1,27.0,29.88,NE,45,1.4,3.4,39,0.00,,---,0.04,VWS V14.01,2013-04-20 14:33:00,
2013-04-20 10:34:00,51.1,27.0,29.88,SSE,158,0.9,4.3,39,0.00,,---,0.04,VWS V14.01,2013-04-20 14:34:00,
2013-04-20 10:35:00,51.1,27.0,29.88,West,270,0.0,2.0,39,0.00,,---,0.04,VWS V14.01,2013-04-20 14:35:00,
2013-04-20 10:36:00,51.1,27.0,29.88,WSW,248,2.9,4.9,39,0.00,,---,0.04,VWS V14.01,2013-04-20 14:36:00,
2013-04-20 10:37:00,51.1,26.4,29.88,West,270,0.2,2.5,38,0.00,,---,0.04,VWS V14.01,2013-04-20 14:37:00,
2013-04-20 10:38:00,51.1,27.0,29.88,WSW,248,1.4,4.3,39,0.00,,---,0.04,VWS V14.01,2013-04-20 14:38:00,
2013-04-20 10:39:00,51.3,27.2,29.88,WNW,292,0.7,2.7,39,0.00,,---,0.04,VWS V14.01,2013-04-20 14:39:00,
2013-04-20 10:40:00,51.4,27.9,29.88,West,270,0.5,2.9,40,0.00,,---,0.04,VWS V14.01,2013-04-20 14:40:00,
2013-04-20 10:41:00,51.4,27.3,29.88,West,270,0.5,2.5,39,0.00,,---,0.04,VWS V14.01,2013-04-20 14:41:00,
2013-04-20 10:42:00,51.4,27.9,29.88,NW,315,0.7,2.7,40,0.00,,---,0.04,VWS V14.01,2013-04-20 14:42:00,
2013-04-20 10:43:00,51.1,26.4,29.88,West,270,0.2,2.5,38,0.00,,---,0.04,VWS V14.01,2013-04-20 14:43:00,
2013-04-20 10:44:00,51.6,26.9,29.88,WSW,248,0.9,3.8,38,0.00,,---,0.04,VWS V14.01,2013-04-20 14:44:00,
2013-04-20 10:45:00,51.3,27.2,29.88,WNW,292,0.7,2.7,39,0.00,,---,0.04,VWS V14.01,2013-04-20 14:45:00,
2013-04-20 10:46:00,51.4,27.9,29.88,West,270,0.5,2.9,40,0.00,,---,0.04,VWS V14.01,2013-04-20 14:46:00,
2013-04-20 10:47:00,51.6,26.9,29.88,NNW,338,1.1,5.6,38,0.00,,---,0.04,VWS V14.01,2013-04-20 14:47:00,
2013-04-20 10:48:00,51.6,26.2,29.88,NNW,338,2.3,5.6,37,0.00,,---,0.04,VWS V14.01,2013-04-20 14:48:00,
2013-04-20 10:49:00,51.6,26.9,29.88,SW,225,1.8,3.8,38,0.00,,---,0.04,VWS V14.01,2013-04-20 14:49:00,
2013-04-20 10:50:00,52.0,26.5,29.88,SW,225,1.4,3.4,37,0.00,,---,0.04,VWS V14.01,2013-04-20 14:50:00,
2013-04-20 10:51:00,51.6,26.9,29.88,WSW,248,0.2,3.1,38,0.00,,---,0.04,VWS V14.01,2013-04-20 14:51:00,
2013-04-20 10:52:00,52.2,27.3,29.88,West,270,1.1,3.6,38,0.00,,---,0.04,VWS V14.01,2013-04-20 14:52:00,
2013-04-20 10:53:00,51.6,26.9,29.88,NNW,338,1.1,5.6,38,0.00,,---,0.04,VWS V14.01,2013-04-20 14:53:00,
2013-04-20 10:54:00,52.2,27.3,29.88,WNW,292,0.0,3.1,38,0.00,,---,0.04,VWS V14.01,2013-04-20 14:54:00,
2013-04-20 10:55:00,51.6,26.9,29.88,NNW,338,0.5,4.3,38,0.00,,---,0.04,VWS V14.01,2013-04-20 14:55:00,
2013-04-20 10:56:00,52.0,26.5,29.88,SW,225,1.4,3.4,37,0.00,,---,0.04,VWS V14.01,2013-04-20 14:56:00,
2013-04-20 10:57:00,52.3,26.9,29.88,WSW,248,1.1,3.4,37,0.00,,---,0.04,VWS V14.01,2013-04-20 14:57:00,
2013-04-20 10:58:00,52.2,26.7,29.88,ESE,112,0.7,4.0,37,0.00,,---,0.04,VWS V14.01,2013-04-20 14:58:00,
2013-04-20 10:59:00,52.2,27.3,29.88,NW,315,1.1,3.8,38,0.00,,---,0.04,VWS V14.01,2013-04-20 14:59:00,
2013-04-20 11:00:00,52.2,27.3,29.88,WNW,292,0.0,3.1,38,0.00,,---,0.04,VWS V14.01,2013-04-20 15:00:00,
2013-04-20 11:01:00,52.3,26.9,29.88,South,180,0.2,3.4,37,0.00,,---,0.04,VWS V14.01,2013-04-20 15:01:00,
2013-04-20 11:02:00,52.3,26.9,29.88,SW,225,1.4,4.3,37,0.00,,---,0.04,VWS V14.01,2013-04-20 15:02:00,
2013-04-20 11:03:00,52.5,27.0,29.88,ENE,68,0.0,2.7,37,0.00,,---,0.04,VWS V14.01,2013-04-20 15:03:00,
2013-04-20 11:04:00,52.2,26.7,29.88,ESE,112,0.7,4.0,37,0.00,,---,0.04,VWS V14.01,2013-04-20 15:04:00,
2013-04-20 11:05:00,52.5,27.7,29.88,NE,45,0.0,2.2,38,0.00,,---,0.04,VWS V14.01,2013-04-20 15:05:00,
2013-04-20 11:06:00,52.7,27.8,29.88,NW,315,0.0,2.2,38,0.00,,---,0.04,VWS V14.01,2013-04-20 15:06:00,
2013-04-20 11:07:00,52.9,27.3,29.88,SSE,158,4.0,6.0,37,0.00,,---,0.04,VWS V14.01,2013-04-20 15:07:00,
2013-04-20 11:08:00,52.9,28.6,29.88,WSW,248,2.5,6.0,39,0.00,,---,0.04,VWS V14.01,2013-04-20 15:08:00,
2013-04-20 11:09:00,52.5,27.0,29.88,ENE,68,0.0,2.7,37,0.00,,---,0.04,VWS V14.01,2013-04-20 15:09:00,
2013-04-20 11:11:00,52.7,27.2,29.88,WSW,248,1.6,3.6,37,0.00,,---,0.04,VWS V14.01,2013-04-20 15:11:00,
2013-04-20 11:12:00,52.7,27.8,29.88,NW,315,0.0,2.2,38,0.00,,---,0.04,VWS V14.01,2013-04-20 15:12:00,
2013-04-20 11:13:00,52.9,28.0,29.88,SW,225,0.0,2.7,38,0.00,,---,0.04,VWS V14.01,2013-04-20 15:13:00,
2013-04-20 11:14:00,52.9,28.6,29.88,WSW,248,2.5,6.0,39,0.00,,---,0.04,VWS V14.01,2013-04-20 15:14:00,
2013-04-20 11:15:00,52.7,27.2,29.88,WSW,248,2.0,4.9,37,0.00,,---,0.04,VWS V14.01,2013-04-20 15:15:00,
2013-04-20 11:16:00,52.7,27.8,29.88,NW,315,1.1,4.9,38,0.00,,---,0.04,VWS V14.01,2013-04-20 15:16:00,
2013-04-20 11:17:00,52.7,27.2,29.88,WSW,248,1.6,3.6,37,0.00,,---,0.04,VWS V14.01,2013-04-20 15:17:00,
2013-04-20 11:18:00,53.2,28.3,29.88,NNW,338,0.0,2.5,38,0.00,,---,0.04,VWS V14.01,2013-04-20 15:18:00,
2013-04-20 11:19:00,52.9,28.0,29.88,SW,225,0.0,2.7,38,0.00,,---,0.04,VWS V14.01,2013-04-20 15:19:00,
2013-04-20 11:20:00,53.6,28.0,29.88,NW,315,0.2,3.6,37,0.00,,---,0.04,VWS V14.01,2013-04-20 15:20:00,
2013-04-20 11:21:00,53.1,27.5,29.88,WNW,292,0.7,3.1,37,0.00,,---,0.04,VWS V14.01,2013-04-20 15:21:00,
2013-04-20 11:22:00,53.1,27.5,29.88,WNW,292,1.1,3.4,37,0.00,,---,0.04,VWS V14.01,2013-04-20 15:22:00,
2013-04-20 11:23:00,53.1,27.5,29.88,NNW,338,0.0,3.1,37,0.00,,---,0.04,VWS V14.01,2013-04-20 15:23:00,
2013-04-20 11:24:00,54.0,27.6,29.85,WSW,248,0.9,3.6,36,0.00,,---,0.04,VWS V14.01,2013-04-20 15:24:00,
2013-04-20 11:25:00,53.4,28.5,29.88,NNW,338,1.6,3.8,38,0.00,,---,0.04,VWS V14.01,2013-04-20 15:25:00,
2013-04-20 11:26:00,53.6,28.0,29.88,NW,315,0.2,3.6,37,0.00,,---,0.04,VWS V14.01,2013-04-20 15:26:00,
2013-04-20 11:27:00,54.0,28.3,29.85,WSW,248,0.7,2.7,37,0.00,,---,0.04,VWS V14.01,2013-04-20 15:27:00,
2013-04-20 11:28:00,53.8,28.1,29.88,North,0,0.7,3.6,37,0.00,,---,0.04,VWS V14.01,2013-04-20 15:28:00,
2013-04-20 11:29:00,54.0,27.6,29.85,SSW,202,0.7,2.9,36,0.00,,---,0.04,VWS V14.01,2013-04-20 15:29:00,
2013-04-20 11:30:00,54.0,27.6,29.85,South,180,1.8,4.3,36,0.00,,---,0.04,VWS V14.01,2013-04-20 15:30:00,
2013-04-20 11:31:00,54.0,27.6,29.85,WNW,292,0.7,3.8,36,0.00,,---,0.04,VWS V14.01,2013-04-20 15:31:00,
2013-04-20 11:32:00,54.0,28.3,29.85,SSW,202,0.5,4.0,37,0.00,,---,0.04,VWS V14.01,2013-04-20 15:32:00,
2013-04-20 11:33:00,54.0,27.6,29.85,WSW,248,1.1,3.1,36,0.00,,---,0.04,VWS V14.01,2013-04-20 15:33:00,
2013-04-20 11:34:00,54.0,27.6,29.85,SSW,202,0.7,2.9,36,0.00,,---,0.04,VWS V14.01,2013-04-20 15:34:00,
2013-04-20 11:35:00,54.0,27.6,29.85,WNW,292,0.9,3.8,36,0.00,,---,0.04,VWS V14.01,2013-04-20 15:35:00,
2013-04-20 11:36:00,54.0,27.6,29.85,South,180,1.8,4.3,36,0.00,,---,0.04,VWS V14.01,2013-04-20 15:36:00,
2013-04-20 11:37:00,54.0,27.6,29.85,NW,315,0.5,2.5,36,0.00,,---,0.04,VWS V14.01,2013-04-20 15:37:00,
2013-04-20 11:38:00,54.1,27.8,29.85,WNW,292,1.1,3.1,36,0.00,,---,0.04,VWS V14.01,2013-04-20 15:38:00,
2013-04-20 11:39:00,54.3,28.0,29.88,SSE,158,0.5,4.0,36,0.00,,---,0.04,VWS V14.01,2013-04-20 15:39:00,
2013-04-20 11:40:00,54.0,27.6,29.85,SW,225,1.1,3.6,36,0.00,,---,0.04,VWS V14.01,2013-04-20 15:40:00,
2013-04-20 11:41:00,54.3,28.0,29.88,NNW,338,1.4,3.4,36,0.00,,---,0.04,VWS V14.01,2013-04-20 15:41:00,
2013-04-20 11:42:00,54.0,27.6,29.85,ENE,68,0.0,2.9,36,0.00,,---,0.04,VWS V14.01,2013-04-20 15:42:00,
2013-04-20 11:43:00,54.9,29.1,29.88,NW,315,1.4,3.6,37,0.00,,---,0.04,VWS V14.01,2013-04-20 15:43:00,
2013-04-20 11:44:00,55.0,28.6,29.88,NW,315,1.1,3.4,36,0.00,,---,0.04,VWS V14.01,2013-04-20 15:44:00,
2013-04-20 11:45:00,54.3,28.0,29.88,SSE,158,0.5,4.0,36,0.00,,---,0.04,VWS V14.01,2013-04-20 15:45:00,
2013-04-20 11:46:00,55.2,28.8,29.88,WSW,248,0.9,3.1,36,0.00,,---,0.04,VWS V14.01,2013-04-20 15:46:00,
2013-04-20 11:47:00,55.2,28.8,29.88,NNW,338,0.0,2.9,36,0.00,,---,0.04,VWS V14.01,2013-04-20 15:47:00,
2013-04-20 11:48:00,54.5,28.1,29.88,NW,315,1.6,3.6,36,0.00,,---,0.04,VWS V14.01,2013-04-20 15:48:00,
2013-04-20 11:49:00,55.2,28.8,29.88,NW,315,0.9,2.9,36,0.00,,---,0.04,VWS V14.01,2013-04-20 15:49:00,
2013-04-20 11:50:00,55.0,28.6,29.88,NW,315,1.1,3.4,36,0.00,,---,0.04,VWS V14.01,2013-04-20 15:50:00,
2013-04-20 11:51:00,55.0,28.6,29.88,NW,315,0.5,3.1,36,0.00,,---,0.04,VWS V14.01,2013-04-20 15:51:00,
2013-04-20 11:52:00,55.4,28.2,29.88,WNW,292,0.9,2.9,35,0.00,,---,0.04,VWS V14.01,2013-04-20 15:52:00,
2013-04-20 11:53:00,55.4,28.9,29.88,NNW,338,0.5,3.8,36,0.00,,---,0.04,VWS V14.01,2013-04-20 15:53:00,
2013-04-20 11:54:00,55.6,29.1,29.88,East,90,0.0,3.6,36,0.00,,---,0.04,VWS V14.01,2013-04-20 15:54:00,
2013-04-20 11:55:00,55.6,29.1,29.88,NW,315,1.1,3.1,36,0.00,,---,0.04,VWS V14.01,2013-04-20 15:55:00,
2013-04-20 11:56:00,55.2,28.8,29.88,WNW,292,0.7,2.9,36,0.00,,---,0.04,VWS V14.01,2013-04-20 15:56:00,
2013-04-20 11:57:00,55.9,29.4,29.88,WNW,292,0.7,3.8,36,0.00,,---,0.04,VWS V14.01,2013-04-20 15:57:00,
2013-04-20 11:58:00,55.4,28.2,29.88,WNW,292,0.9,2.9,35,0.00,,---,0.04,VWS V14.01,2013-04-20 15:58:00,
2013-04-20 11:59:00,55.4,28.9,29.88,NNW,338,0.5,3.8,36,0.00,,---,0.04,VWS V14.01,2013-04-20 15:59:00,
2013-04-20 12:00:00,55.6,29.1,29.88,East,90,0.0,3.6,36,0.00,,---,0.04,VWS V14.01,2013-04-20 16:00:00,
2013-04-20 12:01:00,55.9,28.7,29.88,WSW,248,0.7,3.1,35,0.00,,---,0.04,VWS V14.01,2013-04-20 16:01:00,
2013-04-20 12:02:00,55.9,28.7,29.88,NW,315,0.9,3.6,35,0.00,,---,0.04,VWS V14.01,2013-04-20 16:02:00,
2013-04-20 12:03:00,55.9,29.4,29.88,WNW,292,0.7,3.8,36,0.00,,---,0.04,VWS V14.01,2013-04-20 16:03:00,
2013-04-20 12:04:00,55.9,28.7,29.88,NW,315,0.5,2.9,35,0.00,,---,0.04,VWS V14.01,2013-04-20 16:04:00,
2013-04-20 12:05:00,55.9,29.4,29.88,WSW,248,0.7,3.6,36,0.00,,---,0.04,VWS V14.01,2013-04-20 16:05:00,
2013-04-20 12:06:00,55.9,28.7,29.88,WNW,292,0.5,2.5,35,0.00,,---,0.04,VWS V14.01,2013-04-20 16:06:00,
2013-04-20 12:07:00,55.9,28.7,29.88,WNW,292,1.8,4.0,35,0.00,,---,0.04,VWS V14.01,2013-04-20 16:07:00,
2013-04-20 12:08:00,55.9,28.7,29.88,NW,315,0.9,3.6,35,0.00,,---,0.04,VWS V14.01,2013-04-20 16:08:00,
2013-04-20 12:09:00,55.9,29.4,29.88,WNW,292,0.2,2.9,36,0.00,,---,0.04,VWS V14.01,2013-04-20 16:09:00,
2013-04-20 12:10:00,55.9,28.7,29.88,NW,315,0.5,2.9,35,0.00,,---,0.04,VWS V14.01,2013-04-20 16:10:00,
2013-04-20 12:11:00,55.9,28.7,29.88,South,180,0.9,3.1,35,0.00,,---,0.04,VWS V14.01,2013-04-20 16:11:00,
2013-04-20 12:12:00,55.9,28.7,29.88,WNW,292,0.5,2.5,35,0.00,,---,0.04,VWS V14.01,2013-04-20 16:12:00,
2013-04-20 12:13:00,56.1,28.9,29.88,ENE,68,0.9,2.9,35,0.00,,---,0.04,VWS V14.01,2013-04-20 16:13:00,
2013-04-20 12:14:00,56.1,28.9,29.88,WSW,248,0.0,2.9,35,0.00,,---,0.04,VWS V14.01,2013-04-20 16:14:00,
2013-04-20 12:15:00,56.1,28.9,29.88,WSW,248,1.8,4.3,35,0.00,,---,0.04,VWS V14.01,2013-04-20 16:15:00,
2013-04-20 12:16:00,55.9,28.7,29.88,SW,225,0.0,4.0,35,0.00,,---,0.04,VWS V14.01,2013-04-20 16:16:00,
2013-04-20 12:17:00,55.9,28.7,29.88,South,180,0.9,3.1,35,0.00,,---,0.04,VWS V14.01,2013-04-20 16:17:00,
2013-04-20 12:18:00,56.1,28.9,29.88,SW,225,1.4,3.4,35,0.00,,---,0.04,VWS V14.01,2013-04-20 16:18:00,
2013-04-20 12:19:00,56.1,28.9,29.88,WSW,248,0.5,3.6,35,0.00,,---,0.04,VWS V14.01,2013-04-20 16:19:00,
2013-04-20 12:20:00,56.1,28.9,29.88,WSW,248,0.5,2.5,35,0.00,,---,0.04,VWS V14.01,2013-04-20 16:20:00,
2013-04-20 12:21:00,56.1,28.9,29.88,South,180,0.7,2.7,35,0.00,,---,0.04,VWS V14.01,2013-04-20 16:21:00,
2013-04-20 12:22:00,56.1,28.9,29.88,SW,225,1.4,3.8,35,0.00,,---,0.04,VWS V14.01,2013-04-20 16:22:00,
2013-04-20 12:23:00,56.5,29.2,29.88,SSW,202,0.0,2.7,35,0.00,,---,0.04,VWS V14.01,2013-04-20 16:23:00,
2013-04-20 12:24:00,56.1,28.9,29.88,SW,225,1.4,3.4,35,0.00,,---,0.04,VWS V14.01,2013-04-20 16:24:00,
2013-04-20 12:25:00,56.7,29.3,29.88,WSW,248,1.8,3.8,35,0.00,,---,0.04,VWS V14.01,2013-04-20 16:25:00,
2013-04-20 12:26:00,56.1,28.9,29.88,WSW,248,0.5,2.5,35,0.00,,---,0.04,VWS V14.01,2013-04-20 16:26:00,
2013-04-20 12:27:00,56.1,28.9,29.88,South,180,0.7,2.7,35,0.00,,---,0.04,VWS V14.01,2013-04-20 16:27:00,
2013-04-20 12:28:00,56.3,29.0,29.88,WNW,292,0.2,2.7,35,0.00,,---,0.04,VWS V14.01,2013-04-20 16:28:00,
2013-04-20 12:29:00,56.5,29.2,29.88,SSW,202,0.0,2.7,35,0.00,,---,0.04,VWS V14.01,2013-04-20 16:29:00,
2013-04-20 12:30:00,56.7,29.3,29.88,SW,225,0.5,2.7,35,0.00,,---,0.04,VWS V14.01,2013-04-20 16:30:00,
2013-04-20 12:31:00,56.7,29.3,29.88,WSW,248,1.8,3.8,35,0.00,,---,0.04,VWS V14.01,2013-04-20 16:31:00,
2013-04-20 12:32:00,56.8,29.5,29.88,SE,135,0.7,2.7,35,0.00,,---,0.04,VWS V14.01,2013-04-20 16:32:00,
2013-04-20 12:33:00,56.7,29.3,29.88,WSW,248,0.0,4.3,35,0.00,,---,0.04,VWS V14.01,2013-04-20 16:33:00,
2013-04-20 12:34:00,56.7,29.3,29.88,WSW,248,0.0,2.0,35,0.00,,---,0.04,VWS V14.01,2013-04-20 16:34:00,
2013-04-20 12:35:00,57.0,29.7,29.88,WSW,248,0.7,2.7,35,0.00,,---,0.04,VWS V14.01,2013-04-20 16:35:00,
2013-04-20 12:36:00,56.7,29.3,29.88,SW,225,0.5,2.7,35,0.00,,---,0.04,VWS V14.01,2013-04-20 16:36:00,
2013-04-20 12:37:00,56.7,29.3,29.88,North,0,0.5,3.1,35,0.00,,---,0.04,VWS V14.01,2013-04-20 16:37:00,
2013-04-20 12:38:00,57.2,29.8,29.88,SE,135,0.2,1.1,35,0.00,,---,0.04,VWS V14.01,2013-04-20 16:38:00,
2013-04-20 12:39:00,56.8,29.5,29.88,SE,135,0.9,3.1,35,0.00,,---,0.04,VWS V14.01,2013-04-20 16:39:00,
2013-04-20 12:40:00,57.0,29.7,29.88,WSW,248,0.9,1.6,35,0.00,,---,0.04,VWS V14.01,2013-04-20 16:40:00,
2013-04-20 12:41:00,57.6,30.1,29.88,NNW,338,0.9,2.9,35,0.00,,---,0.04,VWS V14.01,2013-04-20 16:41:00,
2013-04-20 12:42:00,57.7,30.3,29.88,NW,315,0.5,3.4,35,0.00,,---,0.04,VWS V14.01,2013-04-20 16:42:00,
2013-04-20 12:43:00,57.0,29.7,29.88,SSE,158,0.2,2.2,35,0.00,,---,0.04,VWS V14.01,2013-04-20 16:43:00,
2013-04-20 12:44:00,57.2,29.8,29.88,SE,135,0.2,1.1,35,0.00,,---,0.04,VWS V14.01,2013-04-20 16:44:00,
2013-04-20 12:45:00,57.2,29.8,29.88,SE,135,0.2,0.0,35,0.00,,---,0.04,VWS V14.01,2013-04-20 16:45:00,
2013-04-20 12:46:00,58.3,30.8,29.88,NW,315,1.1,3.1,35,0.00,,---,0.04,VWS V14.01,2013-04-20 16:46:00,
2013-04-20 12:47:00,57.6,30.1,29.88,NNW,338,0.9,2.9,35,0.00,,---,0.04,VWS V14.01,2013-04-20 16:47:00,
2013-04-20 12:48:00,57.7,30.3,29.88,NW,315,0.5,3.4,35,0.00,,---,0.04,VWS V14.01,2013-04-20 16:48:00,
2013-04-20 12:49:00,58.3,30.1,29.88,NW,315,0.2,3.6,34,0.00,,---,0.04,VWS V14.01,2013-04-20 16:49:00,
2013-04-20 12:50:00,58.5,30.9,29.88,WSW,248,1.1,3.1,35,0.00,,---,0.04,VWS V14.01,2013-04-20 16:50:00,
2013-04-20 12:51:00,58.5,30.9,29.88,WSW,248,1.1,4.7,35,0.00,,---,0.04,VWS V14.01,2013-04-20 16:51:00,
2013-04-20 12:52:00,58.5,30.2,29.88,SSE,158,0.9,3.4,34,0.00,,---,0.04,VWS V14.01,2013-04-20 16:52:00,
2013-04-20 12:53:00,58.5,30.2,29.88,South,180,0.2,2.7,34,0.00,,---,0.04,VWS V14.01,2013-04-20 16:53:00,
2013-04-20 12:54:00,58.3,30.8,29.88,WSW,248,0.5,3.1,35,0.00,,---,0.04,VWS V14.01,2013-04-20 16:54:00,
2013-04-20 12:55:00,58.3,30.1,29.88,NW,315,0.2,3.6,34,0.00,,---,0.04,VWS V14.01,2013-04-20 16:55:00,
2013-04-20 12:56:00,58.5,30.9,29.88,WSW,248,1.1,3.1,35,0.00,,---,0.04,VWS V14.01,2013-04-20 16:56:00,
2013-04-20 12:57:00,58.6,31.1,29.88,NNW,338,0.5,2.9,35,0.00,,---,0.04,VWS V14.01,2013-04-20 16:57:00,
2013-04-20 12:58:00,58.6,31.1,29.88,NNE,22,1.6,4.0,35,0.00,,---,0.04,VWS V14.01,2013-04-20 16:58:00,
2013-04-20 12:59:00,58.5,30.2,29.88,South,180,0.2,2.7,34,0.00,,---,0.04,VWS V14.01,2013-04-20 16:59:00,
2013-04-20 13:00:00,58.5,30.9,29.88,NNW,338,0.7,2.7,35,0.00,,---,0.04,VWS V14.01,2013-04-20 17:00:00,
2013-04-20 13:01:00,58.6,31.1,29.88,SSE,158,0.7,2.7,35,0.00,,---,0.04,VWS V14.01,2013-04-20 17:01:00,
2013-04-20 13:02:00,58.6,29.6,29.88,South,180,0.5,3.4,33,0.00,,---,0.04,VWS V14.01,2013-04-20 17:02:00,
2013-04-20 13:03:00,58.6,30.4,29.88,WSW,248,0.5,2.7,34,0.00,,---,0.04,VWS V14.01,2013-04-20 17:03:00,
2013-04-20 13:04:00,58.6,30.4,29.88,SW,225,0.7,2.7,34,0.00,,---,0.04,VWS V14.01,2013-04-20 17:04:00,
2013-04-20 13:05:00,58.6,29.6,29.88,SW,225,1.6,4.3,33,0.00,,---,0.04,VWS V14.01,2013-04-20 17:05:00,
2013-04-20 13:06:00,58.8,30.5,29.88,SW,225,0.7,3.8,34,0.00,,---,0.04,VWS V14.01,2013-04-20 17:06:00,
2013-04-20 13:07:00,58.6,30.4,29.88,North,0,0.5,1.3,34,0.00,,---,0.04,VWS V14.01,2013-04-20 17:07:00,
2013-04-20 13:08:00,58.6,29.6,29.88,South,180,0.5,3.4,33,0.00,,---,0.04,VWS V14.01,2013-04-20 17:08:00,
2013-04-20 13:09:00,58.6,30.4,29.88,WSW,248,0.5,2.7,34,0.00,,---,0.04,VWS V14.01,2013-04-20 17:09:00,
2013-04-20 13:10:00,58.8,30.5,29.88,NW,315,1.6,3.6,34,0.00,,---,0.04,VWS V14.01,2013-04-20 17:10:00,
2013-04-20 13:11:00,58.6,29.6,29.88,SW,225,1.6,4.3,33,0.00,,---,0.04,VWS V14.01,2013-04-20 17:11:00,
2013-04-20 13:12:00,59.0,30.7,29.88,East,90,1.8,3.8,34,0.00,,---,0.04,VWS V14.01,2013-04-20 17:12:00,
2013-04-20 13:13:00,58.6,30.4,29.88,North,0,0.5,1.3,34,0.00,,---,0.04,VWS V14.01,2013-04-20 17:13:00,
2013-04-20 13:14:00,58.6,31.1,29.88,NW,315,0.2,2.5,35,0.00,,---,0.04,VWS V14.01,2013-04-20 17:14:00,
2013-04-20 13:15:00,59.4,29.5,29.88,WSW,248,2.3,4.3,32,0.00,,---,0.04,VWS V14.01,2013-04-20 17:15:00,
2013-04-20 13:16:00,58.8,30.5,29.88,NW,315,1.6,3.6,34,0.00,,---,0.04,VWS V14.01,2013-04-20 17:16:00,
2013-04-20 13:17:00,59.4,31.0,29.88,West,270,0.2,1.6,34,0.00,,---,0.04,VWS V14.01,2013-04-20 17:17:00,
2013-04-20 13:18:00,59.4,31.0,29.88,WSW,248,0.7,2.7,34,0.00,,---,0.04,VWS V14.01,2013-04-20 17:18:00,
2013-04-20 13:19:00,59.4,31.0,29.88,WSW,248,0.7,0.0,34,0.00,,---,0.04,VWS V14.01,2013-04-20 17:19:00,
2013-04-20 13:20:00,59.4,31.0,29.88,NNW,338,1.4,3.4,34,0.00,,---,0.04,VWS V14.01,2013-04-20 17:20:00,
2013-04-20 13:21:00,59.4,29.5,29.88,WSW,248,2.3,4.3,32,0.00,,---,0.04,VWS V14.01,2013-04-20 17:21:00,
2013-04-20 13:22:00,59.4,30.3,29.88,SW,225,0.2,4.3,33,0.00,,---,0.04,VWS V14.01,2013-04-20 17:22:00,
2013-04-20 13:23:00,59.4,31.0,29.88,East,90,0.0,4.3,34,0.00,,---,0.04,VWS V14.01,2013-04-20 17:23:00,
2013-04-20 13:24:00,59.4,31.0,29.88,WSW,248,0.7,2.7,34,0.00,,---,0.04,VWS V14.01,2013-04-20 17:24:00,
2013-04-20 13:25:00,59.7,30.6,29.85,North,0,1.8,4.7,33,0.00,,---,0.04,VWS V14.01,2013-04-20 17:25:00,
2013-04-20 13:26:00,59.4,31.0,29.88,NNW,338,1.4,3.4,34,0.00,,---,0.04,VWS V14.01,2013-04-20 17:26:00,
2013-04-20 13:27:00,59.9,30.8,29.85,West,270,0.7,2.9,33,0.00,,---,0.04,VWS V14.01,2013-04-20 17:27:00,
2013-04-20 13:28:00,59.4,29.5,29.88,NW,315,2.3,6.0,32,0.00,,---,0.04,VWS V14.01,2013-04-20 17:28:00,
2013-04-20 13:29:00,59.9,31.5,29.85,WSW,248,0.0,2.0,34,0.00,,---,0.04,VWS V14.01,2013-04-20 17:29:00,
2013-04-20 13:30:00,60.1,31.6,29.85,NE,45,0.5,2.5,34,0.00,,---,0.04,VWS V14.01,2013-04-20 17:30:00,
2013-04-20 13:31:00,59.7,30.6,29.85,North,0,1.8,4.7,33,0.00,,---,0.04,VWS V14.01,2013-04-20 17:31:00,
2013-04-20 13:32:00,60.3,31.8,29.85,SE,135,0.2,2.2,34,0.00,,---,0.04,VWS V14.01,2013-04-20 17:32:00,
2013-04-20 13:33:00,59.9,30.8,29.85,West,270,0.7,2.9,33,0.00,,---,0.04,VWS V14.01,2013-04-20 17:33:00,
2013-04-20 13:34:00,60.3,31.8,29.85,North,0,0.2,2.9,34,0.00,,---,0.04,VWS V14.01,2013-04-20 17:34:00,
2013-04-20 13:35:00,60.4,32.0,29.85,WSW,248,1.1,3.1,34,0.00,,---,0.04,VWS V14.01,2013-04-20 17:35:00,
2013-04-20 13:36:00,60.6,32.1,29.85,SW,225,1.8,4.9,34,0.00,,---,0.04,VWS V14.01,2013-04-20 17:36:00,
2013-04-20 13:37:00,60.6,31.4,29.85,NNW,338,0.5,3.8,33,0.00,,---,0.04,VWS V14.01,2013-04-20 17:37:00,
2013-04-20 13:38:00,60.3,31.8,29.85,SE,135,0.2,2.2,34,0.00,,---,0.04,VWS V14.01,2013-04-20 17:38:00,
2013-04-20 13:39:00,60.3,31.8,29.85,SE,135,0.5,3.4,34,0.00,,---,0.04,VWS V14.01,2013-04-20 17:39:00,
2013-04-20 13:40:00,60.3,31.8,29.85,North,0,0.2,2.9,34,0.00,,---,0.04,VWS V14.01,2013-04-20 17:40:00,
2013-04-20 13:41:00,60.8,31.5,29.85,WNW,292,3.8,5.8,33,0.00,,---,0.04,VWS V14.01,2013-04-20 17:41:00,
2013-04-20 13:42:00,60.6,32.1,29.85,SW,225,1.8,4.9,34,0.00,,---,0.04,VWS V14.01,2013-04-20 17:42:00,
2013-04-20 13:43:00,60.8,30.0,29.85,WNW,292,0.2,4.3,31,0.00,,---,0.04,VWS V14.01,2013-04-20 17:43:00,
2013-04-20 13:44:00,60.6,30.6,29.85,NW,315,2.0,4.0,32,0.00,,---,0.04,VWS V14.01,2013-04-20 17:44:00,
2013-04-20 13:45:00,60.6,30.6,29.85,WSW,248,1.6,3.6,32,0.00,,---,0.04,VWS V14.01,2013-04-20 17:45:00,
2013-04-20 13:46:00,60.8,31.5,29.85,North,0,0.5,4.0,33,0.00,,---,0.04,VWS V14.01,2013-04-20 17:46:00,
2013-04-20 13:47:00,60.8,31.5,29.85,WNW,292,3.8,5.8,33,0.00,,---,0.04,VWS V14.01,2013-04-20 17:47:00,
2013-04-20 13:48:00,60.4,32.0,29.85,NE,45,1.6,3.6,34,0.00,,---,0.04,VWS V14.01,2013-04-20 17:48:00,
2013-04-20 13:49:00,60.8,30.0,29.85,WNW,292,0.2,4.3,31,0.00,,---,0.04,VWS V14.01,2013-04-20 17:49:00,
2013-04-20 13:50:00,60.6,30.6,29.85,NNW,338,1.8,4.0,32,0.00,,---,0.04,VWS V14.01,2013-04-20 17:50:00,
2013-04-20 13:51:00,60.6,30.6,29.85,WSW,248,1.6,3.6,32,0.00,,---,0.04,VWS V14.01,2013-04-20 17:51:00,
2013-04-20 13:52:00,60.8,31.5,29.85,NW,315,0.5,3.8,33,0.00,,---,0.04,VWS V14.01,2013-04-20 17:52:00,
2013-04-20 13:53:00,60.8,31.5,29.85,WSW,248,1.4,4.0,33,0.00,,---,0.04,VWS V14.01,2013-04-20 17:53:00,
2013-04-20 13:54:00,60.4,32.0,29.85,NE,45,1.6,3.6,34,0.00,,---,0.04,VWS V14.01,2013-04-20 17:54:00,
2013-04-20 13:55:00,61.0,30.2,29.85,NNE,22,0.0,3.6,31,0.00,,---,0.04,VWS V14.01,2013-04-20 17:55:00,
2013-04-20 13:56:00,60.6,30.6,29.85,NNW,338,1.8,4.0,32,0.00,,---,0.04,VWS V14.01,2013-04-20 17:56:00,
2013-04-20 13:57:00,60.8,30.8,29.85,NNW,338,0.7,3.1,32,0.00,,---,0.04,VWS V14.01,2013-04-20 17:57:00,
2013-04-20 13:58:00,60.8,30.8,29.85,West,270,1.1,4.3,32,0.00,,---,0.04,VWS V14.01,2013-04-20 17:58:00,
2013-04-20 13:59:00,60.8,31.5,29.85,WSW,248,1.4,4.0,33,0.00,,---,0.04,VWS V14.01,2013-04-20 17:59:00,
2013-04-20 14:00:00,61.0,30.2,29.85,NW,315,0.7,3.4,31,0.00,,---,0.04,VWS V14.01,2013-04-20 18:00:00,
2013-04-20 14:01:00,61.0,29.4,29.85,South,180,0.9,2.9,30,0.00,,---,0.04,VWS V14.01,2013-04-20 18:01:00,
2013-04-20 14:02:00,60.8,30.8,29.85,NNW,338,1.1,3.8,32,0.00,,---,0.04,VWS V14.01,2013-04-20 18:02:00,
2013-04-20 14:03:00,60.8,30.8,29.85,NNW,338,0.7,3.1,32,0.00,,---,0.04,VWS V14.01,2013-04-20 18:03:00,
2013-04-20 14:04:00,61.2,30.3,29.85,WNW,292,1.4,3.4,31,0.00,,---,0.04,VWS V14.01,2013-04-20 18:04:00,
2013-04-20 14:05:00,61.3,31.2,29.85,NW,315,1.4,3.4,32,0.00,,---,0.04,VWS V14.01,2013-04-20 18:05:00,
2013-04-20 14:06:00,61.2,29.5,29.85,NW,315,0.0,5.8,30,0.00,,---,0.04,VWS V14.01,2013-04-20 18:06:00,
2013-04-20 14:07:00,61.3,30.5,29.85,NNE,22,0.0,3.1,31,0.00,,---,0.04,VWS V14.01,2013-04-20 18:07:00,
2013-04-20 14:08:00,61.0,30.2,29.85,WSW,248,0.0,2.9,31,0.00,,---,0.04,VWS V14.01,2013-04-20 18:08:00,
2013-04-20 14:09:00,61.2,31.1,29.85,NW,315,0.0,2.0,32,0.00,,---,0.04,VWS V14.01,2013-04-20 18:09:00,
2013-04-20 14:10:00,61.2,30.3,29.85,WNW,292,1.4,3.4,31,0.00,,---,0.04,VWS V14.01,2013-04-20 18:10:00,
2013-04-20 14:11:00,61.3,31.2,29.85,NW,315,1.4,3.4,32,0.00,,---,0.04,VWS V14.01,2013-04-20 18:11:00,
2013-04-20 14:12:00,61.7,30.8,29.85,WSW,248,1.4,3.6,31,0.00,,---,0.04,VWS V14.01,2013-04-20 18:12:00,
2013-04-20 14:13:00,61.7,30.8,29.85,SSE,158,2.3,4.3,31,0.00,,---,0.04,VWS V14.01,2013-04-20 18:13:00,
2013-04-20 14:14:00,61.5,30.6,29.85,North,0,1.8,3.8,31,0.00,,---,0.04,VWS V14.01,2013-04-20 18:14:00,
2013-04-20 14:15:00,61.5,30.6,29.85,NW,315,1.4,3.8,31,0.00,,---,0.04,VWS V14.01,2013-04-20 18:15:00,
2013-04-20 14:16:00,61.7,31.6,29.85,NNW,338,0.7,3.8,32,0.00,,---,0.04,VWS V14.01,2013-04-20 18:16:00,
2013-04-20 14:17:00,61.7,30.8,29.85,NNW,338,2.0,4.0,31,0.00,,---,0.04,VWS V14.01,2013-04-20 18:17:00,
2013-04-20 14:18:00,61.5,29.8,29.85,NNW,338,4.0,6.0,30,0.00,,---,0.04,VWS V14.01,2013-04-20 18:18:00,
2013-04-20 14:19:00,61.5,29.8,29.85,ENE,68,0.5,6.0,30,0.00,,---,0.04,VWS V14.01,2013-04-20 18:19:00,
2013-04-20 14:20:00,61.7,31.6,29.85,SE,135,1.1,4.3,32,0.00,,---,0.04,VWS V14.01,2013-04-20 18:20:00,
2013-04-20 14:21:00,61.5,30.6,29.85,NW,315,0.2,3.6,31,0.00,,---,0.04,VWS V14.01,2013-04-20 18:21:00,
2013-04-20 14:22:00,61.7,30.8,29.85,NNW,338,1.8,3.8,31,0.00,,---,0.04,VWS V14.01,2013-04-20 18:22:00,
2013-04-20 14:23:00,61.5,30.6,29.85,East,90,0.0,3.4,31,0.00,,---,0.04,VWS V14.01,2013-04-20 18:23:00,
2013-04-20 14:24:00,61.5,29.8,29.85,NNW,338,4.0,6.0,30,0.00,,---,0.04,VWS V14.01,2013-04-20 18:24:00,
2013-04-20 14:25:00,61.7,30.8,29.85,NNW,338,0.5,2.7,31,0.00,,---,0.04,VWS V14.01,2013-04-20 18:25:00,
2013-04-20 14:26:00,61.5,31.4,29.85,NNW,338,1.4,3.4,32,0.00,,---,0.04,VWS V14.01,2013-04-20 18:26:00,
2013-04-20 14:27:00,61.5,31.4,29.85,NNW,338,0.7,3.6,32,0.00,,---,0.04,VWS V14.01,2013-04-20 18:27:00,
2013-04-20 14:28:00,61.5,31.4,29.85,WNW,292,0.7,2.7,32,0.00,,---,0.04,VWS V14.01,2013-04-20 18:28:00,
2013-04-20 14:29:00,61.9,31.7,29.85,WNW,292,2.9,4.9,32,0.00,,---,0.04,VWS V14.01,2013-04-20 18:29:00,
2013-04-20 14:30:00,61.5,30.6,29.85,WNW,292,0.0,1.6,31,0.00,,---,0.04,VWS V14.01,2013-04-20 18:30:00,
2013-04-20 14:31:00,61.9,30.1,29.85,NW,315,1.1,4.9,30,0.00,,---,0.04,VWS V14.01,2013-04-20 18:31:00,
2013-04-20 14:32:00,61.7,31.6,29.85,NNW,338,0.9,2.9,32,0.00,,---,0.04,VWS V14.01,2013-04-20 18:32:00,
2013-04-20 14:33:00,61.9,31.7,29.85,WNW,292,0.7,4.3,32,0.00,,---,0.04,VWS V14.01,2013-04-20 18:33:00,
2013-04-20 14:34:00,61.9,30.9,29.85,WNW,292,1.1,4.5,31,0.00,,---,0.04,VWS V14.01,2013-04-20 18:34:00,
2013-04-20 14:35:00,61.7,30.8,29.85,SSW,202,2.0,4.9,31,0.00,,---,0.04,VWS V14.01,2013-04-20 18:35:00,
2013-04-20 14:36:00,61.5,30.6,29.85,SSW,202,0.2,4.0,31,0.00,,---,0.04,VWS V14.01,2013-04-20 18:36:00,
2013-04-20 14:37:00,61.3,30.5,29.85,WNW,292,1.6,3.6,31,0.00,,---,0.04,VWS V14.01,2013-04-20 18:37:00,
2013-04-20 14:38:00,61.7,30.0,29.85,SE,135,0.2,5.4,30,0.00,,---,0.04,VWS V14.01,2013-04-20 18:38:00,
2013-04-20 14:39:00,61.7,30.0,29.85,NNW,338,2.9,4.9,30,0.00,,---,0.04,VWS V14.01,2013-04-20 18:39:00,
2013-04-20 14:41:00,61.5,29.8,29.85,WSW,248,0.7,4.3,30,0.00,,---,0.04,VWS V14.01,2013-04-20 18:41:00,
2013-04-20 14:42:00,61.5,30.6,29.85,SSW,202,0.2,4.0,31,0.00,,---,0.04,VWS V14.01,2013-04-20 18:42:00,
2013-04-20 14:43:00,61.3,30.5,29.85,WNW,292,1.6,3.6,31,0.00,,---,0.04,VWS V14.01,2013-04-20 18:43:00,
2013-04-20 14:44:00,61.7,30.0,29.85,NNW,338,1.4,3.4,30,0.00,,---,0.04,VWS V14.01,2013-04-20 18:44:00,
2013-04-20 14:45:00,61.9,30.9,29.85,WSW,248,1.1,4.3,31,0.00,,---,0.04,VWS V14.01,2013-04-20 18:45:00,
2013-04-20 14:46:00,61.3,30.5,29.85,NW,315,0.7,1.6,31,0.00,,---,0.04,VWS V14.01,2013-04-20 18:46:00,
2013-04-20 14:47:00,62.1,31.9,29.85,NNW,338,1.8,3.8,32,0.00,,---,0.04,VWS V14.01,2013-04-20 18:47:00,
2013-04-20 14:48:00,61.5,29.8,29.85,NE,45,0.9,2.9,30,0.00,,---,0.04,VWS V14.01,2013-04-20 18:48:00,
2013-04-20 14:49:00,61.7,30.8,29.85,NNW,338,0.5,2.9,31,0.00,,---,0.04,VWS V14.01,2013-04-20 18:49:00,
2013-04-20 14:50:00,61.7,30.0,29.85,NNW,338,1.4,3.4,30,0.00,,---,0.04,VWS V14.01,2013-04-20 18:50:00,
2013-04-20 14:51:00,62.2,31.2,29.85,NNW,338,0.9,3.4,31,0.00,,---,0.04,VWS V14.01,2013-04-20 18:51:00,
2013-04-20 14:52:00,62.2,31.2,29.85,NW,315,0.9,2.9,31,0.00,,---,0.04,VWS V14.01,2013-04-20 18:52:00,
2013-04-20 14:53:00,62.2,31.2,29.85,WSW,248,1.1,4.9,31,0.00,,---,0.04,VWS V14.01,2013-04-20 18:53:00,
2013-04-20 14:54:00,62.2,31.2,29.85,North,0,1.6,4.3,31,0.00,,---,0.04,VWS V14.01,2013-04-20 18:54:00,
2013-04-20 14:55:00,62.2,31.2,29.85,NW,315,1.4,3.8,31,0.00,,---,0.04,VWS V14.01,2013-04-20 18:55:00,
2013-04-20 14:56:00,62.4,32.2,29.85,West,270,0.9,4.0,32,0.00,,---,0.04,VWS V14.01,2013-04-20 18:56:00,
2013-04-20 14:57:00,62.2,31.2,29.85,NNW,338,0.9,3.4,31,0.00,,---,0.04,VWS V14.01,2013-04-20 18:57:00,
2013-04-20 14:58:00,62.2,31.2,29.85,NW,315,0.9,2.9,31,0.00,,---,0.04,VWS V14.01,2013-04-20 18:58:00,
2013-04-20 14:59:00,62.4,31.4,29.85,SSW,202,1.6,4.0,31,0.00,,---,0.04,VWS V14.01,2013-04-20 18:59:00,
2013-04-20 15:00:00,62.4,31.4,29.85,North,0,1.1,3.6,31,0.00,,---,0.04,VWS V14.01,2013-04-20 19:00:00,
2013-04-20 15:01:00,62.2,32.0,29.85,WNW,292,2.0,4.0,32,0.00,,---,0.04,VWS V14.01,2013-04-20 19:01:00,
2013-04-20 15:02:00,62.6,30.8,29.85,NNW,338,1.6,3.6,30,0.00,,---,0.04,VWS V14.01,2013-04-20 19:02:00,
2013-04-20 15:03:00,62.2,31.2,29.85,NNW,338,0.5,3.4,31,0.00,,---,0.04,VWS V14.01,2013-04-20 19:03:00,
2013-04-20 15:04:00,62.4,30.6,29.85,North,0,0.9,3.1,30,0.00,,---,0.04,VWS V14.01,2013-04-20 19:04:00,
2013-04-20 15:05:00,62.4,31.4,29.85,NNW,338,0.0,3.4,31,0.00,,---,0.04,VWS V14.01,2013-04-20 19:05:00,
2013-04-20 15:06:00,62.4,30.6,29.85,SSE,158,1.1,4.3,30,0.00,,---,0.04,VWS V14.01,2013-04-20 19:06:00,
2013-04-20 15:07:00,62.6,29.9,29.85,WNW,292,1.6,3.6,29,0.00,,---,0.04,VWS V14.01,2013-04-20 19:07:00,
2013-04-20 15:08:00,62.6,30.8,29.85,NNW,338,1.6,3.6,30,0.00,,---,0.04,VWS V14.01,2013-04-20 19:08:00,
2013-04-20 15:09:00,62.4,29.8,29.85,NW,315,0.5,4.0,29,0.00,,---,0.04,VWS V14.01,2013-04-20 19:09:00,
2013-04-20 15:10:00,62.4,30.6,29.85,North,0,0.9,3.1,30,0.00,,---,0.04,VWS V14.01,2013-04-20 19:10:00,
2013-04-20 15:11:00,62.2,30.5,29.85,West,270,0.9,3.1,30,0.00,,---,0.04,VWS V14.01,2013-04-20 19:11:00,
2013-04-20 15:12:00,62.2,29.6,29.85,WSW,248,1.1,4.3,29,0.00,,---,0.04,VWS V14.01,2013-04-20 19:12:00,
2013-04-20 15:13:00,62.6,31.6,29.85,SSE,158,0.9,3.1,31,0.00,,---,0.04,VWS V14.01,2013-04-20 19:13:00,
2013-04-20 15:14:00,62.2,30.5,29.85,WSW,248,0.5,4.3,30,0.00,,---,0.04,VWS V14.01,2013-04-20 19:14:00,
2013-04-20 15:15:00,62.2,29.6,29.85,SSE,158,1.1,3.8,29,0.00,,---,0.04,VWS V14.01,2013-04-20 19:15:00,
2013-04-20 15:17:00,62.2,30.5,29.85,West,270,0.9,3.1,30,0.00,,---,0.04,VWS V14.01,2013-04-20 19:17:00,
2013-04-20 15:18:00,62.2,29.6,29.85,WSW,248,1.1,4.3,29,0.00,,---,0.04,VWS V14.01,2013-04-20 19:18:00,
2013-04-20 15:19:00,61.9,30.1,29.85,West,270,0.5,2.5,30,0.00,,---,0.04,VWS V14.01,2013-04-20 19:19:00,
2013-04-20 15:20:00,62.2,30.5,29.85,WSW,248,0.5,4.3,30,0.00,,---,0.04,VWS V14.01,2013-04-20 19:20:00,
2013-04-20 15:21:00,62.1,29.5,29.85,West,270,0.7,3.4,29,0.00,,---,0.04,VWS V14.01,2013-04-20 19:21:00,
2013-04-20 15:22:00,62.1,30.3,29.85,WSW,248,0.9,2.9,30,0.00,,---,0.04,VWS V14.01,2013-04-20 19:22:00,
2013-04-20 15:23:00,61.9,29.3,29.85,SW,225,1.4,3.4,29,0.00,,---,0.04,VWS V14.01,2013-04-20 19:23:00,
2013-04-20 15:24:00,61.9,30.1,29.85,SSE,158,0.0,3.1,30,0.00,,---,0.04,VWS V14.01,2013-04-20 19:24:00,
2013-04-20 15:25:00,61.9,30.1,29.85,West,270,0.5,2.5,30,0.00,,---,0.04,VWS V14.01,2013-04-20 19:25:00,
2013-04-20 15:26:00,62.1,29.5,29.85,WSW,248,1.4,3.6,29,0.00,,---,0.04,VWS V14.01,2013-04-20 19:26:00,
2013-04-20 15:27:00,61.9,30.1,29.82,SSW,202,0.9,2.9,30,0.00,,---,0.04,VWS V14.01,2013-04-20 19:27:00,
2013-04-20 15:28:00,61.9,30.1,29.82,NNW,338,1.4,3.6,30,0.00,,---,0.04,VWS V14.01,2013-04-20 19:28:00,
2013-04-20 15:29:00,62.1,29.5,29.82,NW,315,1.4,4.0,29,0.00,,---,0.04,VWS V14.01,2013-04-20 19:29:00,
2013-04-20 15:30:00,61.9,30.1,29.82,South,180,0.5,3.6,30,0.00,,---,0.04,VWS V14.01,2013-04-20 19:30:00,
2013-04-20 15:31:00,61.9,30.9,29.82,WSW,248,1.4,3.4,31,0.00,,---,0.04,VWS V14.01,2013-04-20 19:31:00,
2013-04-20 15:32:00,62.4,29.8,29.82,NE,45,0.9,3.4,29,0.00,,---,0.04,VWS V14.01,2013-04-20 19:32:00,
2013-04-20 15:33:00,62.4,29.8,29.82,SSE,158,1.6,3.6,29,0.00,,---,0.04,VWS V14.01,2013-04-20 19:33:00,
2013-04-20 15:34:00,61.9,30.1,29.82,NNW,338,1.4,3.6,30,0.00,,---,0.04,VWS V14.01,2013-04-20 19:34:00,
2013-04-20 15:35:00,62.6,29.9,29.82,WNW,292,3.4,5.4,29,0.00,,---,0.04,VWS V14.01,2013-04-20 19:35:00,
2013-04-20 15:36:00,62.6,29.9,29.82,NNE,22,0.0,5.4,29,0.00,,---,0.04,VWS V14.01,2013-04-20 19:36:00,
2013-04-20 15:37:00,62.6,29.1,29.82,WNW,292,1.8,3.8,28,0.00,,---,0.04,VWS V14.01,2013-04-20 19:37:00,
2013-04-20 15:38:00,62.8,29.2,29.82,WSW,248,1.4,4.3,28,0.00,,---,0.04,VWS V14.01,2013-04-20 19:38:00,
2013-04-20 15:39:00,62.4,29.8,29.82,SSE,158,1.6,3.6,29,0.00,,---,0.04,VWS V14.01,2013-04-20 19:39:00,
2013-04-20 15:40:00,62.4,29.8,29.82,West,270,0.0,4.0,29,0.00,,---,0.04,VWS V14.01,2013-04-20 19:40:00,
2013-04-20 15:41:00,62.6,29.9,29.85,WSW,248,0.7,3.1,29,0.00,,---,0.04,VWS V14.01,2013-04-20 19:41:00,
2013-04-20 15:42:00,62.6,29.9,29.82,NNE,22,0.0,5.4,29,0.00,,---,0.04,VWS V14.01,2013-04-20 19:42:00,
2013-04-20 15:43:00,62.6,29.1,29.82,WNW,292,1.8,3.8,28,0.00,,---,0.04,VWS V14.01,2013-04-20 19:43:00,
2013-04-20 15:44:00,62.6,29.9,29.85,WSW,248,0.9,2.9,29,0.00,,---,0.04,VWS V14.01,2013-04-20 19:44:00,
2013-04-20 15:45:00,62.6,29.1,29.85,WSW,248,0.5,3.6,28,0.00,,---,0.04,VWS V14.01,2013-04-20 19:45:00,
2013-04-20 15:46:00,62.6,29.9,29.85,SW,225,0.2,4.0,29,0.00,,---,0.04,VWS V14.01,2013-04-20 19:46:00,
2013-04-20 15:47:00,62.8,29.2,29.85,NE,45,1.1,3.1,28,0.00,,---,0.04,VWS V14.01,2013-04-20 19:47:00,
2013-04-20 15:48:00,62.6,29.9,29.85,ESE,112,0.5,2.7,29,0.00,,---,0.04,VWS V14.01,2013-04-20 19:48:00,
2013-04-20 15:49:00,63.0,30.2,29.85,West,270,1.8,3.8,29,0.00,,---,0.04,VWS V14.01,2013-04-20 19:49:00,
2013-04-20 15:50:00,63.0,30.2,29.85,NW,315,0.5,4.3,29,0.00,,---,0.04,VWS V14.01,2013-04-20 19:50:00,
2013-04-20 15:51:00,62.6,29.1,29.85,WSW,248,0.5,3.6,28,0.00,,---,0.04,VWS V14.01,2013-04-20 19:51:00,
2013-04-20 15:52:00,63.1,30.4,29.85,SSW,202,0.9,6.0,29,0.00,,---,0.04,VWS V14.01,2013-04-20 19:52:00,
2013-04-20 15:53:00,62.8,29.2,29.85,NE,45,1.1,3.1,28,0.00,,---,0.04,VWS V14.01,2013-04-20 19:53:00,
2013-04-20 15:54:00,63.1,29.5,29.85,WNW,292,1.4,3.4,28,0.00,,---,0.04,VWS V14.01,2013-04-20 19:54:00,
2013-04-20 15:55:00,63.3,29.7,29.85,SSW,202,1.1,4.3,28,0.00,,---,0.04,VWS V14.01,2013-04-20 19:55:00,
2013-04-20 15:56:00,63.3,29.7,29.85,WSW,248,0.7,6.0,28,0.00,,---,0.04,VWS V14.01,2013-04-20 19:56:00,
2013-04-20 15:57:00,63.0,31.1,29.85,NW,315,0.7,2.7,30,0.00,,---,0.04,VWS V14.01,2013-04-20 19:57:00,
2013-04-20 15:58:00,63.3,30.5,29.85,WSW,248,0.9,3.8,29,0.00,,---,0.04,VWS V14.01,2013-04-20 19:58:00,
2013-04-20 15:59:00,63.5,29.8,29.85,West,270,1.1,3.1,28,0.00,,---,0.04,VWS V14.01,2013-04-20 19:59:00,
2013-04-20 16:00:00,63.1,29.5,29.85,WNW,292,1.4,3.4,28,0.00,,---,0.04,VWS V14.01,2013-04-20 20:00:00,
2013-04-20 16:01:00,63.3,29.7,29.85,SSW,202,1.1,4.3,28,0.00,,---,0.04,VWS V14.01,2013-04-20 20:01:00,
2013-04-20 16:02:00,63.3,29.7,29.85,WSW,248,1.4,4.3,28,0.00,,---,0.04,VWS V14.01,2013-04-20 20:02:00,
2013-04-20 16:03:00,63.3,29.7,29.85,WSW,248,0.0,3.4,28,0.00,,---,0.04,VWS V14.01,2013-04-20 20:03:00,
2013-04-20 16:04:00,63.3,30.5,29.85,WSW,248,0.9,3.8,29,0.00,,---,0.04,VWS V14.01,2013-04-20 20:04:00,
2013-04-20 16:05:00,63.5,29.8,29.85,West,270,1.1,3.1,28,0.00,,---,0.04,VWS V14.01,2013-04-20 20:05:00,
2013-04-20 16:06:00,63.1,28.6,29.85,WSW,248,1.6,3.6,27,0.00,,---,0.04,VWS V14.01,2013-04-20 20:06:00,
2013-04-20 16:07:00,63.1,28.6,29.85,SSW,202,0.7,2.7,27,0.00,,---,0.04,VWS V14.01,2013-04-20 20:07:00,
2013-04-20 16:08:00,63.1,29.5,29.85,NW,315,0.9,3.6,28,0.00,,---,0.04,VWS V14.01,2013-04-20 20:08:00,
2013-04-20 16:09:00,63.3,29.7,29.85,WSW,248,0.0,3.4,28,0.00,,---,0.04,VWS V14.01,2013-04-20 20:09:00,
2013-04-20 16:10:00,63.3,29.7,29.85,West,270,1.1,3.1,28,0.00,,---,0.04,VWS V14.01,2013-04-20 20:10:00,
2013-04-20 16:11:00,63.3,29.7,29.85,SSW,202,0.7,3.4,28,0.00,,---,0.04,VWS V14.01,2013-04-20 20:11:00,
2013-04-20 16:12:00,63.1,28.6,29.85,WSW,248,1.6,3.6,27,0.00,,---,0.04,VWS V14.01,2013-04-20 20:12:00,
2013-04-20 16:13:00,63.1,28.6,29.85,SSW,202,0.7,2.7,27,0.00,,---,0.04,VWS V14.01,2013-04-20 20:13:00,
2013-04-20 16:14:00,63.1,29.5,29.85,WSW,248,0.7,3.1,28,0.00,,---,0.04,VWS V14.01,2013-04-20 20:14:00,
2013-04-20 16:15:00,63.1,29.5,29.85,South,180,1.1,3.1,28,0.00,,---,0.04,VWS V14.01,2013-04-20 20:15:00,
2013-04-20 16:16:00,63.1,30.4,29.85,ESE,112,0.5,2.5,29,0.00,,---,0.04,VWS V14.01,2013-04-20 20:16:00,
2013-04-20 16:17:00,63.1,30.4,29.85,WSW,248,1.8,3.8,29,0.00,,---,0.04,VWS V14.01,2013-04-20 20:17:00,
2013-04-20 16:18:00,63.3,30.5,29.85,WSW,248,0.2,2.9,29,0.00,,---,0.04,VWS V14.01,2013-04-20 20:18:00,
2013-04-20 16:19:00,63.1,29.5,29.85,SW,225,1.1,3.8,28,0.00,,---,0.04,VWS V14.01,2013-04-20 20:19:00,
2013-04-20 16:20:00,63.1,29.5,29.85,WSW,248,0.7,3.1,28,0.00,,---,0.04,VWS V14.01,2013-04-20 20:20:00,
2013-04-20 16:21:00,63.1,29.5,29.85,South,180,1.1,3.1,28,0.00,,---,0.04,VWS V14.01,2013-04-20 20:21:00,
2013-04-20 16:22:00,63.5,30.7,29.85,WSW,248,1.8,3.8,29,0.00,,---,0.04,VWS V14.01,2013-04-20 20:22:00,
2013-04-20 16:23:00,63.3,30.5,29.85,WNW,292,0.9,2.9,29,0.00,,---,0.04,VWS V14.01,2013-04-20 20:23:00,
2013-04-20 16:24:00,63.7,30.0,29.82,WSW,248,0.5,2.5,28,0.00,,---,0.04,VWS V14.01,2013-04-20 20:24:00,
2013-04-20 16:25:00,63.3,29.7,29.85,SSW,202,0.5,2.5,28,0.00,,---,0.04,VWS V14.01,2013-04-20 20:25:00,
2013-04-20 16:26:00,63.7,30.9,29.82,NW,315,0.2,2.5,29,0.00,,---,0.04,VWS V14.01,2013-04-20 20:26:00,
2013-04-20 16:27:00,63.5,29.8,29.85,WSW,248,1.4,3.4,28,0.00,,---,0.04,VWS V14.01,2013-04-20 20:27:00,
2013-04-20 16:28:00,63.5,30.7,29.85,WSW,248,1.8,3.8,29,0.00,,---,0.04,VWS V14.01,2013-04-20 20:28:00,
2013-04-20 16:29:00,63.5,30.7,29.85,SSW,202,0.2,3.8,29,0.00,,---,0.04,VWS V14.01,2013-04-20 20:29:00,
2013-04-20 16:30:00,64.0,30.3,29.82,West,270,1.4,4.3,28,0.00,,---,0.04,VWS V14.01,2013-04-20 20:30:00,
2013-04-20 16:32:00,64.2,30.5,29.82,NW,315,0.2,2.2,28,0.00,,---,0.04,VWS V14.01,2013-04-20 20:32:00,
2013-04-20 16:33:00,63.9,30.1,29.82,SSW,202,0.0,2.2,28,0.00,,---,0.04,VWS V14.01,2013-04-20 20:33:00,
2013-04-20 16:34:00,63.9,30.1,29.82,West,270,0.5,3.1,28,0.00,,---,0.04,VWS V14.01,2013-04-20 20:34:00,
2013-04-20 16:35:00,64.4,30.6,29.82,WSW,248,1.1,3.6,28,0.00,,---,0.04,VWS V14.01,2013-04-20 20:35:00,
2013-04-20 16:36:00,64.0,30.3,29.82,West,270,1.4,4.3,28,0.00,,---,0.04,VWS V14.01,2013-04-20 20:36:00,
2013-04-20 16:37:00,64.4,30.6,29.82,SW,225,1.4,3.8,28,0.00,,---,0.04,VWS V14.01,2013-04-20 20:37:00,
2013-04-20 16:38:00,64.2,30.5,29.82,NW,315,0.2,2.2,28,0.00,,---,0.04,VWS V14.01,2013-04-20 20:38:00,
2013-04-20 16:39:00,64.4,30.6,29.82,West,270,2.3,4.3,28,0.00,,---,0.04,VWS V14.01,2013-04-20 20:39:00,
2013-04-20 16:40:00,64.2,30.5,29.85,South,180,0.2,4.3,28,0.00,,---,0.04,VWS V14.01,2013-04-20 20:40:00,
2013-04-20 16:41:00,64.4,30.6,29.82,WSW,248,1.1,3.6,28,0.00,,---,0.04,VWS V14.01,2013-04-20 20:41:00,
2013-04-20 16:42:00,64.2,30.5,29.85,NNW,338,1.8,3.8,28,0.00,,---,0.04,VWS V14.01,2013-04-20 20:42:00,
2013-04-20 16:43:00,64.2,30.5,29.85,WNW,292,2.7,4.7,28,0.00,,---,0.04,VWS V14.01,2013-04-20 20:43:00,
2013-04-20 16:44:00,64.2,30.5,29.85,NW,315,0.0,4.7,28,0.00,,---,0.04,VWS V14.01,2013-04-20 20:44:00,
2013-04-20 16:45:00,64.4,30.6,29.82,West,270,2.3,4.3,28,0.00,,---,0.04,VWS V14.01,2013-04-20 20:45:00,
2013-04-20 16:46:00,64.2,30.5,29.85,South,180,0.2,4.3,28,0.00,,---,0.04,VWS V14.01,2013-04-20 20:46:00,
2013-04-20 16:47:00,64.2,30.5,29.85,East,90,0.0,2.2,28,0.00,,---,0.04,VWS V14.01,2013-04-20 20:47:00,
2013-04-20 16:48:00,64.4,30.6,29.85,NNW,338,0.5,4.0,28,0.00,,---,0.04,VWS V14.01,2013-04-20 20:48:00,
2013-04-20 16:49:00,64.4,30.6,29.85,NW,315,1.1,3.1,28,0.00,,---,0.04,VWS V14.01,2013-04-20 20:49:00,
2013-04-20 16:50:00,64.4,30.6,29.85,NNW,338,0.5,3.1,28,0.00,,---,0.04,VWS V14.01,2013-04-20 20:50:00,
2013-04-20 16:51:00,64.4,30.6,29.85,NNE,22,1.4,3.6,28,0.00,,---,0.04,VWS V14.01,2013-04-20 20:51:00,
2013-04-20 16:52:00,64.4,30.6,29.85,NW,315,0.9,3.6,28,0.00,,---,0.04,VWS V14.01,2013-04-20 20:52:00,
2013-04-20 16:53:00,64.4,30.6,29.85,NNW,338,2.0,4.0,28,0.00,,---,0.04,VWS V14.01,2013-04-20 20:53:00,
2013-04-20 16:54:00,64.2,30.5,29.85,SE,135,1.4,3.4,28,0.00,,---,0.04,VWS V14.01,2013-04-20 20:54:00,
2013-04-20 16:55:00,64.2,30.5,29.85,ESE,112,0.9,3.4,28,0.00,,---,0.04,VWS V14.01,2013-04-20 20:55:00,
2013-04-20 16:56:00,64.4,30.6,29.85,NNW,338,0.5,3.1,28,0.00,,---,0.04,VWS V14.01,2013-04-20 20:56:00,
2013-04-20 16:57:00,64.4,30.6,29.85,North,0,0.0,2.0,28,0.00,,---,0.04,VWS V14.01,2013-04-20 20:57:00,
2013-04-20 16:58:00,64.4,29.7,29.85,WNW,292,1.8,3.8,27,0.00,,---,0.04,VWS V14.01,2013-04-20 20:58:00,
2013-04-20 16:59:00,64.6,31.6,29.85,WNW,292,0.0,1.3,29,0.00,,---,0.04,VWS V14.01,2013-04-20 20:59:00,
2013-04-20 17:00:00,64.2,30.5,29.85,SE,135,1.4,3.4,28,0.00,,---,0.04,VWS V14.01,2013-04-20 21:00:00,
2013-04-20 17:01:00,64.8,30.9,29.85,NE,45,0.0,3.1,28,0.00,,---,0.04,VWS V14.01,2013-04-20 21:01:00,
2013-04-20 17:02:00,65.1,31.2,29.85,NNW,338,0.7,2.7,28,0.00,,---,0.04,VWS V14.01,2013-04-20 21:02:00,
2013-04-20 17:03:00,65.1,32.1,29.85,West,270,2.0,4.0,29,0.00,,---,0.04,VWS V14.01,2013-04-20 21:03:00,
2013-04-20 17:04:00,64.4,30.6,29.85,NW,315,0.0,2.0,28,0.00,,---,0.04,VWS V14.01,2013-04-20 21:04:00,
2013-04-20 17:05:00,64.6,31.6,29.85,WNW,292,0.0,1.3,29,0.00,,---,0.04,VWS V14.01,2013-04-20 21:05:00,
2013-04-20 17:06:00,64.8,30.9,29.85,WNW,292,1.1,3.1,28,0.00,,---,0.04,VWS V14.01,2013-04-20 21:06:00,
2013-04-20 17:07:00,64.9,30.2,29.85,NE,45,0.2,3.4,27,0.00,,---,0.04,VWS V14.01,2013-04-20 21:07:00,
2013-04-20 17:08:00,64.9,30.2,29.85,SSW,202,0.0,2.7,27,0.00,,---,0.04,VWS V14.01,2013-04-20 21:08:00,
2013-04-20 17:09:00,65.1,32.1,29.85,West,270,2.0,4.0,29,0.00,,---,0.04,VWS V14.01,2013-04-20 21:09:00,
2013-04-20 17:10:00,65.1,31.2,29.85,WNW,292,0.5,2.5,28,0.00,,---,0.04,VWS V14.01,2013-04-20 21:10:00,
2013-04-20 17:11:00,65.1,31.2,29.85,SSE,158,1.1,4.9,28,0.00,,---,0.04,VWS V14.01,2013-04-20 21:11:00,
2013-04-20 17:12:00,64.9,30.2,29.85,NNW,338,0.7,4.0,27,0.00,,---,0.04,VWS V14.01,2013-04-20 21:12:00,
2013-04-20 17:13:00,64.9,30.2,29.85,NE,45,0.2,3.4,27,0.00,,---,0.04,VWS V14.01,2013-04-20 21:13:00,
2013-04-20 17:14:00,64.9,30.2,29.85,WSW,248,0.0,2.5,27,0.00,,---,0.04,VWS V14.01,2013-04-20 21:14:00,
2013-04-20 17:15:00,64.9,31.1,29.85,NW,315,0.5,3.6,28,0.00,,---,0.04,VWS V14.01,2013-04-20 21:15:00,
2013-04-20 17:16:00,65.1,31.2,29.85,WNW,292,0.5,2.5,28,0.00,,---,0.04,VWS V14.01,2013-04-20 21:16:00,
2013-04-20 17:17:00,64.9,30.2,29.85,NNW,338,1.8,3.8,27,0.00,,---,0.04,VWS V14.01,2013-04-20 21:17:00,
2013-04-20 17:18:00,64.9,30.2,29.85,NNW,338,0.7,4.0,27,0.00,,---,0.04,VWS V14.01,2013-04-20 21:18:00,
2013-04-20 17:19:00,64.8,30.0,29.85,West,270,0.7,3.4,27,0.00,,---,0.04,VWS V14.01,2013-04-20 21:19:00,
2013-04-20 17:20:00,64.9,30.2,29.85,WSW,248,0.0,2.5,27,0.00,,---,0.04,VWS V14.01,2013-04-20 21:20:00,
2013-04-20 17:21:00,64.8,30.0,29.85,SSW,202,0.0,3.6,27,0.00,,---,0.04,VWS V14.01,2013-04-20 21:21:00,
2013-04-20 17:22:00,64.9,30.2,29.85,WNW,292,0.7,3.6,27,0.00,,---,0.04,VWS V14.01,2013-04-20 21:22:00,
2013-04-20 17:23:00,64.8,30.9,29.85,WSW,248,2.3,4.3,28,0.00,,---,0.04,VWS V14.01,2013-04-20 21:23:00,
2013-04-20 17:24:00,64.8,30.9,29.85,NNE,22,0.2,4.3,28,0.00,,---,0.04,VWS V14.01,2013-04-20 21:24:00,
2013-04-20 17:25:00,64.8,30.9,29.85,North,0,0.5,2.7,28,0.00,,---,0.04,VWS V14.01,2013-04-20 21:25:00,
2013-04-20 17:26:00,64.8,30.0,29.85,WSW,248,1.6,3.6,27,0.00,,---,0.04,VWS V14.01,2013-04-20 21:26:00,
2013-04-20 17:27:00,64.6,30.8,29.85,SW,225,0.5,2.9,28,0.00,,---,0.04,VWS V14.01,2013-04-20 21:27:00,
2013-04-20 17:28:00,64.6,30.8,29.85,SW,225,0.2,3.1,28,0.00,,---,0.04,VWS V14.01,2013-04-20 21:28:00,
2013-04-20 17:29:00,64.8,30.9,29.85,WSW,248,2.3,4.3,28,0.00,,---,0.04,VWS V14.01,2013-04-20 21:29:00,
2013-04-20 17:30:00,64.6,30.8,29.85,WNW,292,0.7,3.4,28,0.00,,---,0.04,VWS V14.01,2013-04-20 21:30:00,
2013-04-20 17:31:00,64.6,30.8,29.85,WNW,292,0.9,2.9,28,0.00,,---,0.04,VWS V14.01,2013-04-20 21:31:00,
2013-04-20 17:32:00,64.8,30.9,29.85,SSW,202,0.9,2.9,28,0.00,,---,0.04,VWS V14.01,2013-04-20 21:32:00,
2013-04-20 17:33:00,64.6,30.8,29.85,SW,225,0.5,2.9,28,0.00,,---,0.04,VWS V14.01,2013-04-20 21:33:00,
2013-04-20 17:34:00,64.6,30.8,29.85,NNW,338,0.2,2.2,28,0.00,,---,0.04,VWS V14.01,2013-04-20 21:34:00,
2013-04-20 17:35:00,64.6,30.8,29.85,WNW,292,0.9,3.1,28,0.00,,---,0.04,VWS V14.01,2013-04-20 21:35:00,
2013-04-20 17:36:00,64.6,30.8,29.85,WNW,292,0.7,3.4,28,0.00,,---,0.04,VWS V14.01,2013-04-20 21:36:00,
2013-04-20 17:37:00,64.6,30.8,29.85,WNW,292,0.9,2.9,28,0.00,,---,0.04,VWS V14.01,2013-04-20 21:37:00,
2013-04-20 17:38:00,64.6,30.8,29.85,West,270,0.2,2.5,28,0.00,,---,0.04,VWS V14.01,2013-04-20 21:38:00,
2013-04-20 17:39:00,64.6,30.8,29.88,WSW,248,1.6,3.6,28,0.00,,---,0.04,VWS V14.01,2013-04-20 21:39:00,
2013-04-20 17:40:00,64.6,30.8,29.85,NNW,338,0.2,2.2,28,0.00,,---,0.04,VWS V14.01,2013-04-20 21:40:00,
2013-04-20 17:41:00,64.6,30.8,29.85,WNW,292,0.9,3.1,28,0.00,,---,0.04,VWS V14.01,2013-04-20 21:41:00,
2013-04-20 17:42:00,64.6,30.8,29.85,WNW,292,1.4,6.0,28,0.00,,---,0.04,VWS V14.01,2013-04-20 21:42:00,
2013-04-20 17:43:00,64.6,30.8,29.88,WSW,248,2.9,4.9,28,0.00,,---,0.04,VWS V14.01,2013-04-20 21:43:00,
2013-04-20 17:44:00,64.6,30.8,29.88,NW,315,1.4,4.9,28,0.00,,---,0.04,VWS V14.01,2013-04-20 21:44:00,
2013-04-20 17:45:00,64.6,30.8,29.88,North,0,0.7,3.4,28,0.00,,---,0.04,VWS V14.01,2013-04-20 21:45:00,
2013-04-20 17:46:00,64.6,30.8,29.88,NNW,338,0.7,2.7,28,0.00,,---,0.04,VWS V14.01,2013-04-20 21:46:00,
2013-04-20 17:47:00,64.6,30.8,29.88,West,270,0.2,3.4,28,0.00,,---,0.04,VWS V14.01,2013-04-20 21:47:00,
2013-04-20 17:48:00,64.6,30.8,29.88,WSW,248,0.9,3.1,28,0.00,,---,0.04,VWS V14.01,2013-04-20 21:48:00,
2013-04-20 17:49:00,64.6,30.8,29.88,WSW,248,2.9,4.9,28,0.00,,---,0.04,VWS V14.01,2013-04-20 21:49:00,
2013-04-20 17:50:00,63.3,29.7,29.88,NNW,338,0.7,3.4,28,0.00,,---,0.04,VWS V14.01,2013-04-20 21:50:00,
2013-04-20 17:51:00,64.6,30.8,29.88,North,0,0.7,3.4,28,0.00,,---,0.04,VWS V14.01,2013-04-20 21:51:00,
2013-04-20 17:52:00,64.6,30.8,29.88,NNW,338,0.7,2.7,28,0.00,,---,0.04,VWS V14.01,2013-04-20 21:52:00,
2013-04-20 17:53:00,63.3,30.5,29.88,WNW,292,0.9,2.9,29,0.00,,---,0.04,VWS V14.01,2013-04-20 21:53:00,
2013-04-20 17:54:00,63.3,30.5,29.88,WNW,292,0.5,2.9,29,0.00,,---,0.04,VWS V14.01,2013-04-20 21:54:00,
2013-04-20 17:55:00,63.1,30.4,29.88,WNW,292,0.9,3.6,29,0.00,,---,0.04,VWS V14.01,2013-04-20 21:55:00,
2013-04-20 17:56:00,63.1,30.4,29.88,WNW,292,0.9,2.9,29,0.00,,---,0.04,VWS V14.01,2013-04-20 21:56:00,
2013-04-20 17:57:00,63.3,29.7,29.88,WSW,248,0.5,3.1,28,0.00,,---,0.04,VWS V14.01,2013-04-20 21:57:00,
2013-04-20 17:58:00,63.3,29.7,29.88,WNW,292,0.7,2.7,28,0.00,,---,0.04,VWS V14.01,2013-04-20 21:58:00,
2013-04-20 17:59:00,63.3,30.5,29.88,WNW,292,0.9,2.9,29,0.00,,---,0.04,VWS V14.01,2013-04-20 21:59:00,
2013-04-20 18:00:00,62.8,29.2,29.88,SW,225,0.7,2.7,28,0.00,,---,0.04,VWS V14.01,2013-04-20 22:00:00,
2013-04-20 18:01:00,63.1,30.4,29.88,WNW,292,0.9,3.6,29,0.00,,---,0.04,VWS V14.01,2013-04-20 22:01:00,
2013-04-20 18:02:00,62.8,30.1,29.88,WSW,248,0.7,3.4,29,0.00,,---,0.04,VWS V14.01,2013-04-20 22:02:00,
2013-04-20 18:03:00,63.1,30.4,29.88,WSW,248,1.4,3.4,29,0.00,,---,0.04,VWS V14.01,2013-04-20 22:03:00,
2013-04-20 18:04:00,62.6,29.1,29.88,WNW,292,0.7,4.0,28,0.00,,---,0.04,VWS V14.01,2013-04-20 22:04:00,
2013-04-20 18:05:00,62.6,29.1,29.88,WSW,248,0.0,2.0,28,0.00,,---,0.04,VWS V14.01,2013-04-20 22:05:00,
2013-04-20 18:06:00,62.8,29.2,29.88,SW,225,0.7,2.7,28,0.00,,---,0.04,VWS V14.01,2013-04-20 22:06:00,
2013-04-20 18:07:00,62.4,29.8,29.88,West,270,0.7,2.9,29,0.00,,---,0.04,VWS V14.01,2013-04-20 22:07:00,
2013-04-20 18:08:00,62.8,30.1,29.88,WSW,248,0.7,3.4,29,0.00,,---,0.04,VWS V14.01,2013-04-20 22:08:00,
2013-04-20 18:09:00,62.4,29.8,29.88,West,270,0.7,3.1,29,0.00,,---,0.04,VWS V14.01,2013-04-20 22:09:00,
2013-04-20 18:10:00,62.6,29.1,29.88,WNW,292,0.7,4.0,28,0.00,,---,0.04,VWS V14.01,2013-04-20 22:10:00,
2013-04-20 18:11:00,62.6,29.1,29.88,WSW,248,0.0,2.0,28,0.00,,---,0.04,VWS V14.01,2013-04-20 22:11:00,
2013-04-20 18:12:00,62.2,30.5,29.88,SW,225,0.5,4.0,30,0.00,,---,0.04,VWS V14.01,2013-04-20 22:12:00,
2013-04-20 18:13:00,62.4,29.8,29.88,West,270,0.7,2.9,29,0.00,,---,0.04,VWS V14.01,2013-04-20 22:13:00,
2013-04-20 18:14:00,62.2,29.6,29.88,West,270,1.1,3.1,29,0.00,,---,0.04,VWS V14.01,2013-04-20 22:14:00,
2013-04-20 18:15:00,62.2,29.6,29.88,WSW,248,0.7,3.1,29,0.00,,---,0.04,VWS V14.01,2013-04-20 22:15:00,
2013-04-20 18:16:00,62.4,30.6,29.88,WNW,292,0.7,2.7,30,0.00,,---,0.04,VWS V14.01,2013-04-20 22:16:00,
2013-04-20 18:17:00,62.2,29.6,29.88,WNW,292,2.0,4.0,29,0.00,,---,0.04,VWS V14.01,2013-04-20 22:17:00,
2013-04-20 18:18:00,62.2,30.5,29.88,WNW,292,0.5,3.4,30,0.00,,---,0.04,VWS V14.01,2013-04-20 22:18:00,
2013-04-20 18:19:00,62.2,29.6,29.88,SSW,202,0.9,3.8,29,0.00,,---,0.04,VWS V14.01,2013-04-20 22:19:00,
2013-04-20 18:20:00,62.2,30.5,29.88,NW,315,0.7,2.7,30,0.00,,---,0.04,VWS V14.01,2013-04-20 22:20:00,
2013-04-20 18:21:00,62.2,29.6,29.88,WSW,248,0.7,3.1,29,0.00,,---,0.04,VWS V14.01,2013-04-20 22:21:00,
2013-04-20 18:22:00,62.1,29.5,29.88,NW,315,1.6,3.6,29,0.00,,---,0.04,VWS V14.01,2013-04-20 22:22:00,
2013-04-20 18:23:00,62.2,32.0,29.88,WNW,292,0.9,2.9,32,0.00,,---,0.04,VWS V14.01,2013-04-20 22:23:00,
2013-04-20 18:24:00,62.2,30.5,29.88,WNW,292,0.5,3.4,30,0.00,,---,0.04,VWS V14.01,2013-04-20 22:24:00,
2013-04-20 18:25:00,62.2,30.5,29.88,WSW,248,0.0,2.7,30,0.00,,---,0.04,VWS V14.01,2013-04-20 22:25:00,
2013-04-20 18:26:00,62.1,30.3,29.88,SE,135,2.0,4.0,30,0.00,,---,0.04,VWS V14.01,2013-04-20 22:26:00,
2013-04-20 18:27:00,62.1,30.3,29.88,SW,225,0.0,4.0,30,0.00,,---,0.04,VWS V14.01,2013-04-20 22:27:00,
2013-04-20 18:28:00,61.9,30.1,29.88,WSW,248,0.5,2.9,30,0.00,,---,0.04,VWS V14.01,2013-04-20 22:28:00,
2013-04-20 18:29:00,62.1,29.5,29.88,SSW,202,1.1,3.6,29,0.00,,---,0.04,VWS V14.01,2013-04-20 22:29:00,
2013-04-20 18:30:00,61.9,29.3,29.88,WSW,248,1.6,3.6,29,0.00,,---,0.04,VWS V14.01,2013-04-20 22:30:00,
2013-04-20 18:31:00,62.1,30.3,29.88,ENE,68,0.0,2.0,30,0.00,,---,0.04,VWS V14.01,2013-04-20 22:31:00,
2013-04-20 18:32:00,61.7,30.0,29.88,SSW,202,0.7,3.1,30,0.00,,---,0.04,VWS V14.01,2013-04-20 22:32:00,
2013-04-20 18:33:00,61.7,29.1,29.88,SE,135,0.7,2.9,29,0.00,,---,0.04,VWS V14.01,2013-04-20 22:33:00,
2013-04-20 18:34:00,61.5,29.0,29.88,SSW,202,0.0,2.0,29,0.00,,---,0.04,VWS V14.01,2013-04-20 22:34:00,
2013-04-20 18:35:00,61.5,29.0,29.88,WSW,248,2.3,4.3,29,0.00,,---,0.04,VWS V14.01,2013-04-20 22:35:00,
2013-04-20 18:36:00,61.9,29.3,29.88,WSW,248,1.6,3.6,29,0.00,,---,0.04,VWS V14.01,2013-04-20 22:36:00,
2013-04-20 18:37:00,61.5,29.0,29.88,WSW,248,0.5,2.7,29,0.00,,---,0.04,VWS V14.01,2013-04-20 22:37:00,
2013-04-20 18:38:00,61.7,30.0,29.88,SSW,202,0.7,3.1,30,0.00,,---,0.04,VWS V14.01,2013-04-20 22:38:00,
2013-04-20 18:39:00,61.5,29.0,29.88,WSW,248,0.5,3.6,29,0.00,,---,0.04,VWS V14.01,2013-04-20 22:39:00,
2013-04-20 18:40:00,61.5,29.0,29.88,SSW,202,0.0,2.0,29,0.00,,---,0.04,VWS V14.01,2013-04-20 22:40:00,
2013-04-20 18:41:00,61.5,29.0,29.88,WSW,248,2.3,4.3,29,0.00,,---,0.04,VWS V14.01,2013-04-20 22:41:00,
2013-04-20 18:42:00,61.3,29.7,29.88,West,270,0.7,3.1,30,0.00,,---,0.04,VWS V14.01,2013-04-20 22:42:00,
2013-04-20 18:43:00,61.5,29.0,29.88,WSW,248,0.5,2.7,29,0.00,,---,0.04,VWS V14.01,2013-04-20 22:43:00,
2013-04-20 18:44:00,61.3,30.5,29.88,WSW,248,0.2,2.5,31,0.00,,---,0.04,VWS V14.01,2013-04-20 22:44:00,
2013-04-20 18:45:00,61.3,30.5,29.88,SW,225,0.0,2.7,31,0.00,,---,0.04,VWS V14.01,2013-04-20 22:45:00,
2013-04-20 18:46:00,61.3,29.7,29.88,SW,225,0.0,3.8,30,0.00,,---,0.04,VWS V14.01,2013-04-20 22:46:00,
2013-04-20 18:47:00,61.3,29.7,29.88,WSW,248,0.5,2.7,30,0.00,,---,0.04,VWS V14.01,2013-04-20 22:47:00,
2013-04-20 18:48:00,61.3,29.7,29.88,West,270,0.7,3.1,30,0.00,,---,0.04,VWS V14.01,2013-04-20 22:48:00,
2013-04-20 18:49:00,61.2,29.5,29.88,WSW,248,0.5,3.1,30,0.00,,---,0.04,VWS V14.01,2013-04-20 22:49:00,
2013-04-20 18:50:00,61.3,30.5,29.88,WSW,248,0.2,2.5,31,0.00,,---,0.04,VWS V14.01,2013-04-20 22:50:00,
2013-04-20 18:51:00,61.3,30.5,29.88,SW,225,0.0,2.7,31,0.00,,---,0.04,VWS V14.01,2013-04-20 22:51:00,
2013-04-20 18:52:00,61.2,30.3,29.88,WSW,248,0.9,3.1,31,0.00,,---,0.04,VWS V14.01,2013-04-20 22:52:00,
2013-04-20 18:53:00,61.2,30.3,29.88,WSW,248,0.2,2.9,31,0.00,,---,0.04,VWS V14.01,2013-04-20 22:53:00,
2013-04-20 18:54:00,61.3,29.7,29.88,WSW,248,0.5,2.9,30,0.00,,---,0.04,VWS V14.01,2013-04-20 22:54:00,
2013-04-20 18:55:00,61.2,29.5,29.88,WSW,248,0.5,3.1,30,0.00,,---,0.04,VWS V14.01,2013-04-20 22:55:00,
2013-04-20 18:56:00,61.2,30.3,29.88,West,270,0.9,2.9,31,0.00,,---,0.04,VWS V14.01,2013-04-20 22:56:00,
2013-04-20 18:57:00,61.0,30.2,29.88,SSE,158,0.2,2.5,31,0.00,,---,0.04,VWS V14.01,2013-04-20 22:57:00,
2013-04-20 18:58:00,61.0,30.2,29.88,SSE,158,0.2,2.2,31,0.00,,---,0.04,VWS V14.01,2013-04-20 22:58:00,
2013-04-20 18:59:00,61.2,30.3,29.88,WSW,248,0.2,2.9,31,0.00,,---,0.04,VWS V14.01,2013-04-20 22:59:00,
2013-04-20 19:00:00,61.0,30.2,29.88,SW,225,0.2,2.5,31,0.00,,---,0.04,VWS V14.01,2013-04-20 23:00:00,
2013-04-20 19:01:00,61.0,30.2,29.88,SW,225,0.0,2.0,31,0.00,,---,0.04,VWS V14.01,2013-04-20 23:01:00,
2013-04-20 19:02:00,61.0,30.2,29.88,WNW,292,1.1,3.1,31,0.00,,---,0.04,VWS V14.01,2013-04-20 23:02:00,
2013-04-20 19:03:00,60.8,30.0,29.88,WSW,248,0.7,3.1,31,0.00,,---,0.04,VWS V14.01,2013-04-20 23:03:00,
2013-04-20 19:04:00,61.0,30.2,29.88,SSE,158,0.2,2.2,31,0.00,,---,0.04,VWS V14.01,2013-04-20 23:04:00,
2013-04-20 19:05:00,61.0,30.2,29.88,SSE,158,0.2,2.2,31,0.00,,---,0.04,VWS V14.01,2013-04-20 23:05:00,
2013-04-20 19:06:00,60.8,30.0,29.88,WSW,248,1.8,3.8,31,0.00,,---,0.04,VWS V14.01,2013-04-20 23:06:00,
2013-04-20 19:07:00,60.6,29.8,29.88,WSW,248,0.5,3.8,31,0.00,,---,0.04,VWS V14.01,2013-04-20 23:07:00,
2013-04-20 19:08:00,61.0,30.2,29.88,WNW,292,1.1,3.1,31,0.00,,---,0.04,VWS V14.01,2013-04-20 23:08:00,
2013-04-20 19:09:00,60.8,30.0,29.88,WSW,248,0.7,3.1,31,0.00,,---,0.04,VWS V14.01,2013-04-20 23:09:00,
2013-04-20 19:10:00,60.6,29.8,29.88,SSE,158,0.0,2.7,31,0.00,,---,0.04,VWS V14.01,2013-04-20 23:10:00,
2013-04-20 19:11:00,60.6,29.8,29.88,SSE,158,0.0,1.3,31,0.00,,---,0.04,VWS V14.01,2013-04-20 23:11:00,
2013-04-20 19:12:00,60.6,29.8,29.88,SW,225,0.0,2.0,31,0.00,,---,0.04,VWS V14.01,2013-04-20 23:12:00,
2013-04-20 19:13:00,60.6,29.8,29.88,WSW,248,0.5,3.8,31,0.00,,---,0.04,VWS V14.01,2013-04-20 23:13:00,
2013-04-20 19:14:00,60.4,30.5,29.88,South,180,0.0,1.6,32,0.00,,---,0.04,VWS V14.01,2013-04-20 23:14:00,
2013-04-20 19:15:00,60.6,29.8,29.88,SSE,158,0.0,2.7,31,0.00,,---,0.04,VWS V14.01,2013-04-20 23:15:00,
2013-04-20 19:16:00,60.4,30.5,29.88,SE,135,0.5,1.6,32,0.00,,---,0.04,VWS V14.01,2013-04-20 23:16:00,
2013-04-20 19:17:00,60.6,30.6,29.88,WSW,248,0.0,1.6,32,0.00,,---,0.04,VWS V14.01,2013-04-20 23:17:00,
2013-04-20 19:18:00,60.3,31.1,29.88,West,270,0.5,1.6,33,0.00,,---,0.04,VWS V14.01,2013-04-20 23:18:00,
2013-04-20 19:19:00,60.4,29.7,29.88,SW,225,0.0,0.0,31,0.00,,---,0.04,VWS V14.01,2013-04-20 23:19:00,
2013-04-20 19:20:00,60.4,30.5,29.88,South,180,0.0,1.6,32,0.00,,---,0.04,VWS V14.01,2013-04-20 23:20:00,
2013-04-20 19:21:00,60.1,30.1,29.88,NNW,338,0.2,1.1,32,0.00,,---,0.04,VWS V14.01,2013-04-20 23:21:00,
2013-04-20 19:22:00,60.4,30.5,29.88,SE,135,0.5,1.6,32,0.00,,---,0.04,VWS V14.01,2013-04-20 23:22:00,
2013-04-20 19:23:00,60.1,30.9,29.88,NW,315,0.0,2.0,33,0.00,,---,0.04,VWS V14.01,2013-04-20 23:23:00,
2013-04-20 19:24:00,60.1,30.9,29.88,South,180,0.2,2.2,33,0.00,,---,0.04,VWS V14.01,2013-04-20 23:24:00,
2013-04-20 19:25:00,60.1,30.1,29.88,SSW,202,0.0,2.0,32,0.00,,---,0.04,VWS V14.01,2013-04-20 23:25:00,
2013-04-20 19:26:00,60.1,30.1,29.88,West,270,0.2,2.2,32,0.00,,---,0.04,VWS V14.01,2013-04-20 23:26:00,
2013-04-20 19:27:00,59.9,30.8,29.88,SSE,158,0.0,1.3,33,0.00,,---,0.04,VWS V14.01,2013-04-20 23:27:00,
2013-04-20 19:28:00,59.9,30.8,29.88,SSE,158,0.0,0.9,33,0.00,,---,0.04,VWS V14.01,2013-04-20 23:28:00,
2013-04-20 19:29:00,60.1,30.9,29.88,NW,315,0.0,2.0,33,0.00,,---,0.04,VWS V14.01,2013-04-20 23:29:00,
2013-04-20 19:30:00,60.1,30.9,29.88,South,180,0.2,2.2,33,0.00,,---,0.04,VWS V14.01,2013-04-20 23:30:00,
2013-04-20 19:31:00,59.9,30.8,29.88,ESE,112,0.0,0.0,33,0.00,,---,0.04,VWS V14.01,2013-04-20 23:31:00,
2013-04-20 19:32:00,59.9,30.8,29.88,ESE,112,0.0,0.0,33,0.00,,---,0.04,VWS V14.01,2013-04-20 23:32:00,
2013-04-20 19:33:00,59.7,31.3,29.88,East,90,0.0,0.0,34,0.00,,---,0.04,VWS V14.01,2013-04-20 23:33:00,
2013-04-20 19:34:00,59.9,30.8,29.88,SSE,158,0.0,0.9,33,0.00,,---,0.04,VWS V14.01,2013-04-20 23:34:00,
2013-04-20 19:35:00,59.9,30.8,29.88,NW,315,0.0,0.0,33,0.00,,---,0.04,VWS V14.01,2013-04-20 23:35:00,
2013-04-20 19:36:00,59.9,31.5,29.88,East,90,0.0,0.0,34,0.00,,---,0.04,VWS V14.01,2013-04-20 23:36:00,
2013-04-20 19:37:00,59.5,31.2,29.88,East,90,0.0,0.0,34,0.00,,---,0.04,VWS V14.01,2013-04-20 23:37:00,
2013-04-20 19:38:00,59.9,30.8,29.88,ESE,112,0.0,0.0,33,0.00,,---,0.04,VWS V14.01,2013-04-20 23:38:00,
2013-04-20 19:39:00,59.5,31.2,29.88,ESE,112,0.0,0.0,34,0.00,,---,0.04,VWS V14.01,2013-04-20 23:39:00,
2013-04-20 19:40:00,59.4,31.0,29.91,ESE,112,0.0,0.0,34,0.00,,---,0.04,VWS V14.01,2013-04-20 23:40:00,
2013-04-20 19:41:00,59.7,31.3,29.88,East,90,0.0,0.0,34,0.00,,---,0.04,VWS V14.01,2013-04-20 23:41:00,
2013-04-20 19:42:00,59.5,31.2,29.88,East,90,0.0,0.0,34,0.00,,---,0.04,VWS V14.01,2013-04-20 23:42:00,
2013-04-20 19:43:00,59.5,31.2,29.88,East,90,0.0,0.0,34,0.00,,---,0.04,VWS V14.01,2013-04-20 23:43:00,
2013-04-20 19:45:00,58.8,31.2,29.91,ESE,112,0.0,0.0,35,0.00,,---,0.04,VWS V14.01,2013-04-20 23:45:00,
2013-04-20 19:46:00,59.4,31.0,29.91,ESE,112,0.0,0.0,34,0.00,,---,0.04,VWS V14.01,2013-04-20 23:46:00,
2013-04-20 19:47:00,58.6,31.1,29.91,ESE,112,0.0,0.0,35,0.00,,---,0.04,VWS V14.01,2013-04-20 23:47:00,
2013-04-20 19:48:00,59.0,30.7,29.91,ESE,112,0.0,0.0,34,0.00,,---,0.04,VWS V14.01,2013-04-20 23:48:00,
2013-04-20 19:49:00,59.0,30.7,29.91,ESE,112,0.0,0.0,34,0.00,,---,0.04,VWS V14.01,2013-04-20 23:49:00,
2013-04-20 19:50:00,58.5,30.9,29.91,ESE,112,0.0,0.0,35,0.00,,---,0.04,VWS V14.01,2013-04-20 23:50:00,
2013-04-20 19:51:00,58.5,30.9,29.91,ESE,112,0.0,0.0,35,0.00,,---,0.04,VWS V14.01,2013-04-20 23:51:00,
2013-04-20 19:52:00,58.3,30.8,29.91,ESE,112,0.0,0.0,35,0.00,,---,0.04,VWS V14.01,2013-04-20 23:52:00,
2013-04-20 19:53:00,58.1,30.6,29.91,ESE,112,0.0,0.0,35,0.00,,---,0.04,VWS V14.01,2013-04-20 23:53:00,
2013-04-20 19:54:00,58.6,31.1,29.91,ESE,112,0.0,0.0,35,0.00,,---,0.04,VWS V14.01,2013-04-20 23:54:00,
2013-04-20 19:55:00,58.5,30.9,29.91,ESE,112,0.0,0.0,35,0.00,,---,0.04,VWS V14.01,2013-04-20 23:55:00,
2013-04-20 19:56:00,58.5,30.9,29.91,ESE,112,0.0,0.0,35,0.00,,---,0.04,VWS V14.01,2013-04-20 23:56:00,
2013-04-20 19:57:00,57.9,30.5,29.91,ESE,112,0.0,0.0,35,0.00,,---,0.04,VWS V14.01,2013-04-20 23:57:00,
2013-04-20 19:58:00,57.9,30.5,29.91,ESE,112,0.0,0.0,35,0.00,,---,0.04,VWS V14.01,2013-04-20 23:58:00,
2013-04-20 19:59:00,58.1,30.6,29.91,ESE,112,0.0,0.0,35,0.00,,---,0.04,VWS V14.01,2013-04-20 23:59:00,
2013-04-20 20:00:00,58.1,30.6,29.91,ESE,112,0.0,0.0,35,0.00,,---,0.04,VWS V14.01,2013-04-21 00:00:00,
2013-04-20 20:01:00,57.7,30.3,29.91,ESE,112,0.0,0.0,35,0.00,,---,0.04,VWS V14.01,2013-04-21 00:01:00,
2013-04-20 20:02:00,57.9,30.5,29.91,ESE,112,0.0,0.0,35,0.00,,---,0.04,VWS V14.01,2013-04-21 00:02:00,
2013-04-20 20:03:00,57.9,30.5,29.91,ESE,112,0.0,0.0,35,0.00,,---,0.04,VWS V14.01,2013-04-21 00:03:00,
2013-04-20 20:04:00,57.4,30.0,29.91,ESE,112,0.0,0.0,35,0.00,,---,0.04,VWS V14.01,2013-04-21 00:04:00,
2013-04-20 20:05:00,57.9,30.5,29.91,ESE,112,0.0,0.0,35,0.00,,---,0.04,VWS V14.01,2013-04-21 00:05:00,
2013-04-20 20:06:00,57.7,30.3,29.91,ESE,112,0.0,0.0,35,0.00,,---,0.04,VWS V14.01,2013-04-21 00:06:00,
2013-04-20 20:07:00,57.2,29.8,29.91,ESE,112,0.0,0.0,35,0.00,,---,0.04,VWS V14.01,2013-04-21 00:07:00,
2013-04-20 20:08:00,57.6,30.1,29.91,ESE,112,0.0,0.0,35,0.00,,---,0.04,VWS V14.01,2013-04-21 00:08:00,
2013-04-20 20:09:00,57.0,30.4,29.94,ESE,112,0.0,0.0,36,0.00,,---,0.04,VWS V14.01,2013-04-21 00:09:00,
2013-04-20 20:10:00,57.0,30.4,29.94,ESE,112,0.0,0.0,36,0.00,,---,0.04,VWS V14.01,2013-04-21 00:10:00,
2013-04-20 20:11:00,57.4,30.0,29.91,ESE,112,0.0,0.0,35,0.00,,---,0.04,VWS V14.01,2013-04-21 00:11:00,
2013-04-20 20:12:00,57.2,29.8,29.91,ESE,112,0.0,0.0,35,0.00,,---,0.04,VWS V14.01,2013-04-21 00:12:00,
2013-04-20 20:13:00,56.7,30.0,29.94,ESE,112,0.0,0.0,36,0.00,,---,0.04,VWS V14.01,2013-04-21 00:13:00,
2013-04-20 20:14:00,57.2,29.8,29.91,ESE,112,0.0,0.0,35,0.00,,---,0.04,VWS V14.01,2013-04-21 00:14:00,
2013-04-20 20:15:00,56.5,29.9,29.94,ESE,112,0.0,0.0,36,0.00,,---,0.04,VWS V14.01,2013-04-21 00:15:00,
2013-04-20 20:16:00,56.5,29.9,29.94,ESE,112,0.0,0.0,36,0.00,,---,0.04,VWS V14.01,2013-04-21 00:16:00,
2013-04-20 20:17:00,56.3,29.7,29.94,ESE,112,0.0,0.0,36,0.00,,---,0.04,VWS V14.01,2013-04-21 00:17:00,
2013-04-20 20:18:00,56.7,30.0,29.94,ESE,112,0.0,0.0,36,0.00,,---,0.04,VWS V14.01,2013-04-21 00:18:00,
2013-04-20 20:19:00,56.1,29.5,29.94,ESE,112,0.0,0.0,36,0.00,,---,0.04,VWS V14.01,2013-04-21 00:19:00,
2013-04-20 20:20:00,56.1,29.5,29.94,ESE,112,0.0,0.0,36,0.00,,---,0.04,VWS V14.01,2013-04-21 00:20:00,
2013-04-20 20:21:00,56.5,29.9,29.94,ESE,112,0.0,0.0,36,0.00,,---,0.04,VWS V14.01,2013-04-21 00:21:00,
2013-04-20 20:22:00,56.5,29.9,29.94,ESE,112,0.0,0.0,36,0.00,,---,0.04,VWS V14.01,2013-04-21 00:22:00,
2013-04-20 20:23:00,56.3,29.7,29.94,ESE,112,0.0,0.0,36,0.00,,---,0.04,VWS V14.01,2013-04-21 00:23:00,
2013-04-20 20:24:00,55.8,29.2,29.94,ESE,112,0.0,0.0,36,0.00,,---,0.04,VWS V14.01,2013-04-21 00:24:00,
2013-04-20 20:25:00,55.8,29.2,29.94,ESE,112,0.0,0.0,36,0.00,,---,0.04,VWS V14.01,2013-04-21 00:25:00,
2013-04-20 20:26:00,55.6,29.1,29.94,ESE,112,0.0,0.0,36,0.00,,---,0.04,VWS V14.01,2013-04-21 00:26:00,
2013-04-20 20:27:00,55.9,29.4,29.94,ESE,112,0.0,0.0,36,0.00,,---,0.04,VWS V14.01,2013-04-21 00:27:00,
2013-04-20 20:28:00,55.9,29.4,29.94,ESE,112,0.0,0.0,36,0.00,,---,0.04,VWS V14.01,2013-04-21 00:28:00,
2013-04-20 20:29:00,55.9,29.4,29.94,ESE,112,0.0,0.0,36,0.00,,---,0.04,VWS V14.01,2013-04-21 00:29:00,
2013-04-20 20:30:00,55.2,29.4,29.94,ESE,112,0.0,0.0,37,0.00,,---,0.04,VWS V14.01,2013-04-21 00:30:00,
2013-04-20 20:31:00,55.0,29.3,29.94,ESE,112,0.0,0.0,37,0.00,,---,0.04,VWS V14.01,2013-04-21 00:31:00,
2013-04-20 20:32:00,55.6,29.1,29.94,ESE,112,0.0,0.0,36,0.00,,---,0.04,VWS V14.01,2013-04-21 00:32:00,
2013-04-20 20:33:00,55.4,28.9,29.94,ESE,112,0.0,0.0,36,0.00,,---,0.04,VWS V14.01,2013-04-21 00:33:00,
2013-04-20 20:34:00,54.7,28.9,29.94,ESE,112,0.0,0.0,37,0.00,,---,0.04,VWS V14.01,2013-04-21 00:34:00,
2013-04-20 20:35:00,55.2,29.4,29.94,ESE,112,0.0,0.0,37,0.00,,---,0.04,VWS V14.01,2013-04-21 00:35:00,
2013-04-20 20:36:00,55.2,29.4,29.94,ESE,112,0.0,0.0,37,0.00,,---,0.04,VWS V14.01,2013-04-21 00:36:00,
2013-04-20 20:37:00,55.0,29.3,29.94,ESE,112,0.0,0.0,37,0.00,,---,0.04,VWS V14.01,2013-04-21 00:37:00,
2013-04-20 20:38:00,54.5,28.8,29.94,ENE,68,0.0,0.0,37,0.00,,---,0.04,VWS V14.01,2013-04-21 00:38:00,
2013-04-20 20:39:00,54.5,28.8,29.94,NNE,22,0.0,0.0,37,0.00,,---,0.04,VWS V14.01,2013-04-21 00:39:00,
2013-04-20 20:40:00,54.3,28.6,29.94,NNE,22,0.0,0.0,37,0.00,,---,0.04,VWS V14.01,2013-04-21 00:40:00,
2013-04-20 20:41:00,54.7,28.9,29.94,ESE,112,0.0,0.0,37,0.00,,---,0.04,VWS V14.01,2013-04-21 00:41:00,
2013-04-20 20:42:00,54.3,28.6,29.94,NNE,22,0.0,0.0,37,0.00,,---,0.04,VWS V14.01,2013-04-21 00:42:00,
2013-04-20 20:43:00,54.5,28.8,29.94,ESE,112,0.0,0.0,37,0.00,,---,0.04,VWS V14.01,2013-04-21 00:43:00,
2013-04-20 20:44:00,54.5,28.8,29.94,ENE,68,0.0,0.0,37,0.00,,---,0.04,VWS V14.01,2013-04-21 00:44:00,
2013-04-20 20:45:00,54.0,29.0,29.94,NE,45,0.0,0.0,38,0.00,,---,0.04,VWS V14.01,2013-04-21 00:45:00,
2013-04-20 20:46:00,54.3,28.6,29.94,NNE,22,0.0,0.0,37,0.00,,---,0.04,VWS V14.01,2013-04-21 00:46:00,
2013-04-20 20:47:00,54.0,29.0,29.94,NE,45,0.0,0.0,38,0.00,,---,0.04,VWS V14.01,2013-04-21 00:47:00,
2013-04-20 20:48:00,54.3,28.6,29.94,NNE,22,0.0,0.0,37,0.00,,---,0.04,VWS V14.01,2013-04-21 00:48:00,
2013-04-20 20:49:00,53.6,28.6,29.94,NE,45,0.0,0.0,38,0.00,,---,0.04,VWS V14.01,2013-04-21 00:49:00,
2013-04-20 20:50:00,53.6,28.6,29.94,NE,45,0.0,0.0,38,0.00,,---,0.04,VWS V14.01,2013-04-21 00:50:00,
2013-04-20 20:51:00,53.4,28.5,29.94,NE,45,0.0,0.0,38,0.00,,---,0.04,VWS V14.01,2013-04-21 00:51:00,
2013-04-20 20:52:00,53.4,28.5,29.94,NE,45,0.0,0.0,38,0.00,,---,0.04,VWS V14.01,2013-04-21 00:52:00,
2013-04-20 20:53:00,54.0,29.0,29.94,NE,45,0.0,0.0,38,0.00,,---,0.04,VWS V14.01,2013-04-21 00:53:00,
2013-04-20 20:54:00,53.8,28.8,29.94,NE,45,0.0,0.0,38,0.00,,---,0.04,VWS V14.01,2013-04-21 00:54:00,
2013-04-20 20:55:00,53.2,28.9,29.94,NE,45,0.0,0.0,39,0.00,,---,0.04,VWS V14.01,2013-04-21 00:55:00,
2013-04-20 20:56:00,53.6,28.6,29.94,NE,45,0.0,0.0,38,0.00,,---,0.04,VWS V14.01,2013-04-21 00:56:00,
2013-04-20 20:57:00,53.4,28.5,29.94,NE,45,0.0,0.0,38,0.00,,---,0.04,VWS V14.01,2013-04-21 00:57:00,
2013-04-20 20:58:00,53.1,28.8,29.94,NE,45,0.0,0.0,39,0.00,,---,0.04,VWS V14.01,2013-04-21 00:58:00,
2013-04-20 20:59:00,53.1,28.8,29.94,NE,45,0.0,0.0,39,0.00,,---,0.04,VWS V14.01,2013-04-21 00:59:00,
2013-04-20 21:00:00,53.2,28.9,29.94,NE,45,0.0,0.0,39,0.00,,---,0.04,VWS V14.01,2013-04-21 01:00:00,
2013-04-20 21:01:00,52.9,28.6,29.94,NE,45,0.0,0.0,39,0.00,,---,0.04,VWS V14.01,2013-04-21 01:01:00,
2013-04-20 21:02:00,53.1,28.8,29.94,NE,45,0.0,0.0,39,0.00,,---,0.04,VWS V14.01,2013-04-21 01:02:00,
2013-04-20 21:03:00,53.1,28.8,29.94,NE,45,0.0,0.0,39,0.00,,---,0.04,VWS V14.01,2013-04-21 01:03:00,
2013-04-20 21:04:00,53.1,28.8,29.94,NE,45,0.0,0.0,39,0.00,,---,0.04,VWS V14.01,2013-04-21 01:04:00,
2013-04-20 21:05:00,52.7,28.5,29.94,NE,45,0.0,0.0,39,0.00,,---,0.04,VWS V14.01,2013-04-21 01:05:00,
2013-04-20 21:06:00,52.5,28.9,29.94,NE,45,0.0,0.0,40,0.00,,---,0.04,VWS V14.01,2013-04-21 01:06:00,
2013-04-20 21:07:00,52.5,28.9,29.94,NE,45,0.0,0.0,40,0.00,,---,0.04,VWS V14.01,2013-04-21 01:07:00,
2013-04-20 21:08:00,52.9,28.6,29.94,NE,45,0.0,0.0,39,0.00,,---,0.04,VWS V14.01,2013-04-21 01:08:00,
2013-04-20 21:09:00,52.5,28.9,29.94,NE,45,0.0,0.0,40,0.00,,---,0.04,VWS V14.01,2013-04-21 01:09:00,
2013-04-20 21:10:00,52.5,28.9,29.94,ENE,68,0.0,0.0,40,0.00,,---,0.04,VWS V14.01,2013-04-21 01:10:00,
2013-04-20 21:11:00,52.2,28.6,29.97,ENE,68,0.0,0.0,40,0.00,,---,0.04,VWS V14.01,2013-04-21 01:11:00,
2013-04-20 21:12:00,52.0,29.0,29.97,ENE,68,0.0,0.0,41,0.00,,---,0.04,VWS V14.01,2013-04-21 01:12:00,
2013-04-20 21:13:00,52.0,29.0,29.97,ENE,68,0.0,0.0,41,0.00,,---,0.04,VWS V14.01,2013-04-21 01:13:00,
2013-04-20 21:15:00,52.5,28.9,29.94,NE,45,0.0,0.0,40,0.00,,---,0.04,VWS V14.01,2013-04-21 01:15:00,
2013-04-20 21:16:00,51.8,29.5,29.97,ENE,68,0.0,0.0,42,0.00,,---,0.04,VWS V14.01,2013-04-21 01:16:00,
2013-04-20 21:17:00,52.2,28.6,29.97,ENE,68,0.0,0.0,40,0.00,,---,0.04,VWS V14.01,2013-04-21 01:17:00,
2013-04-20 21:18:00,51.6,29.9,29.97,ENE,68,0.0,0.0,43,0.00,,---,0.04,VWS V14.01,2013-04-21 01:18:00,
2013-04-20 21:19:00,51.6,29.9,29.97,ENE,68,0.0,0.0,43,0.00,,---,0.04,VWS V14.01,2013-04-21 01:19:00,
2013-04-20 21:20:00,52.0,29.0,29.97,ENE,68,0.0,0.0,41,0.00,,---,0.04,VWS V14.01,2013-04-21 01:20:00,
2013-04-20 21:21:00,51.8,28.9,29.97,ENE,68,0.0,0.0,41,0.00,,---,0.04,VWS V14.01,2013-04-21 01:21:00,
2013-04-20 21:22:00,51.8,29.5,29.97,ENE,68,0.0,0.0,42,0.00,,---,0.04,VWS V14.01,2013-04-21 01:22:00,
2013-04-20 21:23:00,51.4,29.7,29.97,ENE,68,0.0,0.0,43,0.00,,---,0.04,VWS V14.01,2013-04-21 01:23:00,
2013-04-20 21:24:00,51.3,30.1,29.97,ENE,68,0.0,0.0,44,0.00,,---,0.04,VWS V14.01,2013-04-21 01:24:00,
2013-04-20 21:25:00,51.3,29.5,29.97,ENE,68,0.0,0.0,43,0.00,,---,0.04,VWS V14.01,2013-04-21 01:25:00,
2013-04-20 21:26:00,51.4,29.7,29.97,ENE,68,0.0,0.0,43,0.00,,---,0.04,VWS V14.01,2013-04-21 01:26:00,
2013-04-20 21:27:00,51.1,29.4,29.97,ENE,68,0.0,0.0,43,0.00,,---,0.04,VWS V14.01,2013-04-21 01:27:00,
2013-04-20 21:28:00,51.4,29.7,29.97,ENE,68,0.0,0.0,43,0.00,,---,0.04,VWS V14.01,2013-04-21 01:28:00,
2013-04-20 21:29:00,51.1,29.4,29.97,ENE,68,0.0,0.0,43,0.00,,---,0.04,VWS V14.01,2013-04-21 01:29:00,
2013-04-20 21:30:00,51.3,30.1,29.97,ENE,68,0.0,0.0,44,0.00,,---,0.04,VWS V14.01,2013-04-21 01:30:00,
2013-04-20 21:31:00,50.9,29.8,29.97,ENE,68,0.0,0.0,44,0.00,,---,0.04,VWS V14.01,2013-04-21 01:31:00,
2013-04-20 21:32:00,50.9,30.3,29.97,ENE,68,0.0,0.0,45,0.00,,---,0.04,VWS V14.01,2013-04-21 01:32:00,
2013-04-20 21:33:00,51.1,29.4,29.97,ENE,68,0.0,0.0,43,0.00,,---,0.04,VWS V14.01,2013-04-21 01:33:00,
2013-04-20 21:34:00,50.5,30.5,29.97,ENE,68,0.0,0.0,46,0.00,,---,0.04,VWS V14.01,2013-04-21 01:34:00,
2013-04-20 21:35:00,51.1,29.4,29.97,ENE,68,0.0,0.0,43,0.00,,---,0.04,VWS V14.01,2013-04-21 01:35:00,
2013-04-20 21:36:00,50.9,29.8,29.97,ENE,68,0.0,0.0,44,0.00,,---,0.04,VWS V14.01,2013-04-21 01:36:00,
2013-04-20 21:37:00,50.4,30.4,29.97,ENE,68,0.0,0.0,46,0.00,,---,0.04,VWS V14.01,2013-04-21 01:37:00,
2013-04-20 21:38:00,50.9,30.3,29.97,ENE,68,0.0,0.0,45,0.00,,---,0.04,VWS V14.01,2013-04-21 01:38:00,
2013-04-20 21:39:00,50.4,30.4,30.00,ENE,68,0.0,0.0,46,0.00,,---,0.04,VWS V14.01,2013-04-21 01:39:00,
2013-04-20 21:40:00,50.4,30.4,30.00,ENE,68,0.0,0.0,46,0.00,,---,0.04,VWS V14.01,2013-04-21 01:40:00,
2013-04-20 21:41:00,50.5,30.5,29.97,ENE,68,0.0,0.0,46,0.00,,---,0.04,VWS V14.01,2013-04-21 01:41:00,
2013-04-20 21:42:00,50.5,30.5,29.97,ENE,68,0.0,0.0,46,0.00,,---,0.04,VWS V14.01,2013-04-21 01:42:00,
2013-04-20 21:43:00,50.4,30.4,29.97,ENE,68,0.0,0.0,46,0.00,,---,0.04,VWS V14.01,2013-04-21 01:43:00,
2013-04-20 21:44:00,50.0,30.0,30.00,ENE,68,0.0,0.0,46,0.00,,---,0.04,VWS V14.01,2013-04-21 01:44:00,
2013-04-20 21:45:00,50.0,30.0,30.00,ENE,68,0.0,0.0,46,0.00,,---,0.04,VWS V14.01,2013-04-21 01:45:00,
2013-04-20 21:46:00,50.0,30.0,30.00,ENE,68,0.0,0.0,46,0.00,,---,0.04,VWS V14.01,2013-04-21 01:46:00,
2013-04-20 21:47:00,50.2,30.2,30.00,ENE,68,0.0,0.0,46,0.00,,---,0.04,VWS V14.01,2013-04-21 01:47:00,
2013-04-20 21:48:00,49.8,30.4,30.00,ENE,68,0.0,0.0,47,0.00,,---,0.04,VWS V14.01,2013-04-21 01:48:00,
2013-04-20 21:49:00,50.2,30.2,30.00,ENE,68,0.0,0.0,46,0.00,,---,0.04,VWS V14.01,2013-04-21 01:49:00,
2013-04-20 21:50:00,49.8,30.4,30.00,ENE,68,0.0,0.0,47,0.00,,---,0.04,VWS V14.01,2013-04-21 01:50:00,
2013-04-20 21:51:00,49.6,30.2,30.00,ENE,68,0.0,0.0,47,0.00,,---,0.04,VWS V14.01,2013-04-21 01:51:00,
2013-04-20 21:52:00,50.0,30.0,30.00,ENE,68,0.0,0.0,46,0.00,,---,0.04,VWS V14.01,2013-04-21 01:52:00,
2013-04-20 21:53:00,49.6,30.2,30.00,ENE,68,0.0,0.0,47,0.00,,---,0.04,VWS V14.01,2013-04-21 01:53:00,
2013-04-20 21:54:00,49.8,30.4,30.00,ENE,68,0.0,0.0,47,0.00,,---,0.04,VWS V14.01,2013-04-21 01:54:00,
2013-04-20 21:55:00,49.5,30.1,30.00,ENE,68,0.0,0.0,47,0.00,,---,0.04,VWS V14.01,2013-04-21 01:55:00,
2013-04-20 21:56:00,49.8,30.4,30.00,ENE,68,0.0,0.0,47,0.00,,---,0.04,VWS V14.01,2013-04-21 01:56:00,
2013-04-20 21:57:00,49.5,30.1,30.00,ENE,68,0.0,0.0,47,0.00,,---,0.04,VWS V14.01,2013-04-21 01:57:00,
2013-04-20 21:58:00,49.5,30.1,30.00,ENE,68,0.0,0.0,47,0.00,,---,0.04,VWS V14.01,2013-04-21 01:58:00,
2013-04-20 21:59:00,49.5,30.1,30.00,ENE,68,0.0,0.0,47,0.00,,---,0.04,VWS V14.01,2013-04-21 01:59:00,
2013-04-20 22:00:00,49.6,30.2,30.00,ENE,68,0.0,0.0,47,0.00,,---,0.04,VWS V14.01,2013-04-21 02:00:00,
2013-04-20 22:01:00,49.5,30.1,30.00,ENE,68,0.0,0.0,47,0.00,,---,0.04,VWS V14.01,2013-04-21 02:01:00,
2013-04-20 22:02:00,49.5,30.6,30.00,ENE,68,0.0,0.0,48,0.00,,---,0.04,VWS V14.01,2013-04-21 02:02:00,
2013-04-20 22:03:00,49.5,30.1,30.00,ENE,68,0.0,0.0,47,0.00,,---,0.04,VWS V14.01,2013-04-21 02:03:00,
2013-04-20 22:04:00,49.5,30.1,30.00,ENE,68,0.0,0.0,47,0.00,,---,0.04,VWS V14.01,2013-04-21 02:04:00,
2013-04-20 22:05:00,49.3,30.4,30.00,ENE,68,0.0,0.0,48,0.00,,---,0.04,VWS V14.01,2013-04-21 02:05:00,
2013-04-20 22:06:00,49.5,30.1,30.00,ENE,68,0.0,0.0,47,0.00,,---,0.04,VWS V14.01,2013-04-21 02:06:00,
2013-04-20 22:07:00,49.5,30.6,30.00,ENE,68,0.0,0.0,48,0.00,,---,0.04,VWS V14.01,2013-04-21 02:07:00,
2013-04-20 22:08:00,49.1,30.3,30.00,ENE,68,0.0,0.0,48,0.00,,---,0.04,VWS V14.01,2013-04-21 02:08:00,
2013-04-20 22:09:00,49.1,30.3,30.00,ENE,68,0.0,0.0,48,0.00,,---,0.04,VWS V14.01,2013-04-21 02:09:00,
2013-04-20 22:10:00,49.3,30.4,30.00,ENE,68,0.0,0.0,48,0.00,,---,0.04,VWS V14.01,2013-04-21 02:10:00,
2013-04-20 22:11:00,49.3,30.4,30.00,ENE,68,0.0,0.0,48,0.00,,---,0.04,VWS V14.01,2013-04-21 02:11:00,
2013-04-20 22:12:00,48.9,30.6,30.00,ENE,68,55.3,0.0,49,0.00,,---,0.04,VWS V14.01,2013-04-21 02:12:00,
2013-04-20 22:13:00,48.9,30.6,30.00,ENE,68,55.3,0.0,49,0.00,,---,0.04,VWS V14.01,2013-04-21 02:13:00,
2013-04-20 22:14:00,49.1,30.3,30.00,ENE,68,0.0,0.0,48,0.00,,---,0.04,VWS V14.01,2013-04-21 02:14:00,
2013-04-20 22:15:00,48.7,31.0,30.00,ENE,68,55.3,0.0,50,0.00,,---,0.04,VWS V14.01,2013-04-21 02:15:00,
2013-04-20 22:16:00,49.1,30.3,30.00,ENE,68,55.3,57.3,48,0.00,,---,0.04,VWS V14.01,2013-04-21 02:16:00,
2013-04-20 22:17:00,48.7,31.0,30.00,ENE,68,55.3,0.0,50,0.00,,---,0.04,VWS V14.01,2013-04-21 02:17:00,
2013-04-20 22:18:00,48.7,31.0,30.00,ENE,68,55.3,0.0,50,0.00,,---,0.04,VWS V14.01,2013-04-21 02:18:00,
2013-04-20 22:19:00,48.6,30.3,30.00,ENE,68,55.3,0.0,49,0.00,,---,0.04,VWS V14.01,2013-04-21 02:19:00,
2013-04-20 22:20:00,48.9,31.1,30.00,ENE,68,55.3,0.0,50,0.00,,---,0.04,VWS V14.01,2013-04-21 02:20:00,
2013-04-20 22:21:00,48.7,31.0,30.00,ENE,68,55.3,0.0,50,0.00,,---,0.04,VWS V14.01,2013-04-21 02:21:00,
2013-04-20 22:22:00,48.7,31.0,30.00,ENE,68,55.3,0.0,50,0.00,,---,0.04,VWS V14.01,2013-04-21 02:22:00,
2013-04-20 22:23:00,48.4,30.6,30.00,ENE,68,55.3,0.0,50,0.00,,---,0.04,VWS V14.01,2013-04-21 02:23:00,
2013-04-20 22:24:00,48.4,30.6,30.00,ENE,68,55.3,0.0,50,0.00,,---,0.04,VWS V14.01,2013-04-21 02:24:00,
2013-04-20 22:25:00,48.6,30.3,30.00,ENE,68,55.3,0.0,49,0.00,,---,0.04,VWS V14.01,2013-04-21 02:25:00,
2013-04-20 22:26:00,48.2,30.5,30.00,ENE,68,55.3,0.0,50,0.00,,---,0.04,VWS V14.01,2013-04-21 02:26:00,
2013-04-20 22:27:00,48.0,30.8,30.00,East,90,55.3,0.0,51,0.00,,---,0.04,VWS V14.01,2013-04-21 02:27:00,
2013-04-20 22:28:00,48.4,30.6,30.00,ENE,68,55.3,0.0,50,0.00,,---,0.04,VWS V14.01,2013-04-21 02:28:00,
2013-04-20 22:29:00,48.4,30.6,30.00,ENE,68,55.3,0.0,50,0.00,,---,0.04,VWS V14.01,2013-04-21 02:29:00,
2013-04-20 22:30:00,48.4,30.6,30.00,ENE,68,55.3,0.0,50,0.00,,---,0.04,VWS V14.01,2013-04-21 02:30:00,
2013-04-20 22:31:00,48.2,30.9,30.00,ENE,68,55.3,0.0,51,0.00,,---,0.04,VWS V14.01,2013-04-21 02:31:00,
2013-04-20 22:32:00,47.8,30.6,30.00,East,90,55.3,0.0,51,0.00,,---,0.04,VWS V14.01,2013-04-21 02:32:00,
2013-04-20 22:33:00,48.0,30.8,30.00,East,90,55.3,0.0,51,0.00,,---,0.04,VWS V14.01,2013-04-21 02:33:00,
2013-04-20 22:34:00,47.8,30.6,30.00,East,90,55.3,0.0,51,0.00,,---,0.04,VWS V14.01,2013-04-21 02:34:00,
2013-04-20 22:35:00,47.7,30.4,30.00,East,90,55.3,0.0,51,0.00,,---,0.04,VWS V14.01,2013-04-21 02:35:00,
2013-04-20 22:36:00,47.8,30.6,30.00,East,90,55.3,0.0,51,0.00,,---,0.04,VWS V14.01,2013-04-21 02:36:00,
2013-04-20 22:37:00,47.7,30.4,30.00,East,90,55.3,0.0,51,0.00,,---,0.04,VWS V14.01,2013-04-21 02:37:00,
2013-04-20 22:38:00,47.8,30.6,30.00,East,90,55.3,0.0,51,0.00,,---,0.04,VWS V14.01,2013-04-21 02:38:00,
2013-04-20 22:39:00,47.8,30.6,30.00,East,90,55.3,0.0,51,0.00,,---,0.04,VWS V14.01,2013-04-21 02:39:00,
2013-04-20 22:40:00,47.5,30.3,30.00,East,90,55.3,0.0,51,0.00,,---,0.04,VWS V14.01,2013-04-21 02:40:00,
2013-04-20 22:41:00,47.7,30.4,30.00,East,90,55.3,0.0,51,0.00,,---,0.04,VWS V14.01,2013-04-21 02:41:00,
2013-04-20 22:42:00,47.7,30.4,30.00,East,90,55.3,0.0,51,0.00,,---,0.04,VWS V14.01,2013-04-21 02:42:00,
2013-04-20 22:43:00,47.5,30.8,30.00,East,90,55.3,0.0,52,0.00,,---,0.04,VWS V14.01,2013-04-21 02:43:00,
2013-04-20 22:44:00,47.7,30.4,30.00,East,90,55.3,0.0,51,0.00,,---,0.04,VWS V14.01,2013-04-21 02:44:00,
2013-04-20 22:45:00,47.5,30.8,30.00,East,90,55.3,0.0,52,0.00,,---,0.04,VWS V14.01,2013-04-21 02:45:00,
2013-04-20 22:46:00,47.5,30.3,30.00,East,90,55.3,0.0,51,0.00,,---,0.04,VWS V14.01,2013-04-21 02:46:00,
2013-04-20 22:47:00,47.3,30.6,30.00,East,90,55.3,0.0,52,0.00,,---,0.04,VWS V14.01,2013-04-21 02:47:00,
2013-04-20 22:48:00,47.3,31.0,30.00,East,90,55.3,0.0,53,0.00,,---,0.04,VWS V14.01,2013-04-21 02:48:00,
2013-04-20 22:49:00,47.5,30.8,30.00,East,90,55.3,0.0,52,0.00,,---,0.04,VWS V14.01,2013-04-21 02:49:00,
2013-04-20 22:50:00,47.5,30.8,30.00,East,90,55.3,0.0,52,0.00,,---,0.04,VWS V14.01,2013-04-21 02:50:00,
2013-04-20 22:51:00,47.3,31.0,30.00,East,90,55.3,0.0,53,0.00,,---,0.04,VWS V14.01,2013-04-21 02:51:00,
2013-04-20 22:52:00,47.3,30.6,30.00,East,90,55.3,0.0,52,0.00,,---,0.04,VWS V14.01,2013-04-21 02:52:00,
2013-04-20 22:53:00,47.1,31.4,30.00,East,90,55.3,0.0,54,0.00,,---,0.04,VWS V14.01,2013-04-21 02:53:00,
2013-04-20 22:54:00,47.3,31.0,30.00,East,90,55.3,0.0,53,0.00,,---,0.04,VWS V14.01,2013-04-21 02:54:00,
2013-04-20 22:55:00,47.1,31.8,30.00,East,90,55.3,0.0,55,0.00,,---,0.04,VWS V14.01,2013-04-21 02:55:00,
2013-04-20 22:56:00,47.1,32.2,30.00,East,90,55.3,0.0,56,0.00,,---,0.04,VWS V14.01,2013-04-21 02:56:00,
2013-04-20 22:57:00,47.1,32.2,30.00,East,90,55.3,0.0,56,0.00,,---,0.04,VWS V14.01,2013-04-21 02:57:00,
2013-04-20 22:58:00,46.9,32.5,30.00,East,90,0.0,2.0,57,0.00,,---,0.04,VWS V14.01,2013-04-21 02:58:00,
2013-04-20 22:59:00,47.1,31.4,30.00,East,90,55.3,0.0,54,0.00,,---,0.04,VWS V14.01,2013-04-21 02:59:00,
2013-04-20 23:00:00,47.1,31.4,30.00,East,90,55.3,0.0,54,0.00,,---,0.04,VWS V14.01,2013-04-21 03:00:00,
2013-04-20 23:01:00,47.1,31.8,30.00,East,90,55.3,0.0,55,0.00,,---,0.04,VWS V14.01,2013-04-21 03:01:00,
2013-04-20 23:02:00,46.9,32.5,30.00,East,90,0.0,1.6,57,0.00,,---,0.04,VWS V14.01,2013-04-21 03:02:00,
2013-04-20 23:03:00,46.9,32.5,30.00,East,90,0.0,1.6,57,0.00,,---,0.04,VWS V14.01,2013-04-21 03:03:00,
2013-04-20 23:04:00,46.9,32.5,30.00,East,90,0.0,2.0,57,0.00,,---,0.04,VWS V14.01,2013-04-21 03:04:00,
2013-04-20 23:05:00,46.8,32.3,30.00,East,90,0.0,0.0,57,0.00,,---,0.04,VWS V14.01,2013-04-21 03:05:00,
2013-04-20 23:06:00,46.8,32.3,30.00,East,90,0.0,0.0,57,0.00,,---,0.04,VWS V14.01,2013-04-21 03:06:00,
2013-04-20 23:07:00,46.9,32.5,30.00,East,90,0.0,0.0,57,0.00,,---,0.04,VWS V14.01,2013-04-21 03:07:00,
2013-04-20 23:08:00,46.9,32.5,30.00,East,90,0.0,1.6,57,0.00,,---,0.04,VWS V14.01,2013-04-21 03:08:00,
2013-04-20 23:09:00,46.9,32.5,30.00,East,90,0.0,1.6,57,0.00,,---,0.04,VWS V14.01,2013-04-21 03:09:00,
2013-04-20 23:10:00,46.8,32.8,29.97,East,90,0.0,0.0,58,0.00,,---,0.04,VWS V14.01,2013-04-21 03:10:00,
2013-04-20 23:11:00,46.8,32.8,29.97,East,90,0.0,0.0,58,0.00,,---,0.04,VWS V14.01,2013-04-21 03:11:00,
2013-04-20 23:12:00,46.8,32.3,30.00,East,90,0.0,0.0,57,0.00,,---,0.04,VWS V14.01,2013-04-21 03:12:00,
2013-04-20 23:13:00,46.8,32.3,30.00,East,90,0.0,0.0,57,0.00,,---,0.04,VWS V14.01,2013-04-21 03:13:00,
2013-04-20 23:14:00,46.8,32.3,30.00,East,90,0.0,0.0,57,0.00,,---,0.04,VWS V14.01,2013-04-21 03:14:00,
2013-04-20 23:15:00,46.6,32.6,29.97,East,90,0.0,0.0,58,0.00,,---,0.04,VWS V14.01,2013-04-21 03:15:00,
2013-04-20 23:16:00,46.8,32.8,29.97,East,90,0.0,0.0,58,0.00,,---,0.04,VWS V14.01,2013-04-21 03:16:00,
2013-04-20 23:17:00,46.6,33.0,29.97,East,90,0.0,0.0,59,0.00,,---,0.04,VWS V14.01,2013-04-21 03:17:00,
2013-04-20 23:18:00,46.8,32.3,29.97,East,90,0.0,0.0,57,0.00,,---,0.04,VWS V14.01,2013-04-21 03:18:00,
2013-04-20 23:19:00,46.8,32.3,29.97,East,90,0.0,0.0,57,0.00,,---,0.04,VWS V14.01,2013-04-21 03:19:00,
2013-04-20 23:20:00,46.8,32.3,29.97,East,90,0.0,0.0,57,0.00,,---,0.04,VWS V14.01,2013-04-21 03:20:00,
2013-04-20 23:21:00,46.4,33.3,29.97,East,90,0.0,0.0,60,0.00,,---,0.04,VWS V14.01,2013-04-21 03:21:00,
2013-04-20 23:22:00,46.4,33.3,29.97,East,90,0.0,0.0,60,0.00,,---,0.04,VWS V14.01,2013-04-21 03:22:00,
2013-04-20 23:23:00,46.6,33.0,29.97,East,90,0.0,0.0,59,0.00,,---,0.04,VWS V14.01,2013-04-21 03:23:00,
2013-04-20 23:24:00,46.4,33.3,29.97,East,90,0.0,0.0,60,0.00,,---,0.04,VWS V14.01,2013-04-21 03:24:00,
2013-04-20 23:25:00,46.4,33.3,30.00,East,90,0.0,0.0,60,0.00,,---,0.04,VWS V14.01,2013-04-21 03:25:00,
2013-04-20 23:26:00,46.4,33.7,29.97,East,90,0.0,0.0,61,0.00,,---,0.04,VWS V14.01,2013-04-21 03:26:00,
2013-04-20 23:27:00,46.4,33.3,29.97,East,90,0.0,0.0,60,0.00,,---,0.04,VWS V14.01,2013-04-21 03:27:00,
2013-04-20 23:28:00,46.4,33.3,29.97,East,90,0.0,0.0,60,0.00,,---,0.04,VWS V14.01,2013-04-21 03:28:00,
2013-04-20 23:29:00,46.2,33.1,30.00,East,90,0.0,0.0,60,0.00,,---,0.04,VWS V14.01,2013-04-21 03:29:00,
2013-04-20 23:30:00,46.2,33.1,30.00,East,90,0.0,0.0,60,0.00,,---,0.04,VWS V14.01,2013-04-21 03:30:00,
2013-04-20 23:31:00,46.2,33.1,30.00,East,90,0.0,0.0,60,0.00,,---,0.04,VWS V14.01,2013-04-21 03:31:00,
2013-04-20 23:32:00,46.4,33.3,30.00,East,90,0.0,0.0,60,0.00,,---,0.04,VWS V14.01,2013-04-21 03:32:00,
2013-04-20 23:33:00,46.0,33.0,30.00,East,90,0.0,0.0,60,0.00,,---,0.04,VWS V14.01,2013-04-21 03:33:00,
2013-04-20 23:34:00,46.2,33.1,30.00,East,90,0.0,0.0,60,0.00,,---,0.04,VWS V14.01,2013-04-21 03:34:00,
2013-04-20 23:35:00,46.0,33.0,30.00,East,90,0.0,0.0,60,0.00,,---,0.04,VWS V14.01,2013-04-21 03:35:00,
2013-04-20 23:36:00,46.2,33.1,30.00,East,90,0.0,0.0,60,0.00,,---,0.04,VWS V14.01,2013-04-21 03:36:00,
2013-04-20 23:37:00,46.2,33.1,30.00,East,90,0.0,0.0,60,0.00,,---,0.04,VWS V14.01,2013-04-21 03:37:00,
2013-04-20 23:38:00,46.2,33.1,30.00,East,90,0.0,0.0,60,0.00,,---,0.04,VWS V14.01,2013-04-21 03:38:00,
2013-04-20 23:39:00,46.0,33.4,30.00,East,90,0.0,0.0,61,0.00,,---,0.04,VWS V14.01,2013-04-21 03:39:00,
2013-04-20 23:40:00,45.9,33.2,30.00,East,90,0.0,0.0,61,0.00,,---,0.04,VWS V14.01,2013-04-21 03:40:00,
2013-04-20 23:41:00,46.0,33.0,30.00,East,90,0.0,0.0,60,0.00,,---,0.04,VWS V14.01,2013-04-21 03:41:00,
2013-04-20 23:42:00,46.0,33.4,30.00,East,90,0.0,0.0,61,0.00,,---,0.04,VWS V14.01,2013-04-21 03:42:00,
2013-04-20 23:43:00,46.0,33.0,30.00,East,90,0.0,0.0,60,0.00,,---,0.04,VWS V14.01,2013-04-21 03:43:00,
2013-04-20 23:44:00,45.9,32.8,30.00,East,90,0.0,0.0,60,0.00,,---,0.04,VWS V14.01,2013-04-21 03:44:00,
2013-04-20 23:45:00,46.0,33.4,30.00,East,90,0.0,0.0,61,0.00,,---,0.04,VWS V14.01,2013-04-21 03:45:00,
2013-04-20 23:46:00,45.9,32.8,30.00,East,90,0.0,0.0,60,0.00,,---,0.04,VWS V14.01,2013-04-21 03:46:00,
2013-04-20 23:47:00,45.9,32.8,30.00,East,90,0.0,0.0,60,0.00,,---,0.04,VWS V14.01,2013-04-21 03:47:00,
2013-04-20 23:48:00,45.9,32.8,30.00,East,90,0.0,0.0,60,0.00,,---,0.04,VWS V14.01,2013-04-21 03:48:00,
2013-04-20 23:49:00,45.9,32.8,30.00,East,90,0.0,0.0,60,0.00,,---,0.04,VWS V14.01,2013-04-21 03:49:00,
2013-04-20 23:50:00,45.7,33.4,30.00,East,90,0.0,0.0,62,0.00,,---,0.04,VWS V14.01,2013-04-21 03:50:00,
2013-04-20 23:51:00,45.7,33.4,30.00,East,90,0.0,0.0,62,0.00,,---,0.04,VWS V14.01,2013-04-21 03:51:00,
2013-04-20 23:52:00,45.5,32.8,30.00,East,90,0.0,0.0,61,0.00,,---,0.04,VWS V14.01,2013-04-21 03:52:00,
2013-04-20 23:53:00,45.9,32.8,30.00,East,90,0.0,0.0,60,0.00,,---,0.04,VWS V14.01,2013-04-21 03:53:00,
2013-04-20 23:54:00,45.9,32.8,30.00,East,90,0.0,0.0,60,0.00,,---,0.04,VWS V14.01,2013-04-21 03:54:00,
2013-04-20 23:55:00,45.5,33.2,30.00,East,90,0.0,0.0,62,0.00,,---,0.00,VWS V14.01,2013-04-21 03:55:00,
2013-04-20 23:56:00,45.5,32.8,30.00,East,90,0.0,0.0,61,0.00,,---,0.00,VWS V14.01,2013-04-21 03:56:00,
2013-04-20 23:57:00,45.5,32.8,30.00,East,90,0.0,0.0,61,0.00,,---,0.00,VWS V14.01,2013-04-21 03:57:00,
2013-04-20 23:58:00,45.5,32.8,30.00,East,90,0.0,0.0,61,0.00,,---,0.04,VWS V14.01,2013-04-21 03:58:00,
2013-04-20 23:59:00,45.5,32.8,30.00,East,90,0.0,0.0,61,0.00,,---,0.04,VWS V14.01,2013-04-21 03:59:00,